<?xml version="1.0" encoding="UTF-8" standalone="no" ?>
<gpx xmlns="http://www.topografix.com/GPX/1/1" xmlns:xsi="http://www.w3.org/2001/XMLSchema-instance" xsi:schemaLocation="http://www.topografix.com/GPX/1/1 http://www.topografix.com/GPX/1/1/gpx.xsd" version="1.1" creator="VisuGPX - https://www.visugpx.com">
  <metadata>
    <name>Boucle depuis Chilhac (Haut Allier - Haute Loire)</name>
    <desc><![CDATA[Boucle depuis Chilhac (Haut Allier - Haute Loire) [17 août 2020]
]]></desc>
  </metadata>
  <trk>
    <name><![CDATA[Boucle depuis Chilhac]]></name>
    <trkseg>
      <trkpt lat="45.15486" lon="3.4396">
        <ele>475.11</ele>
        <time>2020-08-17T13:28:05Z</time>
      </trkpt>
      <trkpt lat="45.15481" lon="3.43953">
        <ele>473.082</ele>
        <time>2020-08-17T13:28:08Z</time>
      </trkpt>
      <trkpt lat="45.15477" lon="3.43947">
        <ele>473.298</ele>
        <time>2020-08-17T13:28:11Z</time>
      </trkpt>
      <trkpt lat="45.15477" lon="3.43946">
        <ele>473.308</ele>
        <time>2020-08-17T13:28:12Z</time>
      </trkpt>
      <trkpt lat="45.15472" lon="3.43935">
        <ele>475.366</ele>
        <time>2020-08-17T13:28:23Z</time>
      </trkpt>
      <trkpt lat="45.15469" lon="3.43927">
        <ele>475.528</ele>
        <time>2020-08-17T13:28:32Z</time>
      </trkpt>
      <trkpt lat="45.15469" lon="3.43926">
        <ele>476.013</ele>
        <time>2020-08-17T13:28:34Z</time>
      </trkpt>
      <trkpt lat="45.15468" lon="3.43924">
        <ele>476.972</ele>
        <time>2020-08-17T13:28:35Z</time>
      </trkpt>
      <trkpt lat="45.1546" lon="3.43897">
        <ele>478.404</ele>
        <time>2020-08-17T13:28:58Z</time>
      </trkpt>
      <trkpt lat="45.15459" lon="3.43895">
        <ele>478.536</ele>
        <time>2020-08-17T13:29:00Z</time>
      </trkpt>
      <trkpt lat="45.15439" lon="3.43844">
        <ele>479.852</ele>
        <time>2020-08-17T13:29:34Z</time>
      </trkpt>
      <trkpt lat="45.15437" lon="3.43839">
        <ele>479.381</ele>
        <time>2020-08-17T13:29:38Z</time>
      </trkpt>
      <trkpt lat="45.15436" lon="3.43834">
        <ele>479.886</ele>
        <time>2020-08-17T13:29:43Z</time>
      </trkpt>
      <trkpt lat="45.15434" lon="3.43828">
        <ele>480.398</ele>
        <time>2020-08-17T13:29:48Z</time>
      </trkpt>
      <trkpt lat="45.15432" lon="3.43815">
        <ele>480.948</ele>
        <time>2020-08-17T13:29:56Z</time>
      </trkpt>
      <trkpt lat="45.15432" lon="3.43811">
        <ele>480.027</ele>
        <time>2020-08-17T13:29:59Z</time>
      </trkpt>
      <trkpt lat="45.15424" lon="3.43772">
        <ele>480.226</ele>
        <time>2020-08-17T13:30:21Z</time>
      </trkpt>
      <trkpt lat="45.15423" lon="3.43771">
        <ele>480.626</ele>
        <time>2020-08-17T13:30:23Z</time>
      </trkpt>
      <trkpt lat="45.15424" lon="3.43771">
        <ele>480.701</ele>
        <time>2020-08-17T13:30:24Z</time>
      </trkpt>
      <trkpt lat="45.15424" lon="3.43771">
        <ele>480.479</ele>
        <time>2020-08-17T13:30:25Z</time>
      </trkpt>
      <trkpt lat="45.15424" lon="3.43771">
        <ele>479.765</ele>
        <time>2020-08-17T13:30:27Z</time>
      </trkpt>
      <trkpt lat="45.15424" lon="3.43771">
        <ele>480.057</ele>
        <time>2020-08-17T13:30:30Z</time>
      </trkpt>
      <trkpt lat="45.15425" lon="3.4377">
        <ele>479.68</ele>
        <time>2020-08-17T13:30:31Z</time>
      </trkpt>
      <trkpt lat="45.15426" lon="3.43771">
        <ele>479.298</ele>
        <time>2020-08-17T13:30:35Z</time>
      </trkpt>
      <trkpt lat="45.15426" lon="3.43771">
        <ele>479.259</ele>
        <time>2020-08-17T13:30:38Z</time>
      </trkpt>
      <trkpt lat="45.15426" lon="3.43772">
        <ele>479.621</ele>
        <time>2020-08-17T13:30:39Z</time>
      </trkpt>
      <trkpt lat="45.15426" lon="3.43772">
        <ele>479.591</ele>
        <time>2020-08-17T13:30:40Z</time>
      </trkpt>
      <trkpt lat="45.15426" lon="3.43772">
        <ele>479.599</ele>
        <time>2020-08-17T13:30:44Z</time>
      </trkpt>
      <trkpt lat="45.15426" lon="3.43772">
        <ele>480.243</ele>
        <time>2020-08-17T13:30:45Z</time>
      </trkpt>
      <trkpt lat="45.15426" lon="3.43772">
        <ele>480.017</ele>
        <time>2020-08-17T13:30:46Z</time>
      </trkpt>
      <trkpt lat="45.15426" lon="3.43772">
        <ele>479.509</ele>
        <time>2020-08-17T13:30:47Z</time>
      </trkpt>
      <trkpt lat="45.15426" lon="3.43772">
        <ele>479.509</ele>
        <time>2020-08-17T13:30:47Z</time>
      </trkpt>
      <trkpt lat="45.15426" lon="3.43772">
        <ele>479.489</ele>
        <time>2020-08-17T13:30:48Z</time>
      </trkpt>
      <trkpt lat="45.15426" lon="3.43771">
        <ele>480.099</ele>
        <time>2020-08-17T13:30:59Z</time>
      </trkpt>
      <trkpt lat="45.15426" lon="3.43771">
        <ele>479.973</ele>
        <time>2020-08-17T13:31:00Z</time>
      </trkpt>
      <trkpt lat="45.15426" lon="3.43771">
        <ele>479.867</ele>
        <time>2020-08-17T13:31:01Z</time>
      </trkpt>
      <trkpt lat="45.15426" lon="3.43771">
        <ele>479.827</ele>
        <time>2020-08-17T13:31:05Z</time>
      </trkpt>
      <trkpt lat="45.15426" lon="3.43772">
        <ele>480.008</ele>
        <time>2020-08-17T13:31:06Z</time>
      </trkpt>
      <trkpt lat="45.15426" lon="3.43772">
        <ele>480.008</ele>
        <time>2020-08-17T13:31:06Z</time>
      </trkpt>
      <trkpt lat="45.15426" lon="3.43772">
        <ele>479.901</ele>
        <time>2020-08-17T13:31:07Z</time>
      </trkpt>
      <trkpt lat="45.15426" lon="3.43772">
        <ele>479.893</ele>
        <time>2020-08-17T13:31:08Z</time>
      </trkpt>
      <trkpt lat="45.15425" lon="3.43772">
        <ele>479.811</ele>
        <time>2020-08-17T13:31:09Z</time>
      </trkpt>
      <trkpt lat="45.15424" lon="3.43768">
        <ele>481.969</ele>
        <time>2020-08-17T13:31:14Z</time>
      </trkpt>
      <trkpt lat="45.15421" lon="3.43763">
        <ele>482.09</ele>
        <time>2020-08-17T13:31:19Z</time>
      </trkpt>
      <trkpt lat="45.1542" lon="3.43757">
        <ele>483.1</ele>
        <time>2020-08-17T13:31:24Z</time>
      </trkpt>
      <trkpt lat="45.1542" lon="3.43756">
        <ele>484.44</ele>
        <time>2020-08-17T13:31:26Z</time>
      </trkpt>
      <trkpt lat="45.1542" lon="3.43756">
        <ele>484.679</ele>
        <time>2020-08-17T13:31:44Z</time>
      </trkpt>
      <trkpt lat="45.1542" lon="3.43756">
        <ele>484.781</ele>
        <time>2020-08-17T13:31:45Z</time>
      </trkpt>
      <trkpt lat="45.1542" lon="3.43756">
        <ele>484.76</ele>
        <time>2020-08-17T13:31:46Z</time>
      </trkpt>
      <trkpt lat="45.1542" lon="3.43756">
        <ele>484.799</ele>
        <time>2020-08-17T13:31:55Z</time>
      </trkpt>
      <trkpt lat="45.1542" lon="3.43756">
        <ele>485.022</ele>
        <time>2020-08-17T13:31:56Z</time>
      </trkpt>
      <trkpt lat="45.15419" lon="3.43754">
        <ele>484.148</ele>
        <time>2020-08-17T13:31:58Z</time>
      </trkpt>
      <trkpt lat="45.15416" lon="3.43754">
        <ele>483.816</ele>
        <time>2020-08-17T13:32:01Z</time>
      </trkpt>
      <trkpt lat="45.15414" lon="3.43757">
        <ele>484.54</ele>
        <time>2020-08-17T13:32:03Z</time>
      </trkpt>
      <trkpt lat="45.15411" lon="3.43764">
        <ele>486.748</ele>
        <time>2020-08-17T13:32:07Z</time>
      </trkpt>
      <trkpt lat="45.1541" lon="3.43767">
        <ele>485.736</ele>
        <time>2020-08-17T13:32:10Z</time>
      </trkpt>
      <trkpt lat="45.15409" lon="3.43773">
        <ele>486.088</ele>
        <time>2020-08-17T13:32:17Z</time>
      </trkpt>
      <trkpt lat="45.15408" lon="3.43779">
        <ele>486.299</ele>
        <time>2020-08-17T13:32:21Z</time>
      </trkpt>
      <trkpt lat="45.15397" lon="3.43852">
        <ele>487.136</ele>
        <time>2020-08-17T13:33:03Z</time>
      </trkpt>
      <trkpt lat="45.15396" lon="3.43862">
        <ele>487.634</ele>
        <time>2020-08-17T13:33:09Z</time>
      </trkpt>
      <trkpt lat="45.15384" lon="3.43889">
        <ele>487.822</ele>
        <time>2020-08-17T13:33:25Z</time>
      </trkpt>
      <trkpt lat="45.15344" lon="3.43944">
        <ele>487.778</ele>
        <time>2020-08-17T13:34:08Z</time>
      </trkpt>
      <trkpt lat="45.15336" lon="3.43943">
        <ele>487.045</ele>
        <time>2020-08-17T13:34:15Z</time>
      </trkpt>
      <trkpt lat="45.15327" lon="3.43934">
        <ele>488.162</ele>
        <time>2020-08-17T13:34:25Z</time>
      </trkpt>
      <trkpt lat="45.15319" lon="3.43916">
        <ele>490.243</ele>
        <time>2020-08-17T13:34:38Z</time>
      </trkpt>
      <trkpt lat="45.15318" lon="3.43914">
        <ele>490.297</ele>
        <time>2020-08-17T13:34:40Z</time>
      </trkpt>
      <trkpt lat="45.15318" lon="3.43914">
        <ele>490.41</ele>
        <time>2020-08-17T13:34:41Z</time>
      </trkpt>
      <trkpt lat="45.15316" lon="3.43906">
        <ele>490.989</ele>
        <time>2020-08-17T13:34:46Z</time>
      </trkpt>
      <trkpt lat="45.15304" lon="3.43855">
        <ele>493.067</ele>
        <time>2020-08-17T13:35:22Z</time>
      </trkpt>
      <trkpt lat="45.153" lon="3.43831">
        <ele>494.996</ele>
        <time>2020-08-17T13:35:35Z</time>
      </trkpt>
      <trkpt lat="45.153" lon="3.4383">
        <ele>495.173</ele>
        <time>2020-08-17T13:35:36Z</time>
      </trkpt>
      <trkpt lat="45.153" lon="3.4383">
        <ele>495.614</ele>
        <time>2020-08-17T13:35:37Z</time>
      </trkpt>
      <trkpt lat="45.153" lon="3.43828">
        <ele>495.701</ele>
        <time>2020-08-17T13:35:54Z</time>
      </trkpt>
      <trkpt lat="45.153" lon="3.43827">
        <ele>495.553</ele>
        <time>2020-08-17T13:35:55Z</time>
      </trkpt>
      <trkpt lat="45.15298" lon="3.43823">
        <ele>495.275</ele>
        <time>2020-08-17T13:35:58Z</time>
      </trkpt>
      <trkpt lat="45.15294" lon="3.43795">
        <ele>494.026</ele>
        <time>2020-08-17T13:36:12Z</time>
      </trkpt>
      <trkpt lat="45.1529" lon="3.4374">
        <ele>496.029</ele>
        <time>2020-08-17T13:36:43Z</time>
      </trkpt>
      <trkpt lat="45.15286" lon="3.43734">
        <ele>496.726</ele>
        <time>2020-08-17T13:36:48Z</time>
      </trkpt>
      <trkpt lat="45.1528" lon="3.4373">
        <ele>498.76</ele>
        <time>2020-08-17T13:36:54Z</time>
      </trkpt>
      <trkpt lat="45.15272" lon="3.4373">
        <ele>500.303</ele>
        <time>2020-08-17T13:37:03Z</time>
      </trkpt>
      <trkpt lat="45.15256" lon="3.43731">
        <ele>501.696</ele>
        <time>2020-08-17T13:37:15Z</time>
      </trkpt>
      <trkpt lat="45.15247" lon="3.43735">
        <ele>502.655</ele>
        <time>2020-08-17T13:37:23Z</time>
      </trkpt>
      <trkpt lat="45.1524" lon="3.43736">
        <ele>503.081</ele>
        <time>2020-08-17T13:37:30Z</time>
      </trkpt>
      <trkpt lat="45.1524" lon="3.43736">
        <ele>502.721</ele>
        <time>2020-08-17T13:37:31Z</time>
      </trkpt>
      <trkpt lat="45.15235" lon="3.43736">
        <ele>502.975</ele>
        <time>2020-08-17T13:37:36Z</time>
      </trkpt>
      <trkpt lat="45.15233" lon="3.43736">
        <ele>502.74</ele>
        <time>2020-08-17T13:37:39Z</time>
      </trkpt>
      <trkpt lat="45.15233" lon="3.43736">
        <ele>502.74</ele>
        <time>2020-08-17T13:37:39Z</time>
      </trkpt>
      <trkpt lat="45.15233" lon="3.43736">
        <ele>502.631</ele>
        <time>2020-08-17T13:37:40Z</time>
      </trkpt>
      <trkpt lat="45.15233" lon="3.43736">
        <ele>502.631</ele>
        <time>2020-08-17T13:37:40Z</time>
      </trkpt>
      <trkpt lat="45.15233" lon="3.43736">
        <ele>502.531</ele>
        <time>2020-08-17T13:37:41Z</time>
      </trkpt>
      <trkpt lat="45.15207" lon="3.43741">
        <ele>502.989</ele>
        <time>2020-08-17T13:38:04Z</time>
      </trkpt>
      <trkpt lat="45.15204" lon="3.43743">
        <ele>502.99</ele>
        <time>2020-08-17T13:38:08Z</time>
      </trkpt>
      <trkpt lat="45.152" lon="3.43744">
        <ele>503.457</ele>
        <time>2020-08-17T13:38:12Z</time>
      </trkpt>
      <trkpt lat="45.1519" lon="3.43744">
        <ele>504.535</ele>
        <time>2020-08-17T13:38:22Z</time>
      </trkpt>
      <trkpt lat="45.15186" lon="3.43743">
        <ele>504.61</ele>
        <time>2020-08-17T13:38:25Z</time>
      </trkpt>
      <trkpt lat="45.1518" lon="3.43744">
        <ele>504.534</ele>
        <time>2020-08-17T13:38:30Z</time>
      </trkpt>
      <trkpt lat="45.15178" lon="3.43744">
        <ele>504.616</ele>
        <time>2020-08-17T13:38:31Z</time>
      </trkpt>
      <trkpt lat="45.15175" lon="3.43745">
        <ele>504.438</ele>
        <time>2020-08-17T13:38:34Z</time>
      </trkpt>
      <trkpt lat="45.15172" lon="3.43746">
        <ele>504.491</ele>
        <time>2020-08-17T13:38:37Z</time>
      </trkpt>
      <trkpt lat="45.15154" lon="3.43756">
        <ele>506.316</ele>
        <time>2020-08-17T13:38:55Z</time>
      </trkpt>
      <trkpt lat="45.15151" lon="3.43755">
        <ele>506.147</ele>
        <time>2020-08-17T13:38:58Z</time>
      </trkpt>
      <trkpt lat="45.15148" lon="3.43755">
        <ele>505.865</ele>
        <time>2020-08-17T13:39:00Z</time>
      </trkpt>
      <trkpt lat="45.15147" lon="3.43756">
        <ele>505.729</ele>
        <time>2020-08-17T13:39:01Z</time>
      </trkpt>
      <trkpt lat="45.15145" lon="3.43758">
        <ele>506.205</ele>
        <time>2020-08-17T13:39:03Z</time>
      </trkpt>
      <trkpt lat="45.15141" lon="3.4376">
        <ele>506.333</ele>
        <time>2020-08-17T13:39:05Z</time>
      </trkpt>
      <trkpt lat="45.1514" lon="3.4376">
        <ele>506.471</ele>
        <time>2020-08-17T13:39:07Z</time>
      </trkpt>
      <trkpt lat="45.15137" lon="3.43762">
        <ele>506.533</ele>
        <time>2020-08-17T13:39:10Z</time>
      </trkpt>
      <trkpt lat="45.15134" lon="3.43762">
        <ele>506.475</ele>
        <time>2020-08-17T13:39:13Z</time>
      </trkpt>
      <trkpt lat="45.15129" lon="3.43762">
        <ele>506.339</ele>
        <time>2020-08-17T13:39:16Z</time>
      </trkpt>
      <trkpt lat="45.15124" lon="3.43762">
        <ele>506.295</ele>
        <time>2020-08-17T13:39:19Z</time>
      </trkpt>
      <trkpt lat="45.15117" lon="3.43763">
        <ele>506.77</ele>
        <time>2020-08-17T13:39:24Z</time>
      </trkpt>
      <trkpt lat="45.15116" lon="3.43767">
        <ele>506.84</ele>
        <time>2020-08-17T13:39:26Z</time>
      </trkpt>
      <trkpt lat="45.15113" lon="3.43774">
        <ele>506.963</ele>
        <time>2020-08-17T13:39:30Z</time>
      </trkpt>
      <trkpt lat="45.15111" lon="3.43772">
        <ele>507.609</ele>
        <time>2020-08-17T13:39:32Z</time>
      </trkpt>
      <trkpt lat="45.15106" lon="3.43767">
        <ele>507.895</ele>
        <time>2020-08-17T13:39:34Z</time>
      </trkpt>
      <trkpt lat="45.151" lon="3.43762">
        <ele>508.054</ele>
        <time>2020-08-17T13:39:38Z</time>
      </trkpt>
      <trkpt lat="45.15099" lon="3.43762">
        <ele>508.195</ele>
        <time>2020-08-17T13:39:39Z</time>
      </trkpt>
      <trkpt lat="45.15098" lon="3.43763">
        <ele>508.679</ele>
        <time>2020-08-17T13:39:42Z</time>
      </trkpt>
      <trkpt lat="45.15098" lon="3.43763">
        <ele>508.679</ele>
        <time>2020-08-17T13:39:42Z</time>
      </trkpt>
      <trkpt lat="45.15096" lon="3.43764">
        <ele>508.687</ele>
        <time>2020-08-17T13:39:43Z</time>
      </trkpt>
      <trkpt lat="45.15094" lon="3.43764">
        <ele>508.579</ele>
        <time>2020-08-17T13:39:44Z</time>
      </trkpt>
      <trkpt lat="45.15086" lon="3.43771">
        <ele>509.466</ele>
        <time>2020-08-17T13:39:55Z</time>
      </trkpt>
      <trkpt lat="45.15081" lon="3.43777">
        <ele>510.205</ele>
        <time>2020-08-17T13:40:00Z</time>
      </trkpt>
      <trkpt lat="45.15079" lon="3.43785">
        <ele>510.764</ele>
        <time>2020-08-17T13:40:03Z</time>
      </trkpt>
      <trkpt lat="45.15078" lon="3.43786">
        <ele>510.928</ele>
        <time>2020-08-17T13:40:05Z</time>
      </trkpt>
      <trkpt lat="45.15075" lon="3.43785">
        <ele>511.142</ele>
        <time>2020-08-17T13:40:09Z</time>
      </trkpt>
      <trkpt lat="45.15074" lon="3.43785">
        <ele>511.506</ele>
        <time>2020-08-17T13:40:10Z</time>
      </trkpt>
      <trkpt lat="45.15074" lon="3.43786">
        <ele>512.115</ele>
        <time>2020-08-17T13:40:12Z</time>
      </trkpt>
      <trkpt lat="45.15072" lon="3.43786">
        <ele>511.962</ele>
        <time>2020-08-17T13:40:14Z</time>
      </trkpt>
      <trkpt lat="45.15064" lon="3.43786">
        <ele>512.694</ele>
        <time>2020-08-17T13:40:22Z</time>
      </trkpt>
      <trkpt lat="45.15061" lon="3.43786">
        <ele>513.233</ele>
        <time>2020-08-17T13:40:25Z</time>
      </trkpt>
      <trkpt lat="45.15058" lon="3.4379">
        <ele>513.073</ele>
        <time>2020-08-17T13:40:28Z</time>
      </trkpt>
      <trkpt lat="45.15056" lon="3.43792">
        <ele>513.268</ele>
        <time>2020-08-17T13:40:30Z</time>
      </trkpt>
      <trkpt lat="45.15053" lon="3.43792">
        <ele>513.548</ele>
        <time>2020-08-17T13:40:32Z</time>
      </trkpt>
      <trkpt lat="45.1505" lon="3.4379">
        <ele>513.444</ele>
        <time>2020-08-17T13:40:34Z</time>
      </trkpt>
      <trkpt lat="45.15048" lon="3.43788">
        <ele>514.303</ele>
        <time>2020-08-17T13:40:36Z</time>
      </trkpt>
      <trkpt lat="45.15047" lon="3.43787">
        <ele>514.649</ele>
        <time>2020-08-17T13:40:37Z</time>
      </trkpt>
      <trkpt lat="45.15045" lon="3.43791">
        <ele>515.553</ele>
        <time>2020-08-17T13:40:42Z</time>
      </trkpt>
      <trkpt lat="45.15045" lon="3.43799">
        <ele>515.326</ele>
        <time>2020-08-17T13:40:46Z</time>
      </trkpt>
      <trkpt lat="45.15042" lon="3.43802">
        <ele>515.462</ele>
        <time>2020-08-17T13:40:48Z</time>
      </trkpt>
      <trkpt lat="45.15041" lon="3.43802">
        <ele>515.583</ele>
        <time>2020-08-17T13:40:49Z</time>
      </trkpt>
      <trkpt lat="45.1504" lon="3.43803">
        <ele>515.826</ele>
        <time>2020-08-17T13:40:50Z</time>
      </trkpt>
      <trkpt lat="45.15039" lon="3.43804">
        <ele>515.816</ele>
        <time>2020-08-17T13:40:51Z</time>
      </trkpt>
      <trkpt lat="45.15035" lon="3.43805">
        <ele>516.465</ele>
        <time>2020-08-17T13:40:54Z</time>
      </trkpt>
      <trkpt lat="45.15031" lon="3.43805">
        <ele>517.126</ele>
        <time>2020-08-17T13:40:58Z</time>
      </trkpt>
      <trkpt lat="45.1503" lon="3.43805">
        <ele>517.384</ele>
        <time>2020-08-17T13:40:59Z</time>
      </trkpt>
      <trkpt lat="45.15028" lon="3.43808">
        <ele>517.606</ele>
        <time>2020-08-17T13:41:02Z</time>
      </trkpt>
      <trkpt lat="45.15026" lon="3.43811">
        <ele>518.762</ele>
        <time>2020-08-17T13:41:06Z</time>
      </trkpt>
      <trkpt lat="45.1502" lon="3.43815">
        <ele>521.145</ele>
        <time>2020-08-17T13:41:12Z</time>
      </trkpt>
      <trkpt lat="45.15011" lon="3.43814">
        <ele>523.155</ele>
        <time>2020-08-17T13:41:20Z</time>
      </trkpt>
      <trkpt lat="45.15011" lon="3.43813">
        <ele>523.074</ele>
        <time>2020-08-17T13:41:21Z</time>
      </trkpt>
      <trkpt lat="45.15009" lon="3.43813">
        <ele>523.507</ele>
        <time>2020-08-17T13:41:23Z</time>
      </trkpt>
      <trkpt lat="45.15008" lon="3.43814">
        <ele>523.693</ele>
        <time>2020-08-17T13:41:24Z</time>
      </trkpt>
      <trkpt lat="45.15006" lon="3.43816">
        <ele>524.3</ele>
        <time>2020-08-17T13:41:27Z</time>
      </trkpt>
      <trkpt lat="45.15" lon="3.43819">
        <ele>525.701</ele>
        <time>2020-08-17T13:41:34Z</time>
      </trkpt>
      <trkpt lat="45.14998" lon="3.43821">
        <ele>525.829</ele>
        <time>2020-08-17T13:41:37Z</time>
      </trkpt>
      <trkpt lat="45.14989" lon="3.43823">
        <ele>526.791</ele>
        <time>2020-08-17T13:41:45Z</time>
      </trkpt>
      <trkpt lat="45.14986" lon="3.43825">
        <ele>528.019</ele>
        <time>2020-08-17T13:41:49Z</time>
      </trkpt>
      <trkpt lat="45.14983" lon="3.43825">
        <ele>528.992</ele>
        <time>2020-08-17T13:41:53Z</time>
      </trkpt>
      <trkpt lat="45.14975" lon="3.4382">
        <ele>530.288</ele>
        <time>2020-08-17T13:42:00Z</time>
      </trkpt>
      <trkpt lat="45.14967" lon="3.43809">
        <ele>531.222</ele>
        <time>2020-08-17T13:42:09Z</time>
      </trkpt>
      <trkpt lat="45.14965" lon="3.43808">
        <ele>531.354</ele>
        <time>2020-08-17T13:42:11Z</time>
      </trkpt>
      <trkpt lat="45.14962" lon="3.43805">
        <ele>532.558</ele>
        <time>2020-08-17T13:42:16Z</time>
      </trkpt>
      <trkpt lat="45.14961" lon="3.43804">
        <ele>532.61</ele>
        <time>2020-08-17T13:42:17Z</time>
      </trkpt>
      <trkpt lat="45.14958" lon="3.43801">
        <ele>533.146</ele>
        <time>2020-08-17T13:42:19Z</time>
      </trkpt>
      <trkpt lat="45.14952" lon="3.43796">
        <ele>535.05</ele>
        <time>2020-08-17T13:42:23Z</time>
      </trkpt>
      <trkpt lat="45.14951" lon="3.43796">
        <ele>535.588</ele>
        <time>2020-08-17T13:42:24Z</time>
      </trkpt>
      <trkpt lat="45.14951" lon="3.43796">
        <ele>535.85</ele>
        <time>2020-08-17T13:42:25Z</time>
      </trkpt>
      <trkpt lat="45.14951" lon="3.43796">
        <ele>535.499</ele>
        <time>2020-08-17T13:42:26Z</time>
      </trkpt>
      <trkpt lat="45.14949" lon="3.43795">
        <ele>535.743</ele>
        <time>2020-08-17T13:42:27Z</time>
      </trkpt>
      <trkpt lat="45.14949" lon="3.43795">
        <ele>535.743</ele>
        <time>2020-08-17T13:42:27Z</time>
      </trkpt>
      <trkpt lat="45.14949" lon="3.43795">
        <ele>535.822</ele>
        <time>2020-08-17T13:42:28Z</time>
      </trkpt>
      <trkpt lat="45.14949" lon="3.43795">
        <ele>536.746</ele>
        <time>2020-08-17T13:42:32Z</time>
      </trkpt>
      <trkpt lat="45.14947" lon="3.43795">
        <ele>537.181</ele>
        <time>2020-08-17T13:42:33Z</time>
      </trkpt>
      <trkpt lat="45.14947" lon="3.43794">
        <ele>538.343</ele>
        <time>2020-08-17T13:42:35Z</time>
      </trkpt>
      <trkpt lat="45.14946" lon="3.43793">
        <ele>538.612</ele>
        <time>2020-08-17T13:42:36Z</time>
      </trkpt>
      <trkpt lat="45.14945" lon="3.43794">
        <ele>538.383</ele>
        <time>2020-08-17T13:42:37Z</time>
      </trkpt>
      <trkpt lat="45.14945" lon="3.43794">
        <ele>538.337</ele>
        <time>2020-08-17T13:42:38Z</time>
      </trkpt>
      <trkpt lat="45.14945" lon="3.43794">
        <ele>536.634</ele>
        <time>2020-08-17T13:42:59Z</time>
      </trkpt>
      <trkpt lat="45.14944" lon="3.43789">
        <ele>537.003</ele>
        <time>2020-08-17T13:43:00Z</time>
      </trkpt>
      <trkpt lat="45.14943" lon="3.4379">
        <ele>536.413</ele>
        <time>2020-08-17T13:43:02Z</time>
      </trkpt>
      <trkpt lat="45.14942" lon="3.43791">
        <ele>536.338</ele>
        <time>2020-08-17T13:43:03Z</time>
      </trkpt>
      <trkpt lat="45.14934" lon="3.43793">
        <ele>537.504</ele>
        <time>2020-08-17T13:43:09Z</time>
      </trkpt>
      <trkpt lat="45.1493" lon="3.43794">
        <ele>540.051</ele>
        <time>2020-08-17T13:43:13Z</time>
      </trkpt>
      <trkpt lat="45.14927" lon="3.43795">
        <ele>542.097</ele>
        <time>2020-08-17T13:43:15Z</time>
      </trkpt>
      <trkpt lat="45.14925" lon="3.43797">
        <ele>542.729</ele>
        <time>2020-08-17T13:43:18Z</time>
      </trkpt>
      <trkpt lat="45.1492" lon="3.43801">
        <ele>543.456</ele>
        <time>2020-08-17T13:43:25Z</time>
      </trkpt>
      <trkpt lat="45.14917" lon="3.43802">
        <ele>543.097</ele>
        <time>2020-08-17T13:43:28Z</time>
      </trkpt>
      <trkpt lat="45.14913" lon="3.43803">
        <ele>543.411</ele>
        <time>2020-08-17T13:43:32Z</time>
      </trkpt>
      <trkpt lat="45.14913" lon="3.43803">
        <ele>543.359</ele>
        <time>2020-08-17T13:43:33Z</time>
      </trkpt>
      <trkpt lat="45.14913" lon="3.43803">
        <ele>543.359</ele>
        <time>2020-08-17T13:43:33Z</time>
      </trkpt>
      <trkpt lat="45.14911" lon="3.43804">
        <ele>543.436</ele>
        <time>2020-08-17T13:43:34Z</time>
      </trkpt>
      <trkpt lat="45.14908" lon="3.43805">
        <ele>543.884</ele>
        <time>2020-08-17T13:43:38Z</time>
      </trkpt>
      <trkpt lat="45.14905" lon="3.43807">
        <ele>543.901</ele>
        <time>2020-08-17T13:43:41Z</time>
      </trkpt>
      <trkpt lat="45.14902" lon="3.43808">
        <ele>543.972</ele>
        <time>2020-08-17T13:43:43Z</time>
      </trkpt>
      <trkpt lat="45.14888" lon="3.43815">
        <ele>544.392</ele>
        <time>2020-08-17T13:43:53Z</time>
      </trkpt>
      <trkpt lat="45.14885" lon="3.43818">
        <ele>543.765</ele>
        <time>2020-08-17T13:43:55Z</time>
      </trkpt>
      <trkpt lat="45.1488" lon="3.4382">
        <ele>543.54</ele>
        <time>2020-08-17T13:43:57Z</time>
      </trkpt>
      <trkpt lat="45.14877" lon="3.4382">
        <ele>543.219</ele>
        <time>2020-08-17T13:44:00Z</time>
      </trkpt>
      <trkpt lat="45.14877" lon="3.4382">
        <ele>543.536</ele>
        <time>2020-08-17T13:44:01Z</time>
      </trkpt>
      <trkpt lat="45.14877" lon="3.4382">
        <ele>543.989</ele>
        <time>2020-08-17T13:44:05Z</time>
      </trkpt>
      <trkpt lat="45.14876" lon="3.43821">
        <ele>544.164</ele>
        <time>2020-08-17T13:44:06Z</time>
      </trkpt>
      <trkpt lat="45.14875" lon="3.43822">
        <ele>543.517</ele>
        <time>2020-08-17T13:44:07Z</time>
      </trkpt>
      <trkpt lat="45.14873" lon="3.4382">
        <ele>542.348</ele>
        <time>2020-08-17T13:44:10Z</time>
      </trkpt>
      <trkpt lat="45.14871" lon="3.43819">
        <ele>542.179</ele>
        <time>2020-08-17T13:44:13Z</time>
      </trkpt>
      <trkpt lat="45.14861" lon="3.43817">
        <ele>544.489</ele>
        <time>2020-08-17T13:44:20Z</time>
      </trkpt>
      <trkpt lat="45.14857" lon="3.43814">
        <ele>544.148</ele>
        <time>2020-08-17T13:44:24Z</time>
      </trkpt>
      <trkpt lat="45.1484" lon="3.43804">
        <ele>545.552</ele>
        <time>2020-08-17T13:44:41Z</time>
      </trkpt>
      <trkpt lat="45.14814" lon="3.43792">
        <ele>547.63</ele>
        <time>2020-08-17T13:45:02Z</time>
      </trkpt>
      <trkpt lat="45.14805" lon="3.43787">
        <ele>548.78</ele>
        <time>2020-08-17T13:45:10Z</time>
      </trkpt>
      <trkpt lat="45.14804" lon="3.43787">
        <ele>549.225</ele>
        <time>2020-08-17T13:45:11Z</time>
      </trkpt>
      <trkpt lat="45.14798" lon="3.43786">
        <ele>549.503</ele>
        <time>2020-08-17T13:45:17Z</time>
      </trkpt>
      <trkpt lat="45.14798" lon="3.43786">
        <ele>549.827</ele>
        <time>2020-08-17T13:45:18Z</time>
      </trkpt>
      <trkpt lat="45.14798" lon="3.43786">
        <ele>549.827</ele>
        <time>2020-08-17T13:45:18Z</time>
      </trkpt>
      <trkpt lat="45.14798" lon="3.43786">
        <ele>550.02</ele>
        <time>2020-08-17T13:45:19Z</time>
      </trkpt>
      <trkpt lat="45.14798" lon="3.43786">
        <ele>550.247</ele>
        <time>2020-08-17T13:45:29Z</time>
      </trkpt>
      <trkpt lat="45.14797" lon="3.43785">
        <ele>550.799</ele>
        <time>2020-08-17T13:45:30Z</time>
      </trkpt>
      <trkpt lat="45.14797" lon="3.43785">
        <ele>550.608</ele>
        <time>2020-08-17T13:45:31Z</time>
      </trkpt>
      <trkpt lat="45.14794" lon="3.43784">
        <ele>551.223</ele>
        <time>2020-08-17T13:45:34Z</time>
      </trkpt>
      <trkpt lat="45.14788" lon="3.43778">
        <ele>551.161</ele>
        <time>2020-08-17T13:45:41Z</time>
      </trkpt>
      <trkpt lat="45.14783" lon="3.43766">
        <ele>551.709</ele>
        <time>2020-08-17T13:45:51Z</time>
      </trkpt>
      <trkpt lat="45.14783" lon="3.43766">
        <ele>551.716</ele>
        <time>2020-08-17T13:45:52Z</time>
      </trkpt>
      <trkpt lat="45.14783" lon="3.43766">
        <ele>552.078</ele>
        <time>2020-08-17T13:45:53Z</time>
      </trkpt>
      <trkpt lat="45.14783" lon="3.43766">
        <ele>552.117</ele>
        <time>2020-08-17T13:45:54Z</time>
      </trkpt>
      <trkpt lat="45.14782" lon="3.43765">
        <ele>552.123</ele>
        <time>2020-08-17T13:45:55Z</time>
      </trkpt>
      <trkpt lat="45.14782" lon="3.43763">
        <ele>551.89</ele>
        <time>2020-08-17T13:45:58Z</time>
      </trkpt>
      <trkpt lat="45.14776" lon="3.43753">
        <ele>552.092</ele>
        <time>2020-08-17T13:46:07Z</time>
      </trkpt>
      <trkpt lat="45.14771" lon="3.4375">
        <ele>551.962</ele>
        <time>2020-08-17T13:46:11Z</time>
      </trkpt>
      <trkpt lat="45.14766" lon="3.43747">
        <ele>551.158</ele>
        <time>2020-08-17T13:46:15Z</time>
      </trkpt>
      <trkpt lat="45.14762" lon="3.43745">
        <ele>551.453</ele>
        <time>2020-08-17T13:46:20Z</time>
      </trkpt>
      <trkpt lat="45.14759" lon="3.43742">
        <ele>551.597</ele>
        <time>2020-08-17T13:46:23Z</time>
      </trkpt>
      <trkpt lat="45.14748" lon="3.43732">
        <ele>550.519</ele>
        <time>2020-08-17T13:46:36Z</time>
      </trkpt>
      <trkpt lat="45.14748" lon="3.43732">
        <ele>550.519</ele>
        <time>2020-08-17T13:46:36Z</time>
      </trkpt>
      <trkpt lat="45.14748" lon="3.43732">
        <ele>550.324</ele>
        <time>2020-08-17T13:46:37Z</time>
      </trkpt>
      <trkpt lat="45.14747" lon="3.43731">
        <ele>550.645</ele>
        <time>2020-08-17T13:46:40Z</time>
      </trkpt>
      <trkpt lat="45.14747" lon="3.43731">
        <ele>550.802</ele>
        <time>2020-08-17T13:46:41Z</time>
      </trkpt>
      <trkpt lat="45.14746" lon="3.4373">
        <ele>550.783</ele>
        <time>2020-08-17T13:46:42Z</time>
      </trkpt>
      <trkpt lat="45.14746" lon="3.4373">
        <ele>550.783</ele>
        <time>2020-08-17T13:46:42Z</time>
      </trkpt>
      <trkpt lat="45.14746" lon="3.4373">
        <ele>550.6</ele>
        <time>2020-08-17T13:46:43Z</time>
      </trkpt>
      <trkpt lat="45.14746" lon="3.4373">
        <ele>550.6</ele>
        <time>2020-08-17T13:46:43Z</time>
      </trkpt>
      <trkpt lat="45.14746" lon="3.43729">
        <ele>550.795</ele>
        <time>2020-08-17T13:46:44Z</time>
      </trkpt>
      <trkpt lat="45.14746" lon="3.43729">
        <ele>550.798</ele>
        <time>2020-08-17T13:46:45Z</time>
      </trkpt>
      <trkpt lat="45.14746" lon="3.43729">
        <ele>550.427</ele>
        <time>2020-08-17T13:46:50Z</time>
      </trkpt>
      <trkpt lat="45.14745" lon="3.43729">
        <ele>550.075</ele>
        <time>2020-08-17T13:46:51Z</time>
      </trkpt>
      <trkpt lat="45.14744" lon="3.43729">
        <ele>549.745</ele>
        <time>2020-08-17T13:46:52Z</time>
      </trkpt>
      <trkpt lat="45.14737" lon="3.43727">
        <ele>549.594</ele>
        <time>2020-08-17T13:46:59Z</time>
      </trkpt>
      <trkpt lat="45.14724" lon="3.43726">
        <ele>549.197</ele>
        <time>2020-08-17T13:47:09Z</time>
      </trkpt>
      <trkpt lat="45.14719" lon="3.43725">
        <ele>548.839</ele>
        <time>2020-08-17T13:47:14Z</time>
      </trkpt>
      <trkpt lat="45.14712" lon="3.43725">
        <ele>549.019</ele>
        <time>2020-08-17T13:47:22Z</time>
      </trkpt>
      <trkpt lat="45.14703" lon="3.43728">
        <ele>548.376</ele>
        <time>2020-08-17T13:47:31Z</time>
      </trkpt>
      <trkpt lat="45.14689" lon="3.43729">
        <ele>548.542</ele>
        <time>2020-08-17T13:47:45Z</time>
      </trkpt>
      <trkpt lat="45.14683" lon="3.43732">
        <ele>548.368</ele>
        <time>2020-08-17T13:47:49Z</time>
      </trkpt>
      <trkpt lat="45.14639" lon="3.43765">
        <ele>550.432</ele>
        <time>2020-08-17T13:48:26Z</time>
      </trkpt>
      <trkpt lat="45.14636" lon="3.43766">
        <ele>550.886</ele>
        <time>2020-08-17T13:48:28Z</time>
      </trkpt>
      <trkpt lat="45.1463" lon="3.43766">
        <ele>551.853</ele>
        <time>2020-08-17T13:48:33Z</time>
      </trkpt>
      <trkpt lat="45.14627" lon="3.43768">
        <ele>552.236</ele>
        <time>2020-08-17T13:48:36Z</time>
      </trkpt>
      <trkpt lat="45.14622" lon="3.4377">
        <ele>552.292</ele>
        <time>2020-08-17T13:48:40Z</time>
      </trkpt>
      <trkpt lat="45.14616" lon="3.4377">
        <ele>551.845</ele>
        <time>2020-08-17T13:48:46Z</time>
      </trkpt>
      <trkpt lat="45.14616" lon="3.43771">
        <ele>551.78</ele>
        <time>2020-08-17T13:48:47Z</time>
      </trkpt>
      <trkpt lat="45.14613" lon="3.43771">
        <ele>552.085</ele>
        <time>2020-08-17T13:48:50Z</time>
      </trkpt>
      <trkpt lat="45.1461" lon="3.4377">
        <ele>552.34</ele>
        <time>2020-08-17T13:48:54Z</time>
      </trkpt>
      <trkpt lat="45.1461" lon="3.43769">
        <ele>552.339</ele>
        <time>2020-08-17T13:48:55Z</time>
      </trkpt>
      <trkpt lat="45.14604" lon="3.43767">
        <ele>552.852</ele>
        <time>2020-08-17T13:49:03Z</time>
      </trkpt>
      <trkpt lat="45.14601" lon="3.43767">
        <ele>553.268</ele>
        <time>2020-08-17T13:49:06Z</time>
      </trkpt>
      <trkpt lat="45.14594" lon="3.43768">
        <ele>553.744</ele>
        <time>2020-08-17T13:49:13Z</time>
      </trkpt>
      <trkpt lat="45.14594" lon="3.43768">
        <ele>553.488</ele>
        <time>2020-08-17T13:49:14Z</time>
      </trkpt>
      <trkpt lat="45.14593" lon="3.43768">
        <ele>553.525</ele>
        <time>2020-08-17T13:49:15Z</time>
      </trkpt>
      <trkpt lat="45.1459" lon="3.4377">
        <ele>553.365</ele>
        <time>2020-08-17T13:49:19Z</time>
      </trkpt>
      <trkpt lat="45.14546" lon="3.43792">
        <ele>551.881</ele>
        <time>2020-08-17T13:50:05Z</time>
      </trkpt>
      <trkpt lat="45.14543" lon="3.43795">
        <ele>551.742</ele>
        <time>2020-08-17T13:50:09Z</time>
      </trkpt>
      <trkpt lat="45.1454" lon="3.43799">
        <ele>550.412</ele>
        <time>2020-08-17T13:50:14Z</time>
      </trkpt>
      <trkpt lat="45.1454" lon="3.43799">
        <ele>550.476</ele>
        <time>2020-08-17T13:50:15Z</time>
      </trkpt>
      <trkpt lat="45.1454" lon="3.43799">
        <ele>550.476</ele>
        <time>2020-08-17T13:50:15Z</time>
      </trkpt>
      <trkpt lat="45.1454" lon="3.438">
        <ele>549.904</ele>
        <time>2020-08-17T13:50:16Z</time>
      </trkpt>
      <trkpt lat="45.1454" lon="3.438">
        <ele>549.989</ele>
        <time>2020-08-17T13:50:17Z</time>
      </trkpt>
      <trkpt lat="45.1454" lon="3.438">
        <ele>549.861</ele>
        <time>2020-08-17T13:50:18Z</time>
      </trkpt>
      <trkpt lat="45.1454" lon="3.438">
        <ele>549.501</ele>
        <time>2020-08-17T13:50:19Z</time>
      </trkpt>
      <trkpt lat="45.14539" lon="3.43801">
        <ele>549.339</ele>
        <time>2020-08-17T13:50:20Z</time>
      </trkpt>
      <trkpt lat="45.14539" lon="3.43801">
        <ele>549.339</ele>
        <time>2020-08-17T13:50:20Z</time>
      </trkpt>
      <trkpt lat="45.14539" lon="3.43801">
        <ele>549.468</ele>
        <time>2020-08-17T13:50:21Z</time>
      </trkpt>
      <trkpt lat="45.14539" lon="3.43801">
        <ele>549.65</ele>
        <time>2020-08-17T13:50:34Z</time>
      </trkpt>
      <trkpt lat="45.14538" lon="3.43804">
        <ele>549.514</ele>
        <time>2020-08-17T13:50:35Z</time>
      </trkpt>
      <trkpt lat="45.14535" lon="3.43807">
        <ele>548.949</ele>
        <time>2020-08-17T13:50:38Z</time>
      </trkpt>
      <trkpt lat="45.14518" lon="3.43823">
        <ele>547.363</ele>
        <time>2020-08-17T13:50:58Z</time>
      </trkpt>
      <trkpt lat="45.14491" lon="3.43835">
        <ele>545.185</ele>
        <time>2020-08-17T13:51:24Z</time>
      </trkpt>
      <trkpt lat="45.14486" lon="3.43837">
        <ele>544.668</ele>
        <time>2020-08-17T13:51:28Z</time>
      </trkpt>
      <trkpt lat="45.14473" lon="3.43849">
        <ele>543.401</ele>
        <time>2020-08-17T13:51:41Z</time>
      </trkpt>
      <trkpt lat="45.14471" lon="3.43869">
        <ele>544.284</ele>
        <time>2020-08-17T13:51:55Z</time>
      </trkpt>
      <trkpt lat="45.14471" lon="3.43873">
        <ele>544.029</ele>
        <time>2020-08-17T13:51:58Z</time>
      </trkpt>
      <trkpt lat="45.14472" lon="3.43882">
        <ele>543.585</ele>
        <time>2020-08-17T13:52:04Z</time>
      </trkpt>
      <trkpt lat="45.14469" lon="3.43885">
        <ele>542.382</ele>
        <time>2020-08-17T13:52:08Z</time>
      </trkpt>
      <trkpt lat="45.14463" lon="3.43888">
        <ele>542.565</ele>
        <time>2020-08-17T13:52:15Z</time>
      </trkpt>
      <trkpt lat="45.14462" lon="3.43889">
        <ele>542.369</ele>
        <time>2020-08-17T13:52:16Z</time>
      </trkpt>
      <trkpt lat="45.1446" lon="3.4389">
        <ele>542.702</ele>
        <time>2020-08-17T13:52:19Z</time>
      </trkpt>
      <trkpt lat="45.14459" lon="3.4389">
        <ele>542.518</ele>
        <time>2020-08-17T13:52:21Z</time>
      </trkpt>
      <trkpt lat="45.14457" lon="3.4389">
        <ele>541.904</ele>
        <time>2020-08-17T13:52:23Z</time>
      </trkpt>
      <trkpt lat="45.14439" lon="3.43898">
        <ele>541.848</ele>
        <time>2020-08-17T13:52:42Z</time>
      </trkpt>
      <trkpt lat="45.14438" lon="3.43898">
        <ele>541.897</ele>
        <time>2020-08-17T13:52:44Z</time>
      </trkpt>
      <trkpt lat="45.14438" lon="3.43898">
        <ele>542.015</ele>
        <time>2020-08-17T13:52:45Z</time>
      </trkpt>
      <trkpt lat="45.14438" lon="3.43898">
        <ele>542.015</ele>
        <time>2020-08-17T13:52:45Z</time>
      </trkpt>
      <trkpt lat="45.14438" lon="3.43899">
        <ele>542.194</ele>
        <time>2020-08-17T13:52:46Z</time>
      </trkpt>
      <trkpt lat="45.14437" lon="3.43899">
        <ele>542.309</ele>
        <time>2020-08-17T13:52:47Z</time>
      </trkpt>
      <trkpt lat="45.14437" lon="3.43899">
        <ele>541.959</ele>
        <time>2020-08-17T13:52:48Z</time>
      </trkpt>
      <trkpt lat="45.14419" lon="3.43913">
        <ele>541.257</ele>
        <time>2020-08-17T13:53:07Z</time>
      </trkpt>
      <trkpt lat="45.14418" lon="3.43913">
        <ele>540.934</ele>
        <time>2020-08-17T13:53:08Z</time>
      </trkpt>
      <trkpt lat="45.14414" lon="3.43915">
        <ele>540.172</ele>
        <time>2020-08-17T13:53:13Z</time>
      </trkpt>
      <trkpt lat="45.14413" lon="3.43915">
        <ele>539.765</ele>
        <time>2020-08-17T13:53:15Z</time>
      </trkpt>
      <trkpt lat="45.14399" lon="3.43925">
        <ele>540.008</ele>
        <time>2020-08-17T13:53:29Z</time>
      </trkpt>
      <trkpt lat="45.14382" lon="3.43939">
        <ele>539.087</ele>
        <time>2020-08-17T13:53:45Z</time>
      </trkpt>
      <trkpt lat="45.14369" lon="3.43946">
        <ele>538.466</ele>
        <time>2020-08-17T13:53:57Z</time>
      </trkpt>
      <trkpt lat="45.14366" lon="3.43948">
        <ele>538.831</ele>
        <time>2020-08-17T13:54:00Z</time>
      </trkpt>
      <trkpt lat="45.14335" lon="3.43976">
        <ele>538.698</ele>
        <time>2020-08-17T13:54:29Z</time>
      </trkpt>
      <trkpt lat="45.14328" lon="3.43983">
        <ele>538.515</ele>
        <time>2020-08-17T13:54:36Z</time>
      </trkpt>
      <trkpt lat="45.14325" lon="3.43987">
        <ele>538.111</ele>
        <time>2020-08-17T13:54:39Z</time>
      </trkpt>
      <trkpt lat="45.14322" lon="3.4399">
        <ele>537.646</ele>
        <time>2020-08-17T13:54:42Z</time>
      </trkpt>
      <trkpt lat="45.14318" lon="3.43993">
        <ele>537.653</ele>
        <time>2020-08-17T13:54:46Z</time>
      </trkpt>
      <trkpt lat="45.1431" lon="3.43998">
        <ele>537.077</ele>
        <time>2020-08-17T13:54:53Z</time>
      </trkpt>
      <trkpt lat="45.14298" lon="3.44006">
        <ele>536.762</ele>
        <time>2020-08-17T13:55:06Z</time>
      </trkpt>
      <trkpt lat="45.14292" lon="3.44012">
        <ele>536.708</ele>
        <time>2020-08-17T13:55:12Z</time>
      </trkpt>
      <trkpt lat="45.1428" lon="3.44019">
        <ele>536.007</ele>
        <time>2020-08-17T13:55:23Z</time>
      </trkpt>
      <trkpt lat="45.14273" lon="3.44026">
        <ele>535.397</ele>
        <time>2020-08-17T13:55:31Z</time>
      </trkpt>
      <trkpt lat="45.1427" lon="3.44027">
        <ele>535.281</ele>
        <time>2020-08-17T13:55:34Z</time>
      </trkpt>
      <trkpt lat="45.14266" lon="3.4403">
        <ele>534.586</ele>
        <time>2020-08-17T13:55:40Z</time>
      </trkpt>
      <trkpt lat="45.14265" lon="3.4403">
        <ele>534.438</ele>
        <time>2020-08-17T13:55:41Z</time>
      </trkpt>
      <trkpt lat="45.14247" lon="3.44055">
        <ele>534.479</ele>
        <time>2020-08-17T13:56:07Z</time>
      </trkpt>
      <trkpt lat="45.14241" lon="3.44066">
        <ele>533.928</ele>
        <time>2020-08-17T13:56:14Z</time>
      </trkpt>
      <trkpt lat="45.14237" lon="3.44072">
        <ele>533.429</ele>
        <time>2020-08-17T13:56:19Z</time>
      </trkpt>
      <trkpt lat="45.14236" lon="3.44069">
        <ele>532.886</ele>
        <time>2020-08-17T13:56:23Z</time>
      </trkpt>
      <trkpt lat="45.14234" lon="3.44068">
        <ele>533.035</ele>
        <time>2020-08-17T13:56:26Z</time>
      </trkpt>
      <trkpt lat="45.14234" lon="3.44068">
        <ele>532.946</ele>
        <time>2020-08-17T13:56:27Z</time>
      </trkpt>
      <trkpt lat="45.14234" lon="3.44068">
        <ele>532.946</ele>
        <time>2020-08-17T13:56:27Z</time>
      </trkpt>
      <trkpt lat="45.14234" lon="3.44069">
        <ele>532.55</ele>
        <time>2020-08-17T13:56:28Z</time>
      </trkpt>
      <trkpt lat="45.14234" lon="3.44069">
        <ele>532.531</ele>
        <time>2020-08-17T13:56:29Z</time>
      </trkpt>
      <trkpt lat="45.1423" lon="3.44063">
        <ele>531.812</ele>
        <time>2020-08-17T13:56:36Z</time>
      </trkpt>
      <trkpt lat="45.14228" lon="3.44056">
        <ele>531.252</ele>
        <time>2020-08-17T13:56:40Z</time>
      </trkpt>
      <trkpt lat="45.14227" lon="3.44054">
        <ele>531.216</ele>
        <time>2020-08-17T13:56:41Z</time>
      </trkpt>
      <trkpt lat="45.14225" lon="3.4405">
        <ele>531.104</ele>
        <time>2020-08-17T13:56:44Z</time>
      </trkpt>
      <trkpt lat="45.14223" lon="3.44041">
        <ele>531.079</ele>
        <time>2020-08-17T13:56:53Z</time>
      </trkpt>
      <trkpt lat="45.14223" lon="3.4404">
        <ele>531.05</ele>
        <time>2020-08-17T13:56:54Z</time>
      </trkpt>
      <trkpt lat="45.14222" lon="3.44034">
        <ele>530.191</ele>
        <time>2020-08-17T13:56:59Z</time>
      </trkpt>
      <trkpt lat="45.1422" lon="3.44026">
        <ele>530.541</ele>
        <time>2020-08-17T13:57:03Z</time>
      </trkpt>
      <trkpt lat="45.14219" lon="3.44016">
        <ele>529.17</ele>
        <time>2020-08-17T13:57:09Z</time>
      </trkpt>
      <trkpt lat="45.14224" lon="3.43986">
        <ele>526.831</ele>
        <time>2020-08-17T13:57:28Z</time>
      </trkpt>
      <trkpt lat="45.14224" lon="3.43985">
        <ele>526.608</ele>
        <time>2020-08-17T13:57:31Z</time>
      </trkpt>
      <trkpt lat="45.14225" lon="3.43981">
        <ele>526.188</ele>
        <time>2020-08-17T13:57:34Z</time>
      </trkpt>
      <trkpt lat="45.14235" lon="3.43946">
        <ele>524.076</ele>
        <time>2020-08-17T13:57:56Z</time>
      </trkpt>
      <trkpt lat="45.14252" lon="3.43904">
        <ele>521.983</ele>
        <time>2020-08-17T13:58:25Z</time>
      </trkpt>
      <trkpt lat="45.14256" lon="3.43892">
        <ele>521.253</ele>
        <time>2020-08-17T13:58:33Z</time>
      </trkpt>
      <trkpt lat="45.14259" lon="3.43883">
        <ele>521.713</ele>
        <time>2020-08-17T13:58:38Z</time>
      </trkpt>
      <trkpt lat="45.14262" lon="3.4388">
        <ele>521.088</ele>
        <time>2020-08-17T13:58:41Z</time>
      </trkpt>
      <trkpt lat="45.1427" lon="3.43869">
        <ele>520.712</ele>
        <time>2020-08-17T13:58:51Z</time>
      </trkpt>
      <trkpt lat="45.14271" lon="3.43868">
        <ele>520.546</ele>
        <time>2020-08-17T13:58:53Z</time>
      </trkpt>
      <trkpt lat="45.14278" lon="3.43855">
        <ele>518.452</ele>
        <time>2020-08-17T13:59:05Z</time>
      </trkpt>
      <trkpt lat="45.14281" lon="3.43849">
        <ele>518.762</ele>
        <time>2020-08-17T13:59:09Z</time>
      </trkpt>
      <trkpt lat="45.1429" lon="3.43829">
        <ele>516.611</ele>
        <time>2020-08-17T13:59:24Z</time>
      </trkpt>
      <trkpt lat="45.14296" lon="3.43802">
        <ele>515.358</ele>
        <time>2020-08-17T13:59:42Z</time>
      </trkpt>
      <trkpt lat="45.14298" lon="3.43794">
        <ele>515.619</ele>
        <time>2020-08-17T13:59:48Z</time>
      </trkpt>
      <trkpt lat="45.143" lon="3.4379">
        <ele>515.153</ele>
        <time>2020-08-17T13:59:52Z</time>
      </trkpt>
      <trkpt lat="45.14297" lon="3.43782">
        <ele>515.563</ele>
        <time>2020-08-17T13:59:58Z</time>
      </trkpt>
      <trkpt lat="45.14297" lon="3.43781">
        <ele>515.28</ele>
        <time>2020-08-17T13:59:59Z</time>
      </trkpt>
      <trkpt lat="45.14294" lon="3.43778">
        <ele>515.529</ele>
        <time>2020-08-17T14:00:02Z</time>
      </trkpt>
      <trkpt lat="45.1429" lon="3.43782">
        <ele>515.641</ele>
        <time>2020-08-17T14:00:07Z</time>
      </trkpt>
      <trkpt lat="45.14279" lon="3.43809">
        <ele>514.461</ele>
        <time>2020-08-17T14:00:27Z</time>
      </trkpt>
      <trkpt lat="45.14279" lon="3.43809">
        <ele>514.704</ele>
        <time>2020-08-17T14:00:28Z</time>
      </trkpt>
      <trkpt lat="45.14276" lon="3.43808">
        <ele>514.697</ele>
        <time>2020-08-17T14:00:32Z</time>
      </trkpt>
      <trkpt lat="45.14273" lon="3.43805">
        <ele>514.572</ele>
        <time>2020-08-17T14:00:35Z</time>
      </trkpt>
      <trkpt lat="45.14265" lon="3.43791">
        <ele>514.998</ele>
        <time>2020-08-17T14:00:46Z</time>
      </trkpt>
      <trkpt lat="45.14265" lon="3.43789">
        <ele>514.905</ele>
        <time>2020-08-17T14:00:51Z</time>
      </trkpt>
      <trkpt lat="45.14259" lon="3.43779">
        <ele>514.273</ele>
        <time>2020-08-17T14:00:59Z</time>
      </trkpt>
      <trkpt lat="45.14253" lon="3.43771">
        <ele>513.414</ele>
        <time>2020-08-17T14:01:07Z</time>
      </trkpt>
      <trkpt lat="45.14239" lon="3.43747">
        <ele>514.418</ele>
        <time>2020-08-17T14:01:24Z</time>
      </trkpt>
      <trkpt lat="45.14234" lon="3.43743">
        <ele>514.483</ele>
        <time>2020-08-17T14:01:30Z</time>
      </trkpt>
      <trkpt lat="45.14233" lon="3.43739">
        <ele>513.664</ele>
        <time>2020-08-17T14:01:33Z</time>
      </trkpt>
      <trkpt lat="45.1423" lon="3.43734">
        <ele>512.944</ele>
        <time>2020-08-17T14:01:38Z</time>
      </trkpt>
      <trkpt lat="45.1423" lon="3.43734">
        <ele>513.117</ele>
        <time>2020-08-17T14:01:39Z</time>
      </trkpt>
      <trkpt lat="45.14227" lon="3.43724">
        <ele>510.994</ele>
        <time>2020-08-17T14:01:46Z</time>
      </trkpt>
      <trkpt lat="45.14227" lon="3.43717">
        <ele>509.876</ele>
        <time>2020-08-17T14:01:52Z</time>
      </trkpt>
      <trkpt lat="45.14229" lon="3.43711">
        <ele>509.172</ele>
        <time>2020-08-17T14:01:56Z</time>
      </trkpt>
      <trkpt lat="45.14234" lon="3.43701">
        <ele>507.054</ele>
        <time>2020-08-17T14:02:05Z</time>
      </trkpt>
      <trkpt lat="45.14242" lon="3.43695">
        <ele>505.6</ele>
        <time>2020-08-17T14:02:13Z</time>
      </trkpt>
      <trkpt lat="45.14244" lon="3.43694">
        <ele>505.472</ele>
        <time>2020-08-17T14:02:15Z</time>
      </trkpt>
      <trkpt lat="45.14245" lon="3.43693">
        <ele>505.441</ele>
        <time>2020-08-17T14:02:16Z</time>
      </trkpt>
      <trkpt lat="45.14245" lon="3.43693">
        <ele>505.308</ele>
        <time>2020-08-17T14:02:18Z</time>
      </trkpt>
      <trkpt lat="45.14245" lon="3.43693">
        <ele>505.25</ele>
        <time>2020-08-17T14:02:25Z</time>
      </trkpt>
      <trkpt lat="45.14244" lon="3.4369">
        <ele>504.834</ele>
        <time>2020-08-17T14:02:26Z</time>
      </trkpt>
      <trkpt lat="45.14242" lon="3.43685">
        <ele>504.081</ele>
        <time>2020-08-17T14:02:30Z</time>
      </trkpt>
      <trkpt lat="45.1424" lon="3.43685">
        <ele>504.036</ele>
        <time>2020-08-17T14:02:32Z</time>
      </trkpt>
      <trkpt lat="45.14236" lon="3.43688">
        <ele>504.237</ele>
        <time>2020-08-17T14:02:36Z</time>
      </trkpt>
      <trkpt lat="45.14232" lon="3.43691">
        <ele>503.697</ele>
        <time>2020-08-17T14:02:40Z</time>
      </trkpt>
      <trkpt lat="45.14221" lon="3.43697">
        <ele>503.062</ele>
        <time>2020-08-17T14:02:50Z</time>
      </trkpt>
      <trkpt lat="45.14211" lon="3.43706">
        <ele>503.416</ele>
        <time>2020-08-17T14:03:00Z</time>
      </trkpt>
      <trkpt lat="45.14208" lon="3.43709">
        <ele>502.86</ele>
        <time>2020-08-17T14:03:03Z</time>
      </trkpt>
      <trkpt lat="45.14205" lon="3.43715">
        <ele>502.734</ele>
        <time>2020-08-17T14:03:07Z</time>
      </trkpt>
      <trkpt lat="45.14202" lon="3.43719">
        <ele>502.216</ele>
        <time>2020-08-17T14:03:10Z</time>
      </trkpt>
      <trkpt lat="45.14197" lon="3.43733">
        <ele>501.208</ele>
        <time>2020-08-17T14:03:20Z</time>
      </trkpt>
      <trkpt lat="45.14183" lon="3.4378">
        <ele>499.2</ele>
        <time>2020-08-17T14:03:46Z</time>
      </trkpt>
      <trkpt lat="45.14171" lon="3.43791">
        <ele>498.322</ele>
        <time>2020-08-17T14:03:55Z</time>
      </trkpt>
      <trkpt lat="45.14166" lon="3.43792">
        <ele>497.507</ele>
        <time>2020-08-17T14:03:59Z</time>
      </trkpt>
      <trkpt lat="45.14161" lon="3.43789">
        <ele>496.084</ele>
        <time>2020-08-17T14:04:05Z</time>
      </trkpt>
      <trkpt lat="45.14156" lon="3.43786">
        <ele>494.691</ele>
        <time>2020-08-17T14:04:09Z</time>
      </trkpt>
      <trkpt lat="45.14144" lon="3.43776">
        <ele>493.695</ele>
        <time>2020-08-17T14:04:24Z</time>
      </trkpt>
      <trkpt lat="45.14135" lon="3.43748">
        <ele>493.023</ele>
        <time>2020-08-17T14:04:47Z</time>
      </trkpt>
      <trkpt lat="45.14134" lon="3.43743">
        <ele>493.492</ele>
        <time>2020-08-17T14:04:50Z</time>
      </trkpt>
      <trkpt lat="45.14134" lon="3.43738">
        <ele>493.71</ele>
        <time>2020-08-17T14:04:53Z</time>
      </trkpt>
      <trkpt lat="45.14134" lon="3.43733">
        <ele>494.088</ele>
        <time>2020-08-17T14:04:56Z</time>
      </trkpt>
      <trkpt lat="45.14134" lon="3.43726">
        <ele>496.424</ele>
        <time>2020-08-17T14:05:02Z</time>
      </trkpt>
      <trkpt lat="45.14135" lon="3.43719">
        <ele>497.16</ele>
        <time>2020-08-17T14:05:07Z</time>
      </trkpt>
      <trkpt lat="45.14136" lon="3.43697">
        <ele>496.66</ele>
        <time>2020-08-17T14:05:18Z</time>
      </trkpt>
      <trkpt lat="45.14135" lon="3.43693">
        <ele>497.249</ele>
        <time>2020-08-17T14:05:20Z</time>
      </trkpt>
      <trkpt lat="45.14135" lon="3.43688">
        <ele>497.574</ele>
        <time>2020-08-17T14:05:24Z</time>
      </trkpt>
      <trkpt lat="45.14138" lon="3.43681">
        <ele>497.331</ele>
        <time>2020-08-17T14:05:32Z</time>
      </trkpt>
      <trkpt lat="45.14138" lon="3.4368">
        <ele>497.194</ele>
        <time>2020-08-17T14:05:33Z</time>
      </trkpt>
      <trkpt lat="45.14138" lon="3.43678">
        <ele>497.131</ele>
        <time>2020-08-17T14:05:34Z</time>
      </trkpt>
      <trkpt lat="45.14137" lon="3.43673">
        <ele>496.386</ele>
        <time>2020-08-17T14:05:38Z</time>
      </trkpt>
      <trkpt lat="45.14138" lon="3.43667">
        <ele>496.459</ele>
        <time>2020-08-17T14:05:41Z</time>
      </trkpt>
      <trkpt lat="45.14141" lon="3.4366">
        <ele>496.475</ele>
        <time>2020-08-17T14:05:45Z</time>
      </trkpt>
      <trkpt lat="45.14141" lon="3.43655">
        <ele>496.399</ele>
        <time>2020-08-17T14:05:47Z</time>
      </trkpt>
      <trkpt lat="45.14142" lon="3.43648">
        <ele>496.512</ele>
        <time>2020-08-17T14:05:51Z</time>
      </trkpt>
      <trkpt lat="45.14141" lon="3.43643">
        <ele>497.177</ele>
        <time>2020-08-17T14:05:54Z</time>
      </trkpt>
      <trkpt lat="45.14132" lon="3.43635">
        <ele>498.901</ele>
        <time>2020-08-17T14:06:04Z</time>
      </trkpt>
      <trkpt lat="45.14125" lon="3.43632">
        <ele>500.395</ele>
        <time>2020-08-17T14:06:14Z</time>
      </trkpt>
      <trkpt lat="45.14123" lon="3.43631">
        <ele>500.709</ele>
        <time>2020-08-17T14:06:17Z</time>
      </trkpt>
      <trkpt lat="45.14117" lon="3.43632">
        <ele>500.992</ele>
        <time>2020-08-17T14:06:26Z</time>
      </trkpt>
      <trkpt lat="45.14115" lon="3.43635">
        <ele>501.826</ele>
        <time>2020-08-17T14:06:29Z</time>
      </trkpt>
      <trkpt lat="45.14115" lon="3.43637">
        <ele>502.239</ele>
        <time>2020-08-17T14:06:30Z</time>
      </trkpt>
      <trkpt lat="45.14114" lon="3.43638">
        <ele>502.301</ele>
        <time>2020-08-17T14:06:31Z</time>
      </trkpt>
      <trkpt lat="45.14113" lon="3.43639">
        <ele>502.442</ele>
        <time>2020-08-17T14:06:32Z</time>
      </trkpt>
      <trkpt lat="45.1411" lon="3.43641">
        <ele>502.337</ele>
        <time>2020-08-17T14:06:35Z</time>
      </trkpt>
      <trkpt lat="45.14108" lon="3.43639">
        <ele>503.12</ele>
        <time>2020-08-17T14:06:39Z</time>
      </trkpt>
      <trkpt lat="45.14107" lon="3.43639">
        <ele>503.417</ele>
        <time>2020-08-17T14:06:40Z</time>
      </trkpt>
      <trkpt lat="45.14105" lon="3.43641">
        <ele>503.88</ele>
        <time>2020-08-17T14:06:45Z</time>
      </trkpt>
      <trkpt lat="45.14069" lon="3.43674">
        <ele>503.8</ele>
        <time>2020-08-17T14:07:23Z</time>
      </trkpt>
      <trkpt lat="45.14063" lon="3.43678">
        <ele>505.029</ele>
        <time>2020-08-17T14:07:29Z</time>
      </trkpt>
      <trkpt lat="45.1406" lon="3.4368">
        <ele>505.797</ele>
        <time>2020-08-17T14:07:32Z</time>
      </trkpt>
      <trkpt lat="45.14044" lon="3.43689">
        <ele>507.553</ele>
        <time>2020-08-17T14:07:45Z</time>
      </trkpt>
      <trkpt lat="45.14041" lon="3.43693">
        <ele>507.315</ele>
        <time>2020-08-17T14:07:48Z</time>
      </trkpt>
      <trkpt lat="45.14017" lon="3.43709">
        <ele>509.708</ele>
        <time>2020-08-17T14:08:12Z</time>
      </trkpt>
      <trkpt lat="45.13996" lon="3.43725">
        <ele>511.301</ele>
        <time>2020-08-17T14:08:36Z</time>
      </trkpt>
      <trkpt lat="45.13995" lon="3.43726">
        <ele>511.859</ele>
        <time>2020-08-17T14:08:38Z</time>
      </trkpt>
      <trkpt lat="45.13991" lon="3.43728">
        <ele>511.861</ele>
        <time>2020-08-17T14:08:41Z</time>
      </trkpt>
      <trkpt lat="45.13986" lon="3.43732">
        <ele>512.103</ele>
        <time>2020-08-17T14:08:46Z</time>
      </trkpt>
      <trkpt lat="45.13976" lon="3.43742">
        <ele>514.245</ele>
        <time>2020-08-17T14:08:56Z</time>
      </trkpt>
      <trkpt lat="45.13965" lon="3.43752">
        <ele>516.439</ele>
        <time>2020-08-17T14:09:07Z</time>
      </trkpt>
      <trkpt lat="45.13959" lon="3.43757">
        <ele>517.678</ele>
        <time>2020-08-17T14:09:12Z</time>
      </trkpt>
      <trkpt lat="45.13948" lon="3.43775">
        <ele>517.366</ele>
        <time>2020-08-17T14:09:27Z</time>
      </trkpt>
      <trkpt lat="45.13945" lon="3.43779">
        <ele>518.013</ele>
        <time>2020-08-17T14:09:30Z</time>
      </trkpt>
      <trkpt lat="45.13934" lon="3.43792">
        <ele>518.905</ele>
        <time>2020-08-17T14:09:43Z</time>
      </trkpt>
      <trkpt lat="45.13931" lon="3.43791">
        <ele>519.004</ele>
        <time>2020-08-17T14:09:46Z</time>
      </trkpt>
      <trkpt lat="45.13928" lon="3.43788">
        <ele>519.2</ele>
        <time>2020-08-17T14:09:49Z</time>
      </trkpt>
      <trkpt lat="45.13926" lon="3.43785">
        <ele>521.154</ele>
        <time>2020-08-17T14:09:56Z</time>
      </trkpt>
      <trkpt lat="45.13923" lon="3.4378">
        <ele>521.097</ele>
        <time>2020-08-17T14:09:59Z</time>
      </trkpt>
      <trkpt lat="45.13917" lon="3.43773">
        <ele>522.549</ele>
        <time>2020-08-17T14:10:06Z</time>
      </trkpt>
      <trkpt lat="45.13914" lon="3.43772">
        <ele>522.543</ele>
        <time>2020-08-17T14:10:09Z</time>
      </trkpt>
      <trkpt lat="45.13914" lon="3.43773">
        <ele>522.549</ele>
        <time>2020-08-17T14:10:13Z</time>
      </trkpt>
      <trkpt lat="45.13913" lon="3.43771">
        <ele>522.395</ele>
        <time>2020-08-17T14:10:14Z</time>
      </trkpt>
      <trkpt lat="45.13911" lon="3.43769">
        <ele>522.372</ele>
        <time>2020-08-17T14:10:16Z</time>
      </trkpt>
      <trkpt lat="45.13908" lon="3.43768">
        <ele>522.685</ele>
        <time>2020-08-17T14:10:18Z</time>
      </trkpt>
      <trkpt lat="45.13896" lon="3.43757">
        <ele>522.658</ele>
        <time>2020-08-17T14:10:31Z</time>
      </trkpt>
      <trkpt lat="45.13892" lon="3.43752">
        <ele>522.947</ele>
        <time>2020-08-17T14:10:35Z</time>
      </trkpt>
      <trkpt lat="45.13875" lon="3.43739">
        <ele>524.253</ele>
        <time>2020-08-17T14:10:49Z</time>
      </trkpt>
      <trkpt lat="45.13875" lon="3.43739">
        <ele>524.253</ele>
        <time>2020-08-17T14:10:49Z</time>
      </trkpt>
      <trkpt lat="45.13875" lon="3.43739">
        <ele>524.312</ele>
        <time>2020-08-17T14:10:50Z</time>
      </trkpt>
      <trkpt lat="45.13875" lon="3.43739">
        <ele>525.239</ele>
        <time>2020-08-17T14:10:53Z</time>
      </trkpt>
      <trkpt lat="45.13875" lon="3.43739">
        <ele>525.109</ele>
        <time>2020-08-17T14:11:04Z</time>
      </trkpt>
      <trkpt lat="45.13873" lon="3.43741">
        <ele>525.248</ele>
        <time>2020-08-17T14:11:05Z</time>
      </trkpt>
      <trkpt lat="45.13872" lon="3.43741">
        <ele>525.53</ele>
        <time>2020-08-17T14:11:06Z</time>
      </trkpt>
      <trkpt lat="45.13872" lon="3.43741">
        <ele>525.445</ele>
        <time>2020-08-17T14:11:07Z</time>
      </trkpt>
      <trkpt lat="45.13872" lon="3.43741">
        <ele>525.445</ele>
        <time>2020-08-17T14:11:07Z</time>
      </trkpt>
      <trkpt lat="45.13872" lon="3.43742">
        <ele>526.051</ele>
        <time>2020-08-17T14:11:08Z</time>
      </trkpt>
      <trkpt lat="45.13873" lon="3.43742">
        <ele>526.834</ele>
        <time>2020-08-17T14:11:09Z</time>
      </trkpt>
      <trkpt lat="45.13875" lon="3.43742">
        <ele>527.487</ele>
        <time>2020-08-17T14:11:10Z</time>
      </trkpt>
      <trkpt lat="45.13875" lon="3.43741">
        <ele>528.75</ele>
        <time>2020-08-17T14:11:13Z</time>
      </trkpt>
      <trkpt lat="45.13876" lon="3.4374">
        <ele>529.298</ele>
        <time>2020-08-17T14:11:14Z</time>
      </trkpt>
      <trkpt lat="45.13876" lon="3.43741">
        <ele>529.651</ele>
        <time>2020-08-17T14:11:15Z</time>
      </trkpt>
      <trkpt lat="45.13876" lon="3.43741">
        <ele>529.656</ele>
        <time>2020-08-17T14:11:16Z</time>
      </trkpt>
      <trkpt lat="45.13876" lon="3.43741">
        <ele>530.327</ele>
        <time>2020-08-17T14:11:45Z</time>
      </trkpt>
      <trkpt lat="45.13877" lon="3.43742">
        <ele>530.971</ele>
        <time>2020-08-17T14:11:46Z</time>
      </trkpt>
      <trkpt lat="45.13876" lon="3.43742">
        <ele>530.716</ele>
        <time>2020-08-17T14:11:47Z</time>
      </trkpt>
      <trkpt lat="45.13876" lon="3.43742">
        <ele>530.686</ele>
        <time>2020-08-17T14:11:48Z</time>
      </trkpt>
      <trkpt lat="45.13876" lon="3.43742">
        <ele>530.686</ele>
        <time>2020-08-17T14:11:49Z</time>
      </trkpt>
      <trkpt lat="45.13875" lon="3.43743">
        <ele>530.925</ele>
        <time>2020-08-17T14:11:50Z</time>
      </trkpt>
      <trkpt lat="45.13875" lon="3.43743">
        <ele>530.925</ele>
        <time>2020-08-17T14:11:50Z</time>
      </trkpt>
      <trkpt lat="45.13875" lon="3.43743">
        <ele>530.919</ele>
        <time>2020-08-17T14:11:51Z</time>
      </trkpt>
      <trkpt lat="45.13875" lon="3.43743">
        <ele>531.464</ele>
        <time>2020-08-17T14:12:06Z</time>
      </trkpt>
      <trkpt lat="45.13875" lon="3.43744">
        <ele>532.104</ele>
        <time>2020-08-17T14:12:07Z</time>
      </trkpt>
      <trkpt lat="45.13875" lon="3.43744">
        <ele>532.118</ele>
        <time>2020-08-17T14:12:08Z</time>
      </trkpt>
      <trkpt lat="45.13875" lon="3.43744">
        <ele>532.116</ele>
        <time>2020-08-17T14:12:09Z</time>
      </trkpt>
      <trkpt lat="45.13875" lon="3.43743">
        <ele>532.479</ele>
        <time>2020-08-17T14:12:10Z</time>
      </trkpt>
      <trkpt lat="45.13875" lon="3.43743">
        <ele>532.479</ele>
        <time>2020-08-17T14:12:10Z</time>
      </trkpt>
      <trkpt lat="45.13875" lon="3.43743">
        <ele>532.097</ele>
        <time>2020-08-17T14:12:11Z</time>
      </trkpt>
      <trkpt lat="45.13875" lon="3.43743">
        <ele>531.979</ele>
        <time>2020-08-17T14:12:33Z</time>
      </trkpt>
      <trkpt lat="45.13874" lon="3.43742">
        <ele>531.242</ele>
        <time>2020-08-17T14:12:34Z</time>
      </trkpt>
      <trkpt lat="45.13874" lon="3.43742">
        <ele>531.242</ele>
        <time>2020-08-17T14:12:34Z</time>
      </trkpt>
      <trkpt lat="45.13874" lon="3.43742">
        <ele>531.553</ele>
        <time>2020-08-17T14:12:35Z</time>
      </trkpt>
      <trkpt lat="45.13874" lon="3.43742">
        <ele>531.073</ele>
        <time>2020-08-17T14:12:56Z</time>
      </trkpt>
      <trkpt lat="45.13875" lon="3.43742">
        <ele>531.901</ele>
        <time>2020-08-17T14:12:57Z</time>
      </trkpt>
      <trkpt lat="45.13878" lon="3.43746">
        <ele>531.532</ele>
        <time>2020-08-17T14:13:00Z</time>
      </trkpt>
      <trkpt lat="45.13885" lon="3.43753">
        <ele>529.062</ele>
        <time>2020-08-17T14:13:05Z</time>
      </trkpt>
      <trkpt lat="45.13888" lon="3.43752">
        <ele>528.08</ele>
        <time>2020-08-17T14:13:07Z</time>
      </trkpt>
      <trkpt lat="45.13892" lon="3.43749">
        <ele>527.45</ele>
        <time>2020-08-17T14:13:10Z</time>
      </trkpt>
      <trkpt lat="45.13903" lon="3.43732">
        <ele>527.075</ele>
        <time>2020-08-17T14:13:25Z</time>
      </trkpt>
      <trkpt lat="45.13864" lon="3.43754">
        <ele>531.32</ele>
        <time>2020-08-17T14:14:19Z</time>
      </trkpt>
      <trkpt lat="45.13864" lon="3.43757">
        <ele>529.904</ele>
        <time>2020-08-17T14:14:20Z</time>
      </trkpt>
      <trkpt lat="45.13873" lon="3.43785">
        <ele>530.165</ele>
        <time>2020-08-17T14:15:41Z</time>
      </trkpt>
      <trkpt lat="45.13876" lon="3.43782">
        <ele>530.061</ele>
        <time>2020-08-17T14:17:09Z</time>
      </trkpt>
      <trkpt lat="45.13882" lon="3.43767">
        <ele>528.937</ele>
        <time>2020-08-17T14:17:10Z</time>
      </trkpt>
      <trkpt lat="45.13883" lon="3.43762">
        <ele>526.882</ele>
        <time>2020-08-17T14:17:11Z</time>
      </trkpt>
      <trkpt lat="45.13883" lon="3.43762">
        <ele>526.882</ele>
        <time>2020-08-17T14:17:11Z</time>
      </trkpt>
      <trkpt lat="45.13883" lon="3.43761">
        <ele>526.251</ele>
        <time>2020-08-17T14:17:12Z</time>
      </trkpt>
      <trkpt lat="45.13883" lon="3.43757">
        <ele>530.484</ele>
        <time>2020-08-17T14:17:21Z</time>
      </trkpt>
      <trkpt lat="45.1388" lon="3.43752">
        <ele>527.884</ele>
        <time>2020-08-17T14:17:26Z</time>
      </trkpt>
      <trkpt lat="45.13879" lon="3.43752">
        <ele>527.695</ele>
        <time>2020-08-17T14:17:28Z</time>
      </trkpt>
      <trkpt lat="45.13879" lon="3.43752">
        <ele>526.564</ele>
        <time>2020-08-17T14:17:29Z</time>
      </trkpt>
      <trkpt lat="45.13879" lon="3.43752">
        <ele>526.339</ele>
        <time>2020-08-17T14:17:30Z</time>
      </trkpt>
      <trkpt lat="45.13879" lon="3.43752">
        <ele>525.265</ele>
        <time>2020-08-17T14:17:32Z</time>
      </trkpt>
      <trkpt lat="45.1388" lon="3.43753">
        <ele>525.043</ele>
        <time>2020-08-17T14:17:33Z</time>
      </trkpt>
      <trkpt lat="45.13878" lon="3.43752">
        <ele>525.197</ele>
        <time>2020-08-17T14:17:37Z</time>
      </trkpt>
      <trkpt lat="45.13876" lon="3.4375">
        <ele>524.876</ele>
        <time>2020-08-17T14:17:40Z</time>
      </trkpt>
      <trkpt lat="45.13876" lon="3.4375">
        <ele>524.729</ele>
        <time>2020-08-17T14:17:41Z</time>
      </trkpt>
      <trkpt lat="45.13874" lon="3.43747">
        <ele>524.549</ele>
        <time>2020-08-17T14:17:43Z</time>
      </trkpt>
      <trkpt lat="45.13873" lon="3.43745">
        <ele>523.143</ele>
        <time>2020-08-17T14:17:45Z</time>
      </trkpt>
      <trkpt lat="45.13873" lon="3.43745">
        <ele>522.58</ele>
        <time>2020-08-17T14:17:47Z</time>
      </trkpt>
      <trkpt lat="45.13873" lon="3.43745">
        <ele>523.156</ele>
        <time>2020-08-17T14:17:59Z</time>
      </trkpt>
      <trkpt lat="45.13873" lon="3.43749">
        <ele>522.874</ele>
        <time>2020-08-17T14:18:00Z</time>
      </trkpt>
      <trkpt lat="45.13871" lon="3.43747">
        <ele>525.343</ele>
        <time>2020-08-17T14:18:05Z</time>
      </trkpt>
      <trkpt lat="45.13871" lon="3.43747">
        <ele>525.351</ele>
        <time>2020-08-17T14:18:06Z</time>
      </trkpt>
      <trkpt lat="45.13871" lon="3.43747">
        <ele>525.738</ele>
        <time>2020-08-17T14:18:09Z</time>
      </trkpt>
      <trkpt lat="45.13871" lon="3.43746">
        <ele>525.976</ele>
        <time>2020-08-17T14:18:10Z</time>
      </trkpt>
      <trkpt lat="45.1387" lon="3.4375">
        <ele>525.441</ele>
        <time>2020-08-17T14:18:14Z</time>
      </trkpt>
      <trkpt lat="45.1387" lon="3.43752">
        <ele>525.235</ele>
        <time>2020-08-17T14:18:17Z</time>
      </trkpt>
      <trkpt lat="45.1387" lon="3.43752">
        <ele>525.071</ele>
        <time>2020-08-17T14:18:18Z</time>
      </trkpt>
      <trkpt lat="45.1387" lon="3.43752">
        <ele>524.786</ele>
        <time>2020-08-17T14:18:20Z</time>
      </trkpt>
      <trkpt lat="45.13869" lon="3.43753">
        <ele>524.671</ele>
        <time>2020-08-17T14:18:21Z</time>
      </trkpt>
      <trkpt lat="45.13869" lon="3.43753">
        <ele>524.483</ele>
        <time>2020-08-17T14:18:22Z</time>
      </trkpt>
      <trkpt lat="45.13869" lon="3.43753">
        <ele>525.024</ele>
        <time>2020-08-17T14:18:23Z</time>
      </trkpt>
      <trkpt lat="45.13869" lon="3.43753">
        <ele>524.913</ele>
        <time>2020-08-17T14:18:34Z</time>
      </trkpt>
      <trkpt lat="45.13871" lon="3.4375">
        <ele>524.33</ele>
        <time>2020-08-17T14:18:35Z</time>
      </trkpt>
      <trkpt lat="45.13872" lon="3.43749">
        <ele>524.117</ele>
        <time>2020-08-17T14:18:36Z</time>
      </trkpt>
      <trkpt lat="45.13872" lon="3.43744">
        <ele>522.549</ele>
        <time>2020-08-17T14:18:39Z</time>
      </trkpt>
      <trkpt lat="45.13874" lon="3.43734">
        <ele>524.126</ele>
        <time>2020-08-17T14:18:45Z</time>
      </trkpt>
      <trkpt lat="45.13873" lon="3.4373">
        <ele>524.449</ele>
        <time>2020-08-17T14:18:48Z</time>
      </trkpt>
      <trkpt lat="45.1387" lon="3.43719">
        <ele>525.221</ele>
        <time>2020-08-17T14:18:54Z</time>
      </trkpt>
      <trkpt lat="45.1387" lon="3.43719">
        <ele>525.742</ele>
        <time>2020-08-17T14:18:56Z</time>
      </trkpt>
      <trkpt lat="45.1387" lon="3.4372">
        <ele>525.857</ele>
        <time>2020-08-17T14:18:57Z</time>
      </trkpt>
      <trkpt lat="45.13871" lon="3.43719">
        <ele>526.06</ele>
        <time>2020-08-17T14:18:58Z</time>
      </trkpt>
      <trkpt lat="45.13871" lon="3.43704">
        <ele>525.77</ele>
        <time>2020-08-17T14:19:07Z</time>
      </trkpt>
      <trkpt lat="45.1387" lon="3.437">
        <ele>525.835</ele>
        <time>2020-08-17T14:19:10Z</time>
      </trkpt>
      <trkpt lat="45.13869" lon="3.43697">
        <ele>525.386</ele>
        <time>2020-08-17T14:19:12Z</time>
      </trkpt>
      <trkpt lat="45.13868" lon="3.43693">
        <ele>525.86</ele>
        <time>2020-08-17T14:19:17Z</time>
      </trkpt>
      <trkpt lat="45.13868" lon="3.43693">
        <ele>525.86</ele>
        <time>2020-08-17T14:19:17Z</time>
      </trkpt>
      <trkpt lat="45.13868" lon="3.43692">
        <ele>526.09</ele>
        <time>2020-08-17T14:19:18Z</time>
      </trkpt>
      <trkpt lat="45.13867" lon="3.43689">
        <ele>526.644</ele>
        <time>2020-08-17T14:19:21Z</time>
      </trkpt>
      <trkpt lat="45.13867" lon="3.43687">
        <ele>526.849</ele>
        <time>2020-08-17T14:19:22Z</time>
      </trkpt>
      <trkpt lat="45.13866" lon="3.43684">
        <ele>526.388</ele>
        <time>2020-08-17T14:19:25Z</time>
      </trkpt>
      <trkpt lat="45.13866" lon="3.43683">
        <ele>526.935</ele>
        <time>2020-08-17T14:19:26Z</time>
      </trkpt>
      <trkpt lat="45.13865" lon="3.43679">
        <ele>526.977</ele>
        <time>2020-08-17T14:19:28Z</time>
      </trkpt>
      <trkpt lat="45.13863" lon="3.43674">
        <ele>527.074</ele>
        <time>2020-08-17T14:19:31Z</time>
      </trkpt>
      <trkpt lat="45.13849" lon="3.43653">
        <ele>529.592</ele>
        <time>2020-08-17T14:19:46Z</time>
      </trkpt>
      <trkpt lat="45.13849" lon="3.43652">
        <ele>530.132</ele>
        <time>2020-08-17T14:19:47Z</time>
      </trkpt>
      <trkpt lat="45.13847" lon="3.43649">
        <ele>529.433</ele>
        <time>2020-08-17T14:19:53Z</time>
      </trkpt>
      <trkpt lat="45.13841" lon="3.43638">
        <ele>530.096</ele>
        <time>2020-08-17T14:20:06Z</time>
      </trkpt>
      <trkpt lat="45.1384" lon="3.43637">
        <ele>530.049</ele>
        <time>2020-08-17T14:20:07Z</time>
      </trkpt>
      <trkpt lat="45.13833" lon="3.43616">
        <ele>531.452</ele>
        <time>2020-08-17T14:20:23Z</time>
      </trkpt>
      <trkpt lat="45.13832" lon="3.43614">
        <ele>531.781</ele>
        <time>2020-08-17T14:20:26Z</time>
      </trkpt>
      <trkpt lat="45.13832" lon="3.43614">
        <ele>531.781</ele>
        <time>2020-08-17T14:20:26Z</time>
      </trkpt>
      <trkpt lat="45.13832" lon="3.43613">
        <ele>531.974</ele>
        <time>2020-08-17T14:20:27Z</time>
      </trkpt>
      <trkpt lat="45.13832" lon="3.43609">
        <ele>531.767</ele>
        <time>2020-08-17T14:20:30Z</time>
      </trkpt>
      <trkpt lat="45.13832" lon="3.43603">
        <ele>531.904</ele>
        <time>2020-08-17T14:20:35Z</time>
      </trkpt>
      <trkpt lat="45.13835" lon="3.43597">
        <ele>532.42</ele>
        <time>2020-08-17T14:20:41Z</time>
      </trkpt>
      <trkpt lat="45.13849" lon="3.43555">
        <ele>534.536</ele>
        <time>2020-08-17T14:21:07Z</time>
      </trkpt>
      <trkpt lat="45.13866" lon="3.43513">
        <ele>536.408</ele>
        <time>2020-08-17T14:21:33Z</time>
      </trkpt>
      <trkpt lat="45.1387" lon="3.43508">
        <ele>536.964</ele>
        <time>2020-08-17T14:21:37Z</time>
      </trkpt>
      <trkpt lat="45.13872" lon="3.43504">
        <ele>537.568</ele>
        <time>2020-08-17T14:21:40Z</time>
      </trkpt>
      <trkpt lat="45.13886" lon="3.43479">
        <ele>537.636</ele>
        <time>2020-08-17T14:21:57Z</time>
      </trkpt>
      <trkpt lat="45.13887" lon="3.43475">
        <ele>537.391</ele>
        <time>2020-08-17T14:21:59Z</time>
      </trkpt>
      <trkpt lat="45.13889" lon="3.43472">
        <ele>537.498</ele>
        <time>2020-08-17T14:22:01Z</time>
      </trkpt>
      <trkpt lat="45.13908" lon="3.43443">
        <ele>537.065</ele>
        <time>2020-08-17T14:22:26Z</time>
      </trkpt>
      <trkpt lat="45.13916" lon="3.43433">
        <ele>536.849</ele>
        <time>2020-08-17T14:22:34Z</time>
      </trkpt>
      <trkpt lat="45.13942" lon="3.43394">
        <ele>534.899</ele>
        <time>2020-08-17T14:23:00Z</time>
      </trkpt>
      <trkpt lat="45.1395" lon="3.43383">
        <ele>534.393</ele>
        <time>2020-08-17T14:23:11Z</time>
      </trkpt>
      <trkpt lat="45.13954" lon="3.43379">
        <ele>534.845</ele>
        <time>2020-08-17T14:23:14Z</time>
      </trkpt>
      <trkpt lat="45.13966" lon="3.43361">
        <ele>535.491</ele>
        <time>2020-08-17T14:23:28Z</time>
      </trkpt>
      <trkpt lat="45.13969" lon="3.43351">
        <ele>535.541</ele>
        <time>2020-08-17T14:23:34Z</time>
      </trkpt>
      <trkpt lat="45.13977" lon="3.43318">
        <ele>536.294</ele>
        <time>2020-08-17T14:23:52Z</time>
      </trkpt>
      <trkpt lat="45.13979" lon="3.43305">
        <ele>535.79</ele>
        <time>2020-08-17T14:23:59Z</time>
      </trkpt>
      <trkpt lat="45.1398" lon="3.43296">
        <ele>536.379</ele>
        <time>2020-08-17T14:24:03Z</time>
      </trkpt>
      <trkpt lat="45.13979" lon="3.43289">
        <ele>536.943</ele>
        <time>2020-08-17T14:24:06Z</time>
      </trkpt>
      <trkpt lat="45.1398" lon="3.43284">
        <ele>537.104</ele>
        <time>2020-08-17T14:24:09Z</time>
      </trkpt>
      <trkpt lat="45.13981" lon="3.43275">
        <ele>537.423</ele>
        <time>2020-08-17T14:24:14Z</time>
      </trkpt>
      <trkpt lat="45.13983" lon="3.4327">
        <ele>537.252</ele>
        <time>2020-08-17T14:24:17Z</time>
      </trkpt>
      <trkpt lat="45.13988" lon="3.4325">
        <ele>539.165</ele>
        <time>2020-08-17T14:24:28Z</time>
      </trkpt>
      <trkpt lat="45.13995" lon="3.43235">
        <ele>538.895</ele>
        <time>2020-08-17T14:24:37Z</time>
      </trkpt>
      <trkpt lat="45.14001" lon="3.43221">
        <ele>538.66</ele>
        <time>2020-08-17T14:24:46Z</time>
      </trkpt>
      <trkpt lat="45.14002" lon="3.43213">
        <ele>539.096</ele>
        <time>2020-08-17T14:24:50Z</time>
      </trkpt>
      <trkpt lat="45.14006" lon="3.43206">
        <ele>538.573</ele>
        <time>2020-08-17T14:24:53Z</time>
      </trkpt>
      <trkpt lat="45.1401" lon="3.432">
        <ele>538.17</ele>
        <time>2020-08-17T14:24:56Z</time>
      </trkpt>
      <trkpt lat="45.14011" lon="3.432">
        <ele>538.738</ele>
        <time>2020-08-17T14:24:57Z</time>
      </trkpt>
      <trkpt lat="45.14015" lon="3.43194">
        <ele>537.95</ele>
        <time>2020-08-17T14:25:03Z</time>
      </trkpt>
      <trkpt lat="45.14018" lon="3.43186">
        <ele>538.002</ele>
        <time>2020-08-17T14:25:10Z</time>
      </trkpt>
      <trkpt lat="45.14018" lon="3.43186">
        <ele>538.002</ele>
        <time>2020-08-17T14:25:10Z</time>
      </trkpt>
      <trkpt lat="45.14018" lon="3.43186">
        <ele>538.236</ele>
        <time>2020-08-17T14:25:11Z</time>
      </trkpt>
      <trkpt lat="45.14019" lon="3.4318">
        <ele>537.433</ele>
        <time>2020-08-17T14:25:14Z</time>
      </trkpt>
      <trkpt lat="45.14024" lon="3.43169">
        <ele>538.131</ele>
        <time>2020-08-17T14:25:21Z</time>
      </trkpt>
      <trkpt lat="45.14031" lon="3.43154">
        <ele>538.796</ele>
        <time>2020-08-17T14:25:31Z</time>
      </trkpt>
      <trkpt lat="45.14034" lon="3.43149">
        <ele>539.151</ele>
        <time>2020-08-17T14:25:35Z</time>
      </trkpt>
      <trkpt lat="45.14036" lon="3.43144">
        <ele>538.811</ele>
        <time>2020-08-17T14:25:38Z</time>
      </trkpt>
      <trkpt lat="45.14038" lon="3.43139">
        <ele>538.871</ele>
        <time>2020-08-17T14:25:41Z</time>
      </trkpt>
      <trkpt lat="45.14039" lon="3.43135">
        <ele>538.871</ele>
        <time>2020-08-17T14:25:44Z</time>
      </trkpt>
      <trkpt lat="45.14044" lon="3.43126">
        <ele>539.569</ele>
        <time>2020-08-17T14:25:52Z</time>
      </trkpt>
      <trkpt lat="45.14044" lon="3.43125">
        <ele>539.897</ele>
        <time>2020-08-17T14:25:53Z</time>
      </trkpt>
      <trkpt lat="45.14046" lon="3.43106">
        <ele>539.428</ele>
        <time>2020-08-17T14:26:06Z</time>
      </trkpt>
      <trkpt lat="45.14043" lon="3.43064">
        <ele>540.993</ele>
        <time>2020-08-17T14:26:30Z</time>
      </trkpt>
      <trkpt lat="45.14039" lon="3.43049">
        <ele>542.009</ele>
        <time>2020-08-17T14:26:42Z</time>
      </trkpt>
      <trkpt lat="45.14038" lon="3.43047">
        <ele>542.464</ele>
        <time>2020-08-17T14:26:44Z</time>
      </trkpt>
      <trkpt lat="45.14038" lon="3.43046">
        <ele>542.225</ele>
        <time>2020-08-17T14:26:45Z</time>
      </trkpt>
      <trkpt lat="45.14037" lon="3.43044">
        <ele>542.361</ele>
        <time>2020-08-17T14:26:46Z</time>
      </trkpt>
      <trkpt lat="45.14036" lon="3.43038">
        <ele>542.39</ele>
        <time>2020-08-17T14:26:49Z</time>
      </trkpt>
      <trkpt lat="45.14035" lon="3.43033">
        <ele>542.528</ele>
        <time>2020-08-17T14:26:52Z</time>
      </trkpt>
      <trkpt lat="45.14032" lon="3.43027">
        <ele>542.478</ele>
        <time>2020-08-17T14:26:55Z</time>
      </trkpt>
      <trkpt lat="45.14031" lon="3.43024">
        <ele>542.807</ele>
        <time>2020-08-17T14:26:57Z</time>
      </trkpt>
      <trkpt lat="45.1403" lon="3.43021">
        <ele>542.525</ele>
        <time>2020-08-17T14:27:00Z</time>
      </trkpt>
      <trkpt lat="45.1403" lon="3.43021">
        <ele>542.612</ele>
        <time>2020-08-17T14:27:01Z</time>
      </trkpt>
      <trkpt lat="45.1403" lon="3.43021">
        <ele>542.612</ele>
        <time>2020-08-17T14:27:01Z</time>
      </trkpt>
      <trkpt lat="45.1403" lon="3.4302">
        <ele>542.566</ele>
        <time>2020-08-17T14:27:02Z</time>
      </trkpt>
      <trkpt lat="45.1403" lon="3.43016">
        <ele>541.935</ele>
        <time>2020-08-17T14:27:06Z</time>
      </trkpt>
      <trkpt lat="45.14033" lon="3.4301">
        <ele>541.233</ele>
        <time>2020-08-17T14:27:11Z</time>
      </trkpt>
      <trkpt lat="45.14035" lon="3.43008">
        <ele>540.534</ele>
        <time>2020-08-17T14:27:14Z</time>
      </trkpt>
      <trkpt lat="45.1405" lon="3.42995">
        <ele>540.606</ele>
        <time>2020-08-17T14:27:27Z</time>
      </trkpt>
      <trkpt lat="45.14056" lon="3.42994">
        <ele>540.644</ele>
        <time>2020-08-17T14:27:32Z</time>
      </trkpt>
      <trkpt lat="45.14115" lon="3.42979">
        <ele>542.411</ele>
        <time>2020-08-17T14:28:18Z</time>
      </trkpt>
      <trkpt lat="45.14144" lon="3.42968">
        <ele>542.212</ele>
        <time>2020-08-17T14:28:41Z</time>
      </trkpt>
      <trkpt lat="45.14145" lon="3.42966">
        <ele>542.322</ele>
        <time>2020-08-17T14:28:45Z</time>
      </trkpt>
      <trkpt lat="45.14146" lon="3.42965">
        <ele>542.239</ele>
        <time>2020-08-17T14:28:46Z</time>
      </trkpt>
      <trkpt lat="45.14151" lon="3.42958">
        <ele>542.903</ele>
        <time>2020-08-17T14:28:54Z</time>
      </trkpt>
      <trkpt lat="45.14164" lon="3.42955">
        <ele>543.951</ele>
        <time>2020-08-17T14:29:05Z</time>
      </trkpt>
      <trkpt lat="45.14178" lon="3.42945">
        <ele>544.937</ele>
        <time>2020-08-17T14:29:17Z</time>
      </trkpt>
      <trkpt lat="45.14185" lon="3.42939">
        <ele>543.917</ele>
        <time>2020-08-17T14:29:23Z</time>
      </trkpt>
      <trkpt lat="45.1419" lon="3.42931">
        <ele>543.425</ele>
        <time>2020-08-17T14:29:30Z</time>
      </trkpt>
      <trkpt lat="45.14191" lon="3.42931">
        <ele>543.187</ele>
        <time>2020-08-17T14:29:31Z</time>
      </trkpt>
      <trkpt lat="45.14198" lon="3.42929">
        <ele>543.558</ele>
        <time>2020-08-17T14:29:36Z</time>
      </trkpt>
      <trkpt lat="45.14215" lon="3.4292">
        <ele>543.825</ele>
        <time>2020-08-17T14:29:50Z</time>
      </trkpt>
      <trkpt lat="45.14223" lon="3.42913">
        <ele>543.98</ele>
        <time>2020-08-17T14:30:00Z</time>
      </trkpt>
      <trkpt lat="45.14233" lon="3.42911">
        <ele>544.255</ele>
        <time>2020-08-17T14:30:08Z</time>
      </trkpt>
      <trkpt lat="45.14233" lon="3.42906">
        <ele>544.182</ele>
        <time>2020-08-17T14:30:13Z</time>
      </trkpt>
      <trkpt lat="45.14235" lon="3.42902">
        <ele>544.269</ele>
        <time>2020-08-17T14:30:16Z</time>
      </trkpt>
      <trkpt lat="45.14242" lon="3.42893">
        <ele>545.358</ele>
        <time>2020-08-17T14:30:23Z</time>
      </trkpt>
      <trkpt lat="45.14244" lon="3.4289">
        <ele>545.289</ele>
        <time>2020-08-17T14:30:26Z</time>
      </trkpt>
      <trkpt lat="45.14255" lon="3.42875">
        <ele>546.241</ele>
        <time>2020-08-17T14:30:38Z</time>
      </trkpt>
      <trkpt lat="45.14257" lon="3.42871">
        <ele>546.722</ele>
        <time>2020-08-17T14:30:41Z</time>
      </trkpt>
      <trkpt lat="45.14271" lon="3.42839">
        <ele>546.377</ele>
        <time>2020-08-17T14:31:01Z</time>
      </trkpt>
      <trkpt lat="45.14273" lon="3.42836">
        <ele>546.748</ele>
        <time>2020-08-17T14:31:03Z</time>
      </trkpt>
      <trkpt lat="45.14285" lon="3.42813">
        <ele>548.232</ele>
        <time>2020-08-17T14:31:18Z</time>
      </trkpt>
      <trkpt lat="45.14286" lon="3.42808">
        <ele>547.815</ele>
        <time>2020-08-17T14:31:21Z</time>
      </trkpt>
      <trkpt lat="45.14291" lon="3.42799">
        <ele>549.423</ele>
        <time>2020-08-17T14:31:28Z</time>
      </trkpt>
      <trkpt lat="45.14292" lon="3.42794">
        <ele>549.75</ele>
        <time>2020-08-17T14:31:31Z</time>
      </trkpt>
      <trkpt lat="45.14298" lon="3.42789">
        <ele>549.514</ele>
        <time>2020-08-17T14:31:35Z</time>
      </trkpt>
      <trkpt lat="45.14303" lon="3.42785">
        <ele>549.311</ele>
        <time>2020-08-17T14:31:39Z</time>
      </trkpt>
      <trkpt lat="45.14313" lon="3.42763">
        <ele>549.15</ele>
        <time>2020-08-17T14:31:57Z</time>
      </trkpt>
      <trkpt lat="45.14313" lon="3.42758">
        <ele>549.282</ele>
        <time>2020-08-17T14:32:00Z</time>
      </trkpt>
      <trkpt lat="45.14313" lon="3.42757">
        <ele>549.499</ele>
        <time>2020-08-17T14:32:01Z</time>
      </trkpt>
      <trkpt lat="45.14314" lon="3.42752">
        <ele>549.791</ele>
        <time>2020-08-17T14:32:04Z</time>
      </trkpt>
      <trkpt lat="45.14317" lon="3.42749">
        <ele>549.366</ele>
        <time>2020-08-17T14:32:07Z</time>
      </trkpt>
      <trkpt lat="45.14323" lon="3.42739">
        <ele>549.097</ele>
        <time>2020-08-17T14:32:15Z</time>
      </trkpt>
      <trkpt lat="45.14328" lon="3.42727">
        <ele>549.111</ele>
        <time>2020-08-17T14:32:23Z</time>
      </trkpt>
      <trkpt lat="45.1433" lon="3.4272">
        <ele>548.519</ele>
        <time>2020-08-17T14:32:27Z</time>
      </trkpt>
      <trkpt lat="45.1433" lon="3.42715">
        <ele>548.288</ele>
        <time>2020-08-17T14:32:29Z</time>
      </trkpt>
      <trkpt lat="45.14329" lon="3.4271">
        <ele>548.287</ele>
        <time>2020-08-17T14:32:31Z</time>
      </trkpt>
      <trkpt lat="45.14328" lon="3.42698">
        <ele>548.633</ele>
        <time>2020-08-17T14:32:38Z</time>
      </trkpt>
      <trkpt lat="45.14328" lon="3.42696">
        <ele>548.632</ele>
        <time>2020-08-17T14:32:39Z</time>
      </trkpt>
      <trkpt lat="45.14328" lon="3.42692">
        <ele>548.483</ele>
        <time>2020-08-17T14:32:41Z</time>
      </trkpt>
      <trkpt lat="45.14327" lon="3.42669">
        <ele>550.137</ele>
        <time>2020-08-17T14:32:49Z</time>
      </trkpt>
      <trkpt lat="45.14326" lon="3.42665">
        <ele>549.966</ele>
        <time>2020-08-17T14:32:51Z</time>
      </trkpt>
      <trkpt lat="45.14325" lon="3.42652">
        <ele>550.399</ele>
        <time>2020-08-17T14:32:57Z</time>
      </trkpt>
      <trkpt lat="45.14324" lon="3.42649">
        <ele>550.877</ele>
        <time>2020-08-17T14:32:58Z</time>
      </trkpt>
      <trkpt lat="45.14325" lon="3.42644">
        <ele>551.051</ele>
        <time>2020-08-17T14:33:00Z</time>
      </trkpt>
      <trkpt lat="45.14326" lon="3.42641">
        <ele>551.639</ele>
        <time>2020-08-17T14:33:02Z</time>
      </trkpt>
      <trkpt lat="45.14328" lon="3.4264">
        <ele>551.79</ele>
        <time>2020-08-17T14:33:03Z</time>
      </trkpt>
      <trkpt lat="45.14329" lon="3.42638">
        <ele>552.206</ele>
        <time>2020-08-17T14:33:04Z</time>
      </trkpt>
      <trkpt lat="45.14333" lon="3.42635">
        <ele>552.415</ele>
        <time>2020-08-17T14:33:07Z</time>
      </trkpt>
      <trkpt lat="45.14334" lon="3.42634">
        <ele>553.148</ele>
        <time>2020-08-17T14:33:08Z</time>
      </trkpt>
      <trkpt lat="45.14335" lon="3.42633">
        <ele>553.262</ele>
        <time>2020-08-17T14:33:09Z</time>
      </trkpt>
      <trkpt lat="45.1434" lon="3.42631">
        <ele>554.106</ele>
        <time>2020-08-17T14:33:13Z</time>
      </trkpt>
      <trkpt lat="45.14346" lon="3.4263">
        <ele>554.691</ele>
        <time>2020-08-17T14:33:17Z</time>
      </trkpt>
      <trkpt lat="45.14348" lon="3.42629">
        <ele>554.707</ele>
        <time>2020-08-17T14:33:18Z</time>
      </trkpt>
      <trkpt lat="45.1435" lon="3.42627">
        <ele>555.353</ele>
        <time>2020-08-17T14:33:20Z</time>
      </trkpt>
      <trkpt lat="45.1435" lon="3.42627">
        <ele>555.235</ele>
        <time>2020-08-17T14:33:21Z</time>
      </trkpt>
      <trkpt lat="45.14352" lon="3.42626">
        <ele>555.668</ele>
        <time>2020-08-17T14:33:23Z</time>
      </trkpt>
      <trkpt lat="45.14355" lon="3.42626">
        <ele>556.474</ele>
        <time>2020-08-17T14:33:26Z</time>
      </trkpt>
      <trkpt lat="45.14358" lon="3.42626">
        <ele>556.677</ele>
        <time>2020-08-17T14:33:28Z</time>
      </trkpt>
      <trkpt lat="45.14363" lon="3.42625">
        <ele>557.352</ele>
        <time>2020-08-17T14:33:32Z</time>
      </trkpt>
      <trkpt lat="45.14369" lon="3.42624">
        <ele>557.584</ele>
        <time>2020-08-17T14:33:36Z</time>
      </trkpt>
      <trkpt lat="45.14384" lon="3.42623">
        <ele>559.346</ele>
        <time>2020-08-17T14:33:48Z</time>
      </trkpt>
      <trkpt lat="45.14386" lon="3.42622">
        <ele>560.025</ele>
        <time>2020-08-17T14:33:52Z</time>
      </trkpt>
      <trkpt lat="45.14387" lon="3.42621">
        <ele>559.765</ele>
        <time>2020-08-17T14:33:54Z</time>
      </trkpt>
      <trkpt lat="45.14411" lon="3.42617">
        <ele>561.656</ele>
        <time>2020-08-17T14:34:12Z</time>
      </trkpt>
      <trkpt lat="45.14428" lon="3.42608">
        <ele>562.097</ele>
        <time>2020-08-17T14:34:26Z</time>
      </trkpt>
      <trkpt lat="45.14436" lon="3.42592">
        <ele>562.739</ele>
        <time>2020-08-17T14:34:40Z</time>
      </trkpt>
      <trkpt lat="45.14437" lon="3.42589">
        <ele>563.176</ele>
        <time>2020-08-17T14:34:43Z</time>
      </trkpt>
      <trkpt lat="45.14438" lon="3.42584">
        <ele>563.713</ele>
        <time>2020-08-17T14:34:46Z</time>
      </trkpt>
      <trkpt lat="45.14438" lon="3.42582">
        <ele>563.678</ele>
        <time>2020-08-17T14:34:48Z</time>
      </trkpt>
      <trkpt lat="45.14439" lon="3.42578">
        <ele>563.644</ele>
        <time>2020-08-17T14:34:51Z</time>
      </trkpt>
      <trkpt lat="45.14437" lon="3.4257">
        <ele>563.744</ele>
        <time>2020-08-17T14:34:56Z</time>
      </trkpt>
      <trkpt lat="45.14434" lon="3.42558">
        <ele>564.935</ele>
        <time>2020-08-17T14:35:03Z</time>
      </trkpt>
      <trkpt lat="45.1443" lon="3.42533">
        <ele>566.065</ele>
        <time>2020-08-17T14:35:16Z</time>
      </trkpt>
      <trkpt lat="45.1443" lon="3.42529">
        <ele>566.024</ele>
        <time>2020-08-17T14:35:19Z</time>
      </trkpt>
      <trkpt lat="45.1443" lon="3.42525">
        <ele>566.136</ele>
        <time>2020-08-17T14:35:22Z</time>
      </trkpt>
      <trkpt lat="45.1443" lon="3.4252">
        <ele>566.265</ele>
        <time>2020-08-17T14:35:25Z</time>
      </trkpt>
      <trkpt lat="45.14431" lon="3.42492">
        <ele>568.292</ele>
        <time>2020-08-17T14:35:43Z</time>
      </trkpt>
      <trkpt lat="45.14432" lon="3.42491">
        <ele>568.432</ele>
        <time>2020-08-17T14:35:44Z</time>
      </trkpt>
      <trkpt lat="45.14435" lon="3.42478">
        <ele>568.447</ele>
        <time>2020-08-17T14:35:52Z</time>
      </trkpt>
      <trkpt lat="45.14436" lon="3.42473">
        <ele>569.061</ele>
        <time>2020-08-17T14:35:55Z</time>
      </trkpt>
      <trkpt lat="45.14437" lon="3.42468">
        <ele>569.957</ele>
        <time>2020-08-17T14:35:58Z</time>
      </trkpt>
      <trkpt lat="45.14441" lon="3.42461">
        <ele>570.153</ele>
        <time>2020-08-17T14:36:03Z</time>
      </trkpt>
      <trkpt lat="45.14444" lon="3.42457">
        <ele>569.56</ele>
        <time>2020-08-17T14:36:06Z</time>
      </trkpt>
      <trkpt lat="45.14454" lon="3.42442">
        <ele>571.716</ele>
        <time>2020-08-17T14:36:18Z</time>
      </trkpt>
      <trkpt lat="45.14458" lon="3.42437">
        <ele>572.318</ele>
        <time>2020-08-17T14:36:23Z</time>
      </trkpt>
      <trkpt lat="45.14458" lon="3.42437">
        <ele>572.685</ele>
        <time>2020-08-17T14:36:24Z</time>
      </trkpt>
      <trkpt lat="45.14463" lon="3.42432">
        <ele>572.186</ele>
        <time>2020-08-17T14:36:29Z</time>
      </trkpt>
      <trkpt lat="45.14466" lon="3.4243">
        <ele>572.768</ele>
        <time>2020-08-17T14:36:32Z</time>
      </trkpt>
      <trkpt lat="45.14489" lon="3.42411">
        <ele>574.555</ele>
        <time>2020-08-17T14:36:51Z</time>
      </trkpt>
      <trkpt lat="45.14492" lon="3.42392">
        <ele>574.263</ele>
        <time>2020-08-17T14:37:03Z</time>
      </trkpt>
      <trkpt lat="45.1449" lon="3.42387">
        <ele>573.982</ele>
        <time>2020-08-17T14:37:07Z</time>
      </trkpt>
      <trkpt lat="45.14485" lon="3.42375">
        <ele>573.815</ele>
        <time>2020-08-17T14:37:17Z</time>
      </trkpt>
      <trkpt lat="45.14486" lon="3.42372">
        <ele>574.136</ele>
        <time>2020-08-17T14:37:21Z</time>
      </trkpt>
      <trkpt lat="45.14486" lon="3.42372">
        <ele>574.084</ele>
        <time>2020-08-17T14:37:22Z</time>
      </trkpt>
      <trkpt lat="45.14486" lon="3.42371">
        <ele>574.587</ele>
        <time>2020-08-17T14:37:23Z</time>
      </trkpt>
      <trkpt lat="45.14484" lon="3.42358">
        <ele>575.454</ele>
        <time>2020-08-17T14:37:33Z</time>
      </trkpt>
      <trkpt lat="45.14484" lon="3.42358">
        <ele>575.454</ele>
        <time>2020-08-17T14:37:33Z</time>
      </trkpt>
      <trkpt lat="45.14484" lon="3.42358">
        <ele>575.623</ele>
        <time>2020-08-17T14:37:34Z</time>
      </trkpt>
      <trkpt lat="45.14484" lon="3.42357">
        <ele>576.003</ele>
        <time>2020-08-17T14:37:35Z</time>
      </trkpt>
      <trkpt lat="45.14484" lon="3.42356">
        <ele>576.095</ele>
        <time>2020-08-17T14:37:36Z</time>
      </trkpt>
      <trkpt lat="45.14484" lon="3.42355">
        <ele>576.116</ele>
        <time>2020-08-17T14:37:37Z</time>
      </trkpt>
      <trkpt lat="45.14479" lon="3.42331">
        <ele>574.882</ele>
        <time>2020-08-17T14:37:53Z</time>
      </trkpt>
      <trkpt lat="45.14476" lon="3.42326">
        <ele>574.766</ele>
        <time>2020-08-17T14:37:57Z</time>
      </trkpt>
      <trkpt lat="45.1447" lon="3.42307">
        <ele>574.972</ele>
        <time>2020-08-17T14:38:08Z</time>
      </trkpt>
      <trkpt lat="45.14458" lon="3.42289">
        <ele>574.463</ele>
        <time>2020-08-17T14:38:23Z</time>
      </trkpt>
      <trkpt lat="45.14451" lon="3.4228">
        <ele>575.332</ele>
        <time>2020-08-17T14:38:31Z</time>
      </trkpt>
      <trkpt lat="45.14442" lon="3.42275">
        <ele>575.568</ele>
        <time>2020-08-17T14:38:38Z</time>
      </trkpt>
      <trkpt lat="45.14428" lon="3.42264">
        <ele>575.071</ele>
        <time>2020-08-17T14:38:52Z</time>
      </trkpt>
      <trkpt lat="45.14427" lon="3.42263">
        <ele>574.932</ele>
        <time>2020-08-17T14:38:53Z</time>
      </trkpt>
      <trkpt lat="45.14409" lon="3.42249">
        <ele>575.374</ele>
        <time>2020-08-17T14:39:06Z</time>
      </trkpt>
      <trkpt lat="45.14406" lon="3.42245">
        <ele>575.66</ele>
        <time>2020-08-17T14:39:10Z</time>
      </trkpt>
      <trkpt lat="45.14403" lon="3.42243">
        <ele>575.928</ele>
        <time>2020-08-17T14:39:13Z</time>
      </trkpt>
      <trkpt lat="45.144" lon="3.42241">
        <ele>576.483</ele>
        <time>2020-08-17T14:39:16Z</time>
      </trkpt>
      <trkpt lat="45.144" lon="3.42241">
        <ele>576.483</ele>
        <time>2020-08-17T14:39:16Z</time>
      </trkpt>
      <trkpt lat="45.144" lon="3.4224">
        <ele>576.518</ele>
        <time>2020-08-17T14:39:17Z</time>
      </trkpt>
      <trkpt lat="45.144" lon="3.42239">
        <ele>576.496</ele>
        <time>2020-08-17T14:39:18Z</time>
      </trkpt>
      <trkpt lat="45.14389" lon="3.42229">
        <ele>577.557</ele>
        <time>2020-08-17T14:39:31Z</time>
      </trkpt>
      <trkpt lat="45.14387" lon="3.42228">
        <ele>577.441</ele>
        <time>2020-08-17T14:39:34Z</time>
      </trkpt>
      <trkpt lat="45.14384" lon="3.42226">
        <ele>577.352</ele>
        <time>2020-08-17T14:39:37Z</time>
      </trkpt>
      <trkpt lat="45.14382" lon="3.42222">
        <ele>578</ele>
        <time>2020-08-17T14:39:41Z</time>
      </trkpt>
      <trkpt lat="45.14382" lon="3.42219">
        <ele>577.498</ele>
        <time>2020-08-17T14:39:42Z</time>
      </trkpt>
      <trkpt lat="45.1438" lon="3.42212">
        <ele>578.082</ele>
        <time>2020-08-17T14:39:46Z</time>
      </trkpt>
      <trkpt lat="45.14375" lon="3.42183">
        <ele>576.939</ele>
        <time>2020-08-17T14:40:02Z</time>
      </trkpt>
      <trkpt lat="45.14376" lon="3.42176">
        <ele>577.06</ele>
        <time>2020-08-17T14:40:05Z</time>
      </trkpt>
      <trkpt lat="45.14375" lon="3.42166">
        <ele>576.474</ele>
        <time>2020-08-17T14:40:10Z</time>
      </trkpt>
      <trkpt lat="45.14374" lon="3.42154">
        <ele>576.259</ele>
        <time>2020-08-17T14:40:18Z</time>
      </trkpt>
      <trkpt lat="45.14374" lon="3.4215">
        <ele>575.998</ele>
        <time>2020-08-17T14:40:21Z</time>
      </trkpt>
      <trkpt lat="45.14373" lon="3.42146">
        <ele>576.368</ele>
        <time>2020-08-17T14:40:24Z</time>
      </trkpt>
      <trkpt lat="45.14372" lon="3.4213">
        <ele>577.153</ele>
        <time>2020-08-17T14:40:36Z</time>
      </trkpt>
      <trkpt lat="45.14372" lon="3.42125">
        <ele>576.901</ele>
        <time>2020-08-17T14:40:40Z</time>
      </trkpt>
      <trkpt lat="45.14373" lon="3.4212">
        <ele>577.081</ele>
        <time>2020-08-17T14:40:43Z</time>
      </trkpt>
      <trkpt lat="45.14372" lon="3.42119">
        <ele>576.972</ele>
        <time>2020-08-17T14:40:44Z</time>
      </trkpt>
      <trkpt lat="45.14371" lon="3.42109">
        <ele>576.981</ele>
        <time>2020-08-17T14:40:50Z</time>
      </trkpt>
      <trkpt lat="45.14366" lon="3.42095">
        <ele>576.607</ele>
        <time>2020-08-17T14:40:58Z</time>
      </trkpt>
      <trkpt lat="45.14355" lon="3.42072">
        <ele>577.159</ele>
        <time>2020-08-17T14:41:17Z</time>
      </trkpt>
      <trkpt lat="45.14353" lon="3.42068">
        <ele>577.019</ele>
        <time>2020-08-17T14:41:20Z</time>
      </trkpt>
      <trkpt lat="45.14353" lon="3.42064">
        <ele>576.761</ele>
        <time>2020-08-17T14:41:22Z</time>
      </trkpt>
      <trkpt lat="45.14354" lon="3.42053">
        <ele>576.247</ele>
        <time>2020-08-17T14:41:27Z</time>
      </trkpt>
      <trkpt lat="45.14356" lon="3.42039">
        <ele>575.15</ele>
        <time>2020-08-17T14:41:34Z</time>
      </trkpt>
      <trkpt lat="45.14357" lon="3.4203">
        <ele>575.109</ele>
        <time>2020-08-17T14:41:39Z</time>
      </trkpt>
      <trkpt lat="45.14358" lon="3.42025">
        <ele>574.775</ele>
        <time>2020-08-17T14:41:43Z</time>
      </trkpt>
      <trkpt lat="45.14359" lon="3.42014">
        <ele>574.768</ele>
        <time>2020-08-17T14:41:49Z</time>
      </trkpt>
      <trkpt lat="45.14359" lon="3.41999">
        <ele>574.604</ele>
        <time>2020-08-17T14:41:57Z</time>
      </trkpt>
      <trkpt lat="45.14359" lon="3.41995">
        <ele>575.012</ele>
        <time>2020-08-17T14:42:00Z</time>
      </trkpt>
      <trkpt lat="45.14364" lon="3.41975">
        <ele>574.041</ele>
        <time>2020-08-17T14:42:12Z</time>
      </trkpt>
      <trkpt lat="45.14365" lon="3.41971">
        <ele>573.369</ele>
        <time>2020-08-17T14:42:14Z</time>
      </trkpt>
      <trkpt lat="45.14375" lon="3.41938">
        <ele>571.935</ele>
        <time>2020-08-17T14:42:34Z</time>
      </trkpt>
      <trkpt lat="45.14378" lon="3.41929">
        <ele>571.837</ele>
        <time>2020-08-17T14:42:40Z</time>
      </trkpt>
      <trkpt lat="45.14376" lon="3.41915">
        <ele>571.529</ele>
        <time>2020-08-17T14:42:48Z</time>
      </trkpt>
      <trkpt lat="45.14368" lon="3.41893">
        <ele>570.847</ele>
        <time>2020-08-17T14:43:05Z</time>
      </trkpt>
      <trkpt lat="45.14367" lon="3.41887">
        <ele>571.587</ele>
        <time>2020-08-17T14:43:09Z</time>
      </trkpt>
      <trkpt lat="45.14361" lon="3.41864">
        <ele>569.881</ele>
        <time>2020-08-17T14:43:22Z</time>
      </trkpt>
      <trkpt lat="45.14351" lon="3.41842">
        <ele>569.104</ele>
        <time>2020-08-17T14:43:37Z</time>
      </trkpt>
      <trkpt lat="45.1435" lon="3.41835">
        <ele>568.587</ele>
        <time>2020-08-17T14:43:41Z</time>
      </trkpt>
      <trkpt lat="45.14349" lon="3.41832">
        <ele>568.708</ele>
        <time>2020-08-17T14:43:44Z</time>
      </trkpt>
      <trkpt lat="45.14347" lon="3.41824">
        <ele>567.181</ele>
        <time>2020-08-17T14:43:50Z</time>
      </trkpt>
      <trkpt lat="45.14347" lon="3.41819">
        <ele>566.467</ele>
        <time>2020-08-17T14:43:54Z</time>
      </trkpt>
      <trkpt lat="45.14346" lon="3.41816">
        <ele>565.529</ele>
        <time>2020-08-17T14:43:58Z</time>
      </trkpt>
      <trkpt lat="45.14344" lon="3.41809">
        <ele>563.268</ele>
        <time>2020-08-17T14:44:04Z</time>
      </trkpt>
      <trkpt lat="45.14342" lon="3.41806">
        <ele>562.439</ele>
        <time>2020-08-17T14:44:07Z</time>
      </trkpt>
      <trkpt lat="45.1433" lon="3.41792">
        <ele>561.411</ele>
        <time>2020-08-17T14:44:23Z</time>
      </trkpt>
      <trkpt lat="45.14329" lon="3.41792">
        <ele>561.248</ele>
        <time>2020-08-17T14:44:24Z</time>
      </trkpt>
      <trkpt lat="45.14325" lon="3.41791">
        <ele>561.266</ele>
        <time>2020-08-17T14:44:30Z</time>
      </trkpt>
      <trkpt lat="45.14322" lon="3.41789">
        <ele>561.09</ele>
        <time>2020-08-17T14:44:34Z</time>
      </trkpt>
      <trkpt lat="45.14318" lon="3.41782">
        <ele>561.401</ele>
        <time>2020-08-17T14:44:40Z</time>
      </trkpt>
      <trkpt lat="45.14318" lon="3.41778">
        <ele>561.002</ele>
        <time>2020-08-17T14:44:43Z</time>
      </trkpt>
      <trkpt lat="45.14318" lon="3.41771">
        <ele>560.623</ele>
        <time>2020-08-17T14:44:47Z</time>
      </trkpt>
      <trkpt lat="45.14316" lon="3.41768">
        <ele>560.515</ele>
        <time>2020-08-17T14:44:49Z</time>
      </trkpt>
      <trkpt lat="45.14315" lon="3.41766">
        <ele>560.175</ele>
        <time>2020-08-17T14:44:51Z</time>
      </trkpt>
      <trkpt lat="45.14314" lon="3.41765">
        <ele>560.287</ele>
        <time>2020-08-17T14:44:53Z</time>
      </trkpt>
      <trkpt lat="45.14314" lon="3.41765">
        <ele>560.287</ele>
        <time>2020-08-17T14:44:53Z</time>
      </trkpt>
      <trkpt lat="45.14314" lon="3.41764">
        <ele>560.248</ele>
        <time>2020-08-17T14:44:54Z</time>
      </trkpt>
      <trkpt lat="45.14313" lon="3.41763">
        <ele>560.275</ele>
        <time>2020-08-17T14:44:55Z</time>
      </trkpt>
      <trkpt lat="45.14312" lon="3.41758">
        <ele>560.443</ele>
        <time>2020-08-17T14:44:59Z</time>
      </trkpt>
      <trkpt lat="45.1431" lon="3.41754">
        <ele>560.229</ele>
        <time>2020-08-17T14:45:02Z</time>
      </trkpt>
      <trkpt lat="45.1431" lon="3.41753">
        <ele>560.291</ele>
        <time>2020-08-17T14:45:03Z</time>
      </trkpt>
      <trkpt lat="45.1431" lon="3.41752">
        <ele>560.227</ele>
        <time>2020-08-17T14:45:04Z</time>
      </trkpt>
      <trkpt lat="45.14309" lon="3.41751">
        <ele>559.718</ele>
        <time>2020-08-17T14:45:06Z</time>
      </trkpt>
      <trkpt lat="45.14306" lon="3.41746">
        <ele>558.783</ele>
        <time>2020-08-17T14:45:11Z</time>
      </trkpt>
      <trkpt lat="45.14305" lon="3.41744">
        <ele>557.893</ele>
        <time>2020-08-17T14:45:14Z</time>
      </trkpt>
      <trkpt lat="45.14303" lon="3.41738">
        <ele>556.372</ele>
        <time>2020-08-17T14:45:20Z</time>
      </trkpt>
      <trkpt lat="45.14302" lon="3.41735">
        <ele>556.209</ele>
        <time>2020-08-17T14:45:24Z</time>
      </trkpt>
      <trkpt lat="45.14299" lon="3.41724">
        <ele>555.249</ele>
        <time>2020-08-17T14:45:31Z</time>
      </trkpt>
      <trkpt lat="45.14296" lon="3.41718">
        <ele>554.787</ele>
        <time>2020-08-17T14:45:36Z</time>
      </trkpt>
      <trkpt lat="45.14294" lon="3.41714">
        <ele>555.331</ele>
        <time>2020-08-17T14:45:41Z</time>
      </trkpt>
      <trkpt lat="45.14293" lon="3.41711">
        <ele>554.696</ele>
        <time>2020-08-17T14:45:44Z</time>
      </trkpt>
      <trkpt lat="45.14292" lon="3.41709">
        <ele>554.981</ele>
        <time>2020-08-17T14:45:45Z</time>
      </trkpt>
      <trkpt lat="45.14291" lon="3.41709">
        <ele>555.155</ele>
        <time>2020-08-17T14:45:46Z</time>
      </trkpt>
      <trkpt lat="45.14289" lon="3.41707">
        <ele>555.021</ele>
        <time>2020-08-17T14:45:50Z</time>
      </trkpt>
      <trkpt lat="45.14286" lon="3.41704">
        <ele>554.583</ele>
        <time>2020-08-17T14:45:53Z</time>
      </trkpt>
      <trkpt lat="45.14281" lon="3.41697">
        <ele>554.878</ele>
        <time>2020-08-17T14:45:59Z</time>
      </trkpt>
      <trkpt lat="45.1428" lon="3.41694">
        <ele>554.427</ele>
        <time>2020-08-17T14:46:01Z</time>
      </trkpt>
      <trkpt lat="45.14277" lon="3.41692">
        <ele>554.502</ele>
        <time>2020-08-17T14:46:05Z</time>
      </trkpt>
      <trkpt lat="45.14275" lon="3.41688">
        <ele>554.137</ele>
        <time>2020-08-17T14:46:08Z</time>
      </trkpt>
      <trkpt lat="45.14273" lon="3.41685">
        <ele>554.066</ele>
        <time>2020-08-17T14:46:11Z</time>
      </trkpt>
      <trkpt lat="45.14272" lon="3.41678">
        <ele>554.138</ele>
        <time>2020-08-17T14:46:14Z</time>
      </trkpt>
      <trkpt lat="45.14272" lon="3.41672">
        <ele>553.66</ele>
        <time>2020-08-17T14:46:16Z</time>
      </trkpt>
      <trkpt lat="45.1427" lon="3.41668">
        <ele>552.75</ele>
        <time>2020-08-17T14:46:19Z</time>
      </trkpt>
      <trkpt lat="45.14265" lon="3.41661">
        <ele>552.405</ele>
        <time>2020-08-17T14:46:26Z</time>
      </trkpt>
      <trkpt lat="45.14265" lon="3.4166">
        <ele>552.063</ele>
        <time>2020-08-17T14:46:27Z</time>
      </trkpt>
      <trkpt lat="45.14265" lon="3.41655">
        <ele>551.602</ele>
        <time>2020-08-17T14:46:29Z</time>
      </trkpt>
      <trkpt lat="45.14262" lon="3.41652">
        <ele>551.109</ele>
        <time>2020-08-17T14:46:31Z</time>
      </trkpt>
      <trkpt lat="45.14261" lon="3.41651">
        <ele>550.941</ele>
        <time>2020-08-17T14:46:32Z</time>
      </trkpt>
      <trkpt lat="45.14258" lon="3.41648">
        <ele>550.925</ele>
        <time>2020-08-17T14:46:34Z</time>
      </trkpt>
      <trkpt lat="45.14257" lon="3.41645">
        <ele>551.058</ele>
        <time>2020-08-17T14:46:36Z</time>
      </trkpt>
      <trkpt lat="45.14256" lon="3.41641">
        <ele>550.439</ele>
        <time>2020-08-17T14:46:39Z</time>
      </trkpt>
      <trkpt lat="45.14255" lon="3.41639">
        <ele>550.774</ele>
        <time>2020-08-17T14:46:41Z</time>
      </trkpt>
      <trkpt lat="45.14254" lon="3.41635">
        <ele>549.701</ele>
        <time>2020-08-17T14:46:45Z</time>
      </trkpt>
      <trkpt lat="45.14253" lon="3.41635">
        <ele>549.479</ele>
        <time>2020-08-17T14:46:46Z</time>
      </trkpt>
      <trkpt lat="45.14251" lon="3.41635">
        <ele>548.722</ele>
        <time>2020-08-17T14:46:49Z</time>
      </trkpt>
      <trkpt lat="45.14249" lon="3.41634">
        <ele>547.46</ele>
        <time>2020-08-17T14:46:51Z</time>
      </trkpt>
      <trkpt lat="45.14248" lon="3.4163">
        <ele>546.316</ele>
        <time>2020-08-17T14:46:55Z</time>
      </trkpt>
      <trkpt lat="45.14246" lon="3.41627">
        <ele>545.782</ele>
        <time>2020-08-17T14:46:58Z</time>
      </trkpt>
      <trkpt lat="45.14245" lon="3.41624">
        <ele>545.499</ele>
        <time>2020-08-17T14:47:01Z</time>
      </trkpt>
      <trkpt lat="45.14245" lon="3.41623">
        <ele>545.479</ele>
        <time>2020-08-17T14:47:02Z</time>
      </trkpt>
      <trkpt lat="45.14243" lon="3.41619">
        <ele>544.297</ele>
        <time>2020-08-17T14:47:07Z</time>
      </trkpt>
      <trkpt lat="45.14242" lon="3.41615">
        <ele>544.212</ele>
        <time>2020-08-17T14:47:09Z</time>
      </trkpt>
      <trkpt lat="45.14241" lon="3.41612">
        <ele>543.632</ele>
        <time>2020-08-17T14:47:11Z</time>
      </trkpt>
      <trkpt lat="45.1424" lon="3.4161">
        <ele>543.214</ele>
        <time>2020-08-17T14:47:12Z</time>
      </trkpt>
      <trkpt lat="45.14237" lon="3.41607">
        <ele>542.47</ele>
        <time>2020-08-17T14:47:16Z</time>
      </trkpt>
      <trkpt lat="45.14237" lon="3.41607">
        <ele>542.47</ele>
        <time>2020-08-17T14:47:16Z</time>
      </trkpt>
      <trkpt lat="45.14236" lon="3.41605">
        <ele>542.621</ele>
        <time>2020-08-17T14:47:17Z</time>
      </trkpt>
      <trkpt lat="45.14234" lon="3.41603">
        <ele>542.114</ele>
        <time>2020-08-17T14:47:19Z</time>
      </trkpt>
      <trkpt lat="45.14231" lon="3.41599">
        <ele>541.527</ele>
        <time>2020-08-17T14:47:22Z</time>
      </trkpt>
      <trkpt lat="45.14229" lon="3.41594">
        <ele>540.376</ele>
        <time>2020-08-17T14:47:26Z</time>
      </trkpt>
      <trkpt lat="45.14227" lon="3.41593">
        <ele>538.446</ele>
        <time>2020-08-17T14:47:29Z</time>
      </trkpt>
      <trkpt lat="45.14226" lon="3.41592">
        <ele>537.564</ele>
        <time>2020-08-17T14:47:31Z</time>
      </trkpt>
      <trkpt lat="45.14225" lon="3.41588">
        <ele>537.135</ele>
        <time>2020-08-17T14:47:34Z</time>
      </trkpt>
      <trkpt lat="45.14224" lon="3.41585">
        <ele>536.315</ele>
        <time>2020-08-17T14:47:37Z</time>
      </trkpt>
      <trkpt lat="45.14224" lon="3.41585">
        <ele>536.315</ele>
        <time>2020-08-17T14:47:37Z</time>
      </trkpt>
      <trkpt lat="45.14224" lon="3.41584">
        <ele>535.998</ele>
        <time>2020-08-17T14:47:38Z</time>
      </trkpt>
      <trkpt lat="45.14224" lon="3.41583">
        <ele>535.652</ele>
        <time>2020-08-17T14:47:39Z</time>
      </trkpt>
      <trkpt lat="45.14223" lon="3.41582">
        <ele>535.021</ele>
        <time>2020-08-17T14:47:41Z</time>
      </trkpt>
      <trkpt lat="45.14222" lon="3.4158">
        <ele>534.426</ele>
        <time>2020-08-17T14:47:42Z</time>
      </trkpt>
      <trkpt lat="45.14221" lon="3.41576">
        <ele>533.909</ele>
        <time>2020-08-17T14:47:45Z</time>
      </trkpt>
      <trkpt lat="45.14218" lon="3.41573">
        <ele>532.572</ele>
        <time>2020-08-17T14:47:49Z</time>
      </trkpt>
      <trkpt lat="45.14218" lon="3.41571">
        <ele>532.46</ele>
        <time>2020-08-17T14:47:51Z</time>
      </trkpt>
      <trkpt lat="45.14217" lon="3.4157">
        <ele>532.246</ele>
        <time>2020-08-17T14:47:52Z</time>
      </trkpt>
      <trkpt lat="45.14217" lon="3.41568">
        <ele>532.169</ele>
        <time>2020-08-17T14:47:53Z</time>
      </trkpt>
      <trkpt lat="45.14216" lon="3.41567">
        <ele>531.716</ele>
        <time>2020-08-17T14:47:54Z</time>
      </trkpt>
      <trkpt lat="45.14214" lon="3.41559">
        <ele>530.979</ele>
        <time>2020-08-17T14:48:00Z</time>
      </trkpt>
      <trkpt lat="45.14214" lon="3.41558">
        <ele>530.072</ele>
        <time>2020-08-17T14:48:01Z</time>
      </trkpt>
      <trkpt lat="45.14212" lon="3.41553">
        <ele>529.925</ele>
        <time>2020-08-17T14:48:04Z</time>
      </trkpt>
      <trkpt lat="45.1421" lon="3.41549">
        <ele>529.468</ele>
        <time>2020-08-17T14:48:07Z</time>
      </trkpt>
      <trkpt lat="45.14206" lon="3.41544">
        <ele>528.342</ele>
        <time>2020-08-17T14:48:12Z</time>
      </trkpt>
      <trkpt lat="45.14206" lon="3.41539">
        <ele>527.985</ele>
        <time>2020-08-17T14:48:15Z</time>
      </trkpt>
      <trkpt lat="45.14204" lon="3.41535">
        <ele>527.33</ele>
        <time>2020-08-17T14:48:19Z</time>
      </trkpt>
      <trkpt lat="45.14201" lon="3.4153">
        <ele>525.801</ele>
        <time>2020-08-17T14:48:24Z</time>
      </trkpt>
      <trkpt lat="45.14198" lon="3.41521">
        <ele>524.369</ele>
        <time>2020-08-17T14:48:30Z</time>
      </trkpt>
      <trkpt lat="45.14197" lon="3.4152">
        <ele>524.135</ele>
        <time>2020-08-17T14:48:31Z</time>
      </trkpt>
      <trkpt lat="45.14196" lon="3.41515">
        <ele>523.614</ele>
        <time>2020-08-17T14:48:35Z</time>
      </trkpt>
      <trkpt lat="45.14195" lon="3.41511">
        <ele>523.286</ele>
        <time>2020-08-17T14:48:39Z</time>
      </trkpt>
      <trkpt lat="45.14193" lon="3.41509">
        <ele>523.476</ele>
        <time>2020-08-17T14:48:42Z</time>
      </trkpt>
      <trkpt lat="45.14189" lon="3.41503">
        <ele>523.295</ele>
        <time>2020-08-17T14:48:45Z</time>
      </trkpt>
      <trkpt lat="45.14187" lon="3.415">
        <ele>523.368</ele>
        <time>2020-08-17T14:48:47Z</time>
      </trkpt>
      <trkpt lat="45.14187" lon="3.41498">
        <ele>523.275</ele>
        <time>2020-08-17T14:48:48Z</time>
      </trkpt>
      <trkpt lat="45.14182" lon="3.41492">
        <ele>523.077</ele>
        <time>2020-08-17T14:48:53Z</time>
      </trkpt>
      <trkpt lat="45.14179" lon="3.41486">
        <ele>523.32</ele>
        <time>2020-08-17T14:48:58Z</time>
      </trkpt>
      <trkpt lat="45.14178" lon="3.41482">
        <ele>522.778</ele>
        <time>2020-08-17T14:49:02Z</time>
      </trkpt>
      <trkpt lat="45.14176" lon="3.41477">
        <ele>522.732</ele>
        <time>2020-08-17T14:49:05Z</time>
      </trkpt>
      <trkpt lat="45.14176" lon="3.41477">
        <ele>522.734</ele>
        <time>2020-08-17T14:49:06Z</time>
      </trkpt>
      <trkpt lat="45.14176" lon="3.41477">
        <ele>522.913</ele>
        <time>2020-08-17T14:49:07Z</time>
      </trkpt>
      <trkpt lat="45.14176" lon="3.41477">
        <ele>522.913</ele>
        <time>2020-08-17T14:49:07Z</time>
      </trkpt>
      <trkpt lat="45.14176" lon="3.41475">
        <ele>523.03</ele>
        <time>2020-08-17T14:49:08Z</time>
      </trkpt>
      <trkpt lat="45.14176" lon="3.41473">
        <ele>523.014</ele>
        <time>2020-08-17T14:49:09Z</time>
      </trkpt>
      <trkpt lat="45.14177" lon="3.41472">
        <ele>522.955</ele>
        <time>2020-08-17T14:49:10Z</time>
      </trkpt>
      <trkpt lat="45.14178" lon="3.4147">
        <ele>522.351</ele>
        <time>2020-08-17T14:49:14Z</time>
      </trkpt>
      <trkpt lat="45.14178" lon="3.4147">
        <ele>522.217</ele>
        <time>2020-08-17T14:49:15Z</time>
      </trkpt>
      <trkpt lat="45.14178" lon="3.4147">
        <ele>522.217</ele>
        <time>2020-08-17T14:49:15Z</time>
      </trkpt>
      <trkpt lat="45.14179" lon="3.41471">
        <ele>522.026</ele>
        <time>2020-08-17T14:49:16Z</time>
      </trkpt>
      <trkpt lat="45.14181" lon="3.41471">
        <ele>522.105</ele>
        <time>2020-08-17T14:49:17Z</time>
      </trkpt>
      <trkpt lat="45.14184" lon="3.41471">
        <ele>522.537</ele>
        <time>2020-08-17T14:49:20Z</time>
      </trkpt>
      <trkpt lat="45.14186" lon="3.4147">
        <ele>522.005</ele>
        <time>2020-08-17T14:49:21Z</time>
      </trkpt>
      <trkpt lat="45.14189" lon="3.41469">
        <ele>521.857</ele>
        <time>2020-08-17T14:49:23Z</time>
      </trkpt>
      <trkpt lat="45.14192" lon="3.41467">
        <ele>522.117</ele>
        <time>2020-08-17T14:49:26Z</time>
      </trkpt>
      <trkpt lat="45.14198" lon="3.41466">
        <ele>521.446</ele>
        <time>2020-08-17T14:49:30Z</time>
      </trkpt>
      <trkpt lat="45.14205" lon="3.41469">
        <ele>519.439</ele>
        <time>2020-08-17T14:49:36Z</time>
      </trkpt>
      <trkpt lat="45.1421" lon="3.4147">
        <ele>518.702</ele>
        <time>2020-08-17T14:49:40Z</time>
      </trkpt>
      <trkpt lat="45.14223" lon="3.41472">
        <ele>517.424</ele>
        <time>2020-08-17T14:49:48Z</time>
      </trkpt>
      <trkpt lat="45.14227" lon="3.41471">
        <ele>517.39</ele>
        <time>2020-08-17T14:49:51Z</time>
      </trkpt>
      <trkpt lat="45.14236" lon="3.41476">
        <ele>517.555</ele>
        <time>2020-08-17T14:50:00Z</time>
      </trkpt>
      <trkpt lat="45.14243" lon="3.41475">
        <ele>516.937</ele>
        <time>2020-08-17T14:50:06Z</time>
      </trkpt>
      <trkpt lat="45.14246" lon="3.41476">
        <ele>516.352</ele>
        <time>2020-08-17T14:50:10Z</time>
      </trkpt>
      <trkpt lat="45.14253" lon="3.41478">
        <ele>515.692</ele>
        <time>2020-08-17T14:50:15Z</time>
      </trkpt>
      <trkpt lat="45.14263" lon="3.41482">
        <ele>513.939</ele>
        <time>2020-08-17T14:50:24Z</time>
      </trkpt>
      <trkpt lat="45.14284" lon="3.4148">
        <ele>511.777</ele>
        <time>2020-08-17T14:50:41Z</time>
      </trkpt>
      <trkpt lat="45.14286" lon="3.41477">
        <ele>510.903</ele>
        <time>2020-08-17T14:50:45Z</time>
      </trkpt>
      <trkpt lat="45.14287" lon="3.41476">
        <ele>511.116</ele>
        <time>2020-08-17T14:50:46Z</time>
      </trkpt>
      <trkpt lat="45.14299" lon="3.41465">
        <ele>512.015</ele>
        <time>2020-08-17T14:50:56Z</time>
      </trkpt>
      <trkpt lat="45.14302" lon="3.4146">
        <ele>510.886</ele>
        <time>2020-08-17T14:51:00Z</time>
      </trkpt>
      <trkpt lat="45.14328" lon="3.41422">
        <ele>510.098</ele>
        <time>2020-08-17T14:51:31Z</time>
      </trkpt>
      <trkpt lat="45.1433" lon="3.4142">
        <ele>510.551</ele>
        <time>2020-08-17T14:51:33Z</time>
      </trkpt>
      <trkpt lat="45.14332" lon="3.41418">
        <ele>510.817</ele>
        <time>2020-08-17T14:51:35Z</time>
      </trkpt>
      <trkpt lat="45.14334" lon="3.41416">
        <ele>510.225</ele>
        <time>2020-08-17T14:51:40Z</time>
      </trkpt>
      <trkpt lat="45.14335" lon="3.41414">
        <ele>510.14</ele>
        <time>2020-08-17T14:51:43Z</time>
      </trkpt>
      <trkpt lat="45.14337" lon="3.41414">
        <ele>509.983</ele>
        <time>2020-08-17T14:51:44Z</time>
      </trkpt>
      <trkpt lat="45.14339" lon="3.41412">
        <ele>510.056</ele>
        <time>2020-08-17T14:51:46Z</time>
      </trkpt>
      <trkpt lat="45.14346" lon="3.41407">
        <ele>510.538</ele>
        <time>2020-08-17T14:51:53Z</time>
      </trkpt>
      <trkpt lat="45.14357" lon="3.41392">
        <ele>511.036</ele>
        <time>2020-08-17T14:52:03Z</time>
      </trkpt>
      <trkpt lat="45.14363" lon="3.41375">
        <ele>512.219</ele>
        <time>2020-08-17T14:52:15Z</time>
      </trkpt>
      <trkpt lat="45.14363" lon="3.41374">
        <ele>512.203</ele>
        <time>2020-08-17T14:52:16Z</time>
      </trkpt>
      <trkpt lat="45.14365" lon="3.41368">
        <ele>511.878</ele>
        <time>2020-08-17T14:52:22Z</time>
      </trkpt>
      <trkpt lat="45.14365" lon="3.41368">
        <ele>511.824</ele>
        <time>2020-08-17T14:52:25Z</time>
      </trkpt>
      <trkpt lat="45.14365" lon="3.41367">
        <ele>512.113</ele>
        <time>2020-08-17T14:52:26Z</time>
      </trkpt>
      <trkpt lat="45.14365" lon="3.41366">
        <ele>512.009</ele>
        <time>2020-08-17T14:52:30Z</time>
      </trkpt>
      <trkpt lat="45.14365" lon="3.41366">
        <ele>511.687</ele>
        <time>2020-08-17T14:53:48Z</time>
      </trkpt>
      <trkpt lat="45.14366" lon="3.41365">
        <ele>511.676</ele>
        <time>2020-08-17T14:53:49Z</time>
      </trkpt>
      <trkpt lat="45.14366" lon="3.41365">
        <ele>511.625</ele>
        <time>2020-08-17T14:53:50Z</time>
      </trkpt>
      <trkpt lat="45.14366" lon="3.41365">
        <ele>511.61</ele>
        <time>2020-08-17T14:53:58Z</time>
      </trkpt>
      <trkpt lat="45.14367" lon="3.41365">
        <ele>512.191</ele>
        <time>2020-08-17T14:53:59Z</time>
      </trkpt>
      <trkpt lat="45.14367" lon="3.41365">
        <ele>512.265</ele>
        <time>2020-08-17T14:54:00Z</time>
      </trkpt>
      <trkpt lat="45.14367" lon="3.41365">
        <ele>512.549</ele>
        <time>2020-08-17T14:54:03Z</time>
      </trkpt>
      <trkpt lat="45.14366" lon="3.41365">
        <ele>512.719</ele>
        <time>2020-08-17T14:54:04Z</time>
      </trkpt>
      <trkpt lat="45.14366" lon="3.41365">
        <ele>512.105</ele>
        <time>2020-08-17T14:54:05Z</time>
      </trkpt>
      <trkpt lat="45.14366" lon="3.41365">
        <ele>511.832</ele>
        <time>2020-08-17T14:54:06Z</time>
      </trkpt>
      <trkpt lat="45.14366" lon="3.41365">
        <ele>512.208</ele>
        <time>2020-08-17T14:54:34Z</time>
      </trkpt>
      <trkpt lat="45.14366" lon="3.41364">
        <ele>512.317</ele>
        <time>2020-08-17T14:54:35Z</time>
      </trkpt>
      <trkpt lat="45.14366" lon="3.41365">
        <ele>512.117</ele>
        <time>2020-08-17T14:54:39Z</time>
      </trkpt>
      <trkpt lat="45.14366" lon="3.41365">
        <ele>511.339</ele>
        <time>2020-08-17T14:54:49Z</time>
      </trkpt>
      <trkpt lat="45.14366" lon="3.41365">
        <ele>511.202</ele>
        <time>2020-08-17T14:54:50Z</time>
      </trkpt>
      <trkpt lat="45.14366" lon="3.41365">
        <ele>510.904</ele>
        <time>2020-08-17T14:54:51Z</time>
      </trkpt>
      <trkpt lat="45.14366" lon="3.41365">
        <ele>510.69</ele>
        <time>2020-08-17T14:55:01Z</time>
      </trkpt>
      <trkpt lat="45.14366" lon="3.41365">
        <ele>510.846</ele>
        <time>2020-08-17T14:55:02Z</time>
      </trkpt>
      <trkpt lat="45.14366" lon="3.41365">
        <ele>510.99</ele>
        <time>2020-08-17T14:55:03Z</time>
      </trkpt>
      <trkpt lat="45.14366" lon="3.41365">
        <ele>511.168</ele>
        <time>2020-08-17T14:55:34Z</time>
      </trkpt>
      <trkpt lat="45.14366" lon="3.41365">
        <ele>511.189</ele>
        <time>2020-08-17T14:55:35Z</time>
      </trkpt>
      <trkpt lat="45.14367" lon="3.41361">
        <ele>509.307</ele>
        <time>2020-08-17T14:55:39Z</time>
      </trkpt>
      <trkpt lat="45.1437" lon="3.41357">
        <ele>510.456</ele>
        <time>2020-08-17T14:55:43Z</time>
      </trkpt>
      <trkpt lat="45.14373" lon="3.41348">
        <ele>511.753</ele>
        <time>2020-08-17T14:55:53Z</time>
      </trkpt>
      <trkpt lat="45.14372" lon="3.41318">
        <ele>509.086</ele>
        <time>2020-08-17T14:56:13Z</time>
      </trkpt>
      <trkpt lat="45.14373" lon="3.41303">
        <ele>509.078</ele>
        <time>2020-08-17T14:56:24Z</time>
      </trkpt>
      <trkpt lat="45.14373" lon="3.41302">
        <ele>509.212</ele>
        <time>2020-08-17T14:56:25Z</time>
      </trkpt>
      <trkpt lat="45.14373" lon="3.41297">
        <ele>508.871</ele>
        <time>2020-08-17T14:56:29Z</time>
      </trkpt>
      <trkpt lat="45.14373" lon="3.41288">
        <ele>508.107</ele>
        <time>2020-08-17T14:56:34Z</time>
      </trkpt>
      <trkpt lat="45.14373" lon="3.41276">
        <ele>507.486</ele>
        <time>2020-08-17T14:56:41Z</time>
      </trkpt>
      <trkpt lat="45.14373" lon="3.41276">
        <ele>507.486</ele>
        <time>2020-08-17T14:56:41Z</time>
      </trkpt>
      <trkpt lat="45.14374" lon="3.41275">
        <ele>507.304</ele>
        <time>2020-08-17T14:56:42Z</time>
      </trkpt>
      <trkpt lat="45.14374" lon="3.41274">
        <ele>506.788</ele>
        <time>2020-08-17T14:56:43Z</time>
      </trkpt>
      <trkpt lat="45.14374" lon="3.41268">
        <ele>506.993</ele>
        <time>2020-08-17T14:56:48Z</time>
      </trkpt>
      <trkpt lat="45.14375" lon="3.41263">
        <ele>506.617</ele>
        <time>2020-08-17T14:56:52Z</time>
      </trkpt>
      <trkpt lat="45.14376" lon="3.41245">
        <ele>506.443</ele>
        <time>2020-08-17T14:57:07Z</time>
      </trkpt>
      <trkpt lat="45.14376" lon="3.41244">
        <ele>506.461</ele>
        <time>2020-08-17T14:57:08Z</time>
      </trkpt>
      <trkpt lat="45.14376" lon="3.41218">
        <ele>504.4</ele>
        <time>2020-08-17T14:57:24Z</time>
      </trkpt>
      <trkpt lat="45.14377" lon="3.41212">
        <ele>504.181</ele>
        <time>2020-08-17T14:57:27Z</time>
      </trkpt>
      <trkpt lat="45.14384" lon="3.41167">
        <ele>501.952</ele>
        <time>2020-08-17T14:57:53Z</time>
      </trkpt>
      <trkpt lat="45.1439" lon="3.41136">
        <ele>499.88</ele>
        <time>2020-08-17T14:58:13Z</time>
      </trkpt>
      <trkpt lat="45.14397" lon="3.41097">
        <ele>499.631</ele>
        <time>2020-08-17T14:58:34Z</time>
      </trkpt>
      <trkpt lat="45.14408" lon="3.41053">
        <ele>498.614</ele>
        <time>2020-08-17T14:59:01Z</time>
      </trkpt>
      <trkpt lat="45.14423" lon="3.40926">
        <ele>498.873</ele>
        <time>2020-08-17T15:00:18Z</time>
      </trkpt>
      <trkpt lat="45.14436" lon="3.4083">
        <ele>496.683</ele>
        <time>2020-08-17T15:01:11Z</time>
      </trkpt>
      <trkpt lat="45.14442" lon="3.40805">
        <ele>494.601</ele>
        <time>2020-08-17T15:01:24Z</time>
      </trkpt>
      <trkpt lat="45.14447" lon="3.40772">
        <ele>492.459</ele>
        <time>2020-08-17T15:01:44Z</time>
      </trkpt>
      <trkpt lat="45.14449" lon="3.40752">
        <ele>492.42</ele>
        <time>2020-08-17T15:01:55Z</time>
      </trkpt>
      <trkpt lat="45.1445" lon="3.40735">
        <ele>492.023</ele>
        <time>2020-08-17T15:02:05Z</time>
      </trkpt>
      <trkpt lat="45.14453" lon="3.40718">
        <ele>491.198</ele>
        <time>2020-08-17T15:02:15Z</time>
      </trkpt>
      <trkpt lat="45.1446" lon="3.40704">
        <ele>490.958</ele>
        <time>2020-08-17T15:02:25Z</time>
      </trkpt>
      <trkpt lat="45.14467" lon="3.40698">
        <ele>490.046</ele>
        <time>2020-08-17T15:02:31Z</time>
      </trkpt>
      <trkpt lat="45.14486" lon="3.4069">
        <ele>488.994</ele>
        <time>2020-08-17T15:02:46Z</time>
      </trkpt>
      <trkpt lat="45.14501" lon="3.40693">
        <ele>488.043</ele>
        <time>2020-08-17T15:03:00Z</time>
      </trkpt>
      <trkpt lat="45.14513" lon="3.40696">
        <ele>487.589</ele>
        <time>2020-08-17T15:03:10Z</time>
      </trkpt>
      <trkpt lat="45.14522" lon="3.40697">
        <ele>486.538</ele>
        <time>2020-08-17T15:03:17Z</time>
      </trkpt>
      <trkpt lat="45.1453" lon="3.40697">
        <ele>486.621</ele>
        <time>2020-08-17T15:03:22Z</time>
      </trkpt>
      <trkpt lat="45.14531" lon="3.40697">
        <ele>487.056</ele>
        <time>2020-08-17T15:03:23Z</time>
      </trkpt>
      <trkpt lat="45.14538" lon="3.40694">
        <ele>486.565</ele>
        <time>2020-08-17T15:03:28Z</time>
      </trkpt>
      <trkpt lat="45.14543" lon="3.40688">
        <ele>484.277</ele>
        <time>2020-08-17T15:03:34Z</time>
      </trkpt>
      <trkpt lat="45.14546" lon="3.40685">
        <ele>483.735</ele>
        <time>2020-08-17T15:03:37Z</time>
      </trkpt>
      <trkpt lat="45.14552" lon="3.40678">
        <ele>483.73</ele>
        <time>2020-08-17T15:03:44Z</time>
      </trkpt>
      <trkpt lat="45.14565" lon="3.40663">
        <ele>481.88</ele>
        <time>2020-08-17T15:03:57Z</time>
      </trkpt>
      <trkpt lat="45.14584" lon="3.40641">
        <ele>482.275</ele>
        <time>2020-08-17T15:04:16Z</time>
      </trkpt>
      <trkpt lat="45.14598" lon="3.40611">
        <ele>481.517</ele>
        <time>2020-08-17T15:04:35Z</time>
      </trkpt>
      <trkpt lat="45.14601" lon="3.40596">
        <ele>480.397</ele>
        <time>2020-08-17T15:04:43Z</time>
      </trkpt>
      <trkpt lat="45.14608" lon="3.4057">
        <ele>479.398</ele>
        <time>2020-08-17T15:04:57Z</time>
      </trkpt>
      <trkpt lat="45.14611" lon="3.40569">
        <ele>479.038</ele>
        <time>2020-08-17T15:05:01Z</time>
      </trkpt>
      <trkpt lat="45.14613" lon="3.40566">
        <ele>478.698</ele>
        <time>2020-08-17T15:05:03Z</time>
      </trkpt>
      <trkpt lat="45.14619" lon="3.40549">
        <ele>478.867</ele>
        <time>2020-08-17T15:05:11Z</time>
      </trkpt>
      <trkpt lat="45.14621" lon="3.4053">
        <ele>476.65</ele>
        <time>2020-08-17T15:05:19Z</time>
      </trkpt>
      <trkpt lat="45.14625" lon="3.40504">
        <ele>474.019</ele>
        <time>2020-08-17T15:05:34Z</time>
      </trkpt>
      <trkpt lat="45.14627" lon="3.405">
        <ele>473.689</ele>
        <time>2020-08-17T15:05:38Z</time>
      </trkpt>
      <trkpt lat="45.14627" lon="3.405">
        <ele>473.689</ele>
        <time>2020-08-17T15:05:38Z</time>
      </trkpt>
      <trkpt lat="45.14627" lon="3.405">
        <ele>473.378</ele>
        <time>2020-08-17T15:05:39Z</time>
      </trkpt>
      <trkpt lat="45.14628" lon="3.40498">
        <ele>473.43</ele>
        <time>2020-08-17T15:05:41Z</time>
      </trkpt>
      <trkpt lat="45.14629" lon="3.40496">
        <ele>473.279</ele>
        <time>2020-08-17T15:05:45Z</time>
      </trkpt>
      <trkpt lat="45.1463" lon="3.40494">
        <ele>473.368</ele>
        <time>2020-08-17T15:05:47Z</time>
      </trkpt>
      <trkpt lat="45.14633" lon="3.40486">
        <ele>472.211</ele>
        <time>2020-08-17T15:05:52Z</time>
      </trkpt>
      <trkpt lat="45.14635" lon="3.40482">
        <ele>471.8</ele>
        <time>2020-08-17T15:05:58Z</time>
      </trkpt>
      <trkpt lat="45.14633" lon="3.40483">
        <ele>471.527</ele>
        <time>2020-08-17T15:06:01Z</time>
      </trkpt>
      <trkpt lat="45.14633" lon="3.40483">
        <ele>471.961</ele>
        <time>2020-08-17T15:06:08Z</time>
      </trkpt>
      <trkpt lat="45.14633" lon="3.40485">
        <ele>471.702</ele>
        <time>2020-08-17T15:06:09Z</time>
      </trkpt>
      <trkpt lat="45.14634" lon="3.40484">
        <ele>471.878</ele>
        <time>2020-08-17T15:06:10Z</time>
      </trkpt>
      <trkpt lat="45.14635" lon="3.40481">
        <ele>471.543</ele>
        <time>2020-08-17T15:06:12Z</time>
      </trkpt>
      <trkpt lat="45.14643" lon="3.40472">
        <ele>469.503</ele>
        <time>2020-08-17T15:06:19Z</time>
      </trkpt>
      <trkpt lat="45.14664" lon="3.40445">
        <ele>467.325</ele>
        <time>2020-08-17T15:06:43Z</time>
      </trkpt>
      <trkpt lat="45.14683" lon="3.404">
        <ele>466.321</ele>
        <time>2020-08-17T15:07:16Z</time>
      </trkpt>
      <trkpt lat="45.14685" lon="3.40391">
        <ele>466.223</ele>
        <time>2020-08-17T15:07:21Z</time>
      </trkpt>
      <trkpt lat="45.14688" lon="3.40383">
        <ele>465.525</ele>
        <time>2020-08-17T15:07:25Z</time>
      </trkpt>
      <trkpt lat="45.14694" lon="3.40372">
        <ele>466.071</ele>
        <time>2020-08-17T15:07:33Z</time>
      </trkpt>
      <trkpt lat="45.14698" lon="3.4037">
        <ele>465.758</ele>
        <time>2020-08-17T15:07:36Z</time>
      </trkpt>
      <trkpt lat="45.14705" lon="3.40367">
        <ele>465.17</ele>
        <time>2020-08-17T15:07:43Z</time>
      </trkpt>
      <trkpt lat="45.14708" lon="3.4037">
        <ele>465.428</ele>
        <time>2020-08-17T15:07:46Z</time>
      </trkpt>
      <trkpt lat="45.14709" lon="3.40371">
        <ele>465.547</ele>
        <time>2020-08-17T15:07:48Z</time>
      </trkpt>
      <trkpt lat="45.14709" lon="3.40371">
        <ele>465.274</ele>
        <time>2020-08-17T15:07:50Z</time>
      </trkpt>
      <trkpt lat="45.14715" lon="3.40374">
        <ele>464.771</ele>
        <time>2020-08-17T15:07:57Z</time>
      </trkpt>
      <trkpt lat="45.14717" lon="3.40375">
        <ele>464.53</ele>
        <time>2020-08-17T15:07:59Z</time>
      </trkpt>
      <trkpt lat="45.14719" lon="3.40376">
        <ele>463.77</ele>
        <time>2020-08-17T15:08:03Z</time>
      </trkpt>
      <trkpt lat="45.1472" lon="3.40377">
        <ele>464.408</ele>
        <time>2020-08-17T15:08:06Z</time>
      </trkpt>
      <trkpt lat="45.1472" lon="3.40377">
        <ele>464.408</ele>
        <time>2020-08-17T15:08:06Z</time>
      </trkpt>
      <trkpt lat="45.1472" lon="3.40377">
        <ele>464.369</ele>
        <time>2020-08-17T15:08:07Z</time>
      </trkpt>
      <trkpt lat="45.1472" lon="3.40377">
        <ele>464.17</ele>
        <time>2020-08-17T15:08:10Z</time>
      </trkpt>
      <trkpt lat="45.14721" lon="3.40377">
        <ele>463.73</ele>
        <time>2020-08-17T15:08:11Z</time>
      </trkpt>
      <trkpt lat="45.14721" lon="3.40376">
        <ele>463.978</ele>
        <time>2020-08-17T15:08:13Z</time>
      </trkpt>
      <trkpt lat="45.14721" lon="3.40376">
        <ele>463.886</ele>
        <time>2020-08-17T15:08:15Z</time>
      </trkpt>
      <trkpt lat="45.14723" lon="3.40376">
        <ele>463.95</ele>
        <time>2020-08-17T15:08:16Z</time>
      </trkpt>
      <trkpt lat="45.14724" lon="3.40376">
        <ele>463.896</ele>
        <time>2020-08-17T15:08:18Z</time>
      </trkpt>
      <trkpt lat="45.14728" lon="3.40373">
        <ele>463.604</ele>
        <time>2020-08-17T15:08:24Z</time>
      </trkpt>
      <trkpt lat="45.14739" lon="3.40376">
        <ele>461.274</ele>
        <time>2020-08-17T15:08:35Z</time>
      </trkpt>
      <trkpt lat="45.14746" lon="3.40382">
        <ele>461.377</ele>
        <time>2020-08-17T15:08:46Z</time>
      </trkpt>
      <trkpt lat="45.14748" lon="3.40384">
        <ele>461.789</ele>
        <time>2020-08-17T15:08:49Z</time>
      </trkpt>
      <trkpt lat="45.1475" lon="3.40383">
        <ele>460.891</ele>
        <time>2020-08-17T15:08:53Z</time>
      </trkpt>
      <trkpt lat="45.1475" lon="3.40383">
        <ele>461.049</ele>
        <time>2020-08-17T15:08:54Z</time>
      </trkpt>
      <trkpt lat="45.1475" lon="3.40383">
        <ele>460.809</ele>
        <time>2020-08-17T15:08:55Z</time>
      </trkpt>
      <trkpt lat="45.14749" lon="3.40382">
        <ele>460.525</ele>
        <time>2020-08-17T15:08:56Z</time>
      </trkpt>
      <trkpt lat="45.14749" lon="3.40382">
        <ele>460.525</ele>
        <time>2020-08-17T15:08:56Z</time>
      </trkpt>
      <trkpt lat="45.14749" lon="3.40382">
        <ele>460.325</ele>
        <time>2020-08-17T15:08:57Z</time>
      </trkpt>
      <trkpt lat="45.14749" lon="3.40382">
        <ele>460.325</ele>
        <time>2020-08-17T15:08:57Z</time>
      </trkpt>
      <trkpt lat="45.14748" lon="3.40382">
        <ele>460.388</ele>
        <time>2020-08-17T15:08:58Z</time>
      </trkpt>
      <trkpt lat="45.14748" lon="3.40382">
        <ele>460.388</ele>
        <time>2020-08-17T15:08:58Z</time>
      </trkpt>
      <trkpt lat="45.14748" lon="3.40382">
        <ele>460.274</ele>
        <time>2020-08-17T15:08:59Z</time>
      </trkpt>
      <trkpt lat="45.14747" lon="3.40384">
        <ele>460.621</ele>
        <time>2020-08-17T15:09:03Z</time>
      </trkpt>
      <trkpt lat="45.14747" lon="3.40385">
        <ele>460.692</ele>
        <time>2020-08-17T15:09:04Z</time>
      </trkpt>
      <trkpt lat="45.14749" lon="3.40387">
        <ele>460.897</ele>
        <time>2020-08-17T15:09:09Z</time>
      </trkpt>
      <trkpt lat="45.1475" lon="3.40387">
        <ele>461.111</ele>
        <time>2020-08-17T15:09:10Z</time>
      </trkpt>
      <trkpt lat="45.1475" lon="3.40387">
        <ele>461.101</ele>
        <time>2020-08-17T15:09:11Z</time>
      </trkpt>
      <trkpt lat="45.1475" lon="3.40387">
        <ele>462.088</ele>
        <time>2020-08-17T15:10:29Z</time>
      </trkpt>
      <trkpt lat="45.14751" lon="3.40386">
        <ele>461.264</ele>
        <time>2020-08-17T15:10:30Z</time>
      </trkpt>
      <trkpt lat="45.14751" lon="3.40386">
        <ele>461.765</ele>
        <time>2020-08-17T15:10:31Z</time>
      </trkpt>
      <trkpt lat="45.14751" lon="3.40386">
        <ele>462.613</ele>
        <time>2020-08-17T15:10:32Z</time>
      </trkpt>
      <trkpt lat="45.14751" lon="3.40386">
        <ele>463.483</ele>
        <time>2020-08-17T15:10:37Z</time>
      </trkpt>
      <trkpt lat="45.14751" lon="3.40388">
        <ele>463.637</ele>
        <time>2020-08-17T15:10:38Z</time>
      </trkpt>
      <trkpt lat="45.14751" lon="3.40388">
        <ele>463.637</ele>
        <time>2020-08-17T15:10:38Z</time>
      </trkpt>
      <trkpt lat="45.14751" lon="3.40388">
        <ele>463.518</ele>
        <time>2020-08-17T15:10:39Z</time>
      </trkpt>
      <trkpt lat="45.14751" lon="3.40388">
        <ele>463.518</ele>
        <time>2020-08-17T15:10:39Z</time>
      </trkpt>
      <trkpt lat="45.1475" lon="3.40389">
        <ele>463.779</ele>
        <time>2020-08-17T15:10:40Z</time>
      </trkpt>
      <trkpt lat="45.1475" lon="3.4039">
        <ele>464.852</ele>
        <time>2020-08-17T15:10:42Z</time>
      </trkpt>
      <trkpt lat="45.1475" lon="3.40392">
        <ele>466.108</ele>
        <time>2020-08-17T15:10:45Z</time>
      </trkpt>
      <trkpt lat="45.1475" lon="3.40392">
        <ele>465.75</ele>
        <time>2020-08-17T15:10:46Z</time>
      </trkpt>
      <trkpt lat="45.14752" lon="3.40391">
        <ele>465.213</ele>
        <time>2020-08-17T15:10:47Z</time>
      </trkpt>
      <trkpt lat="45.14753" lon="3.40391">
        <ele>464.705</ele>
        <time>2020-08-17T15:10:48Z</time>
      </trkpt>
      <trkpt lat="45.14753" lon="3.40391">
        <ele>464.735</ele>
        <time>2020-08-17T15:10:49Z</time>
      </trkpt>
      <trkpt lat="45.14753" lon="3.40391">
        <ele>462.971</ele>
        <time>2020-08-17T15:10:56Z</time>
      </trkpt>
      <trkpt lat="45.14756" lon="3.40387">
        <ele>461.213</ele>
        <time>2020-08-17T15:10:57Z</time>
      </trkpt>
      <trkpt lat="45.14756" lon="3.40387">
        <ele>460.716</ele>
        <time>2020-08-17T15:10:58Z</time>
      </trkpt>
      <trkpt lat="45.14761" lon="3.40386">
        <ele>460.868</ele>
        <time>2020-08-17T15:11:00Z</time>
      </trkpt>
      <trkpt lat="45.14761" lon="3.40386">
        <ele>459.618</ele>
        <time>2020-08-17T15:11:51Z</time>
      </trkpt>
      <trkpt lat="45.14759" lon="3.40386">
        <ele>459.012</ele>
        <time>2020-08-17T15:11:52Z</time>
      </trkpt>
      <trkpt lat="45.14757" lon="3.40385">
        <ele>458.272</ele>
        <time>2020-08-17T15:11:54Z</time>
      </trkpt>
      <trkpt lat="45.14753" lon="3.40384">
        <ele>459.347</ele>
        <time>2020-08-17T15:11:57Z</time>
      </trkpt>
      <trkpt lat="45.1475" lon="3.40385">
        <ele>458.449</ele>
        <time>2020-08-17T15:11:59Z</time>
      </trkpt>
      <trkpt lat="45.14747" lon="3.40385">
        <ele>458.936</ele>
        <time>2020-08-17T15:12:01Z</time>
      </trkpt>
      <trkpt lat="45.14742" lon="3.40384">
        <ele>459.899</ele>
        <time>2020-08-17T15:12:04Z</time>
      </trkpt>
      <trkpt lat="45.14741" lon="3.40383">
        <ele>459.879</ele>
        <time>2020-08-17T15:12:05Z</time>
      </trkpt>
      <trkpt lat="45.14732" lon="3.4038">
        <ele>462.158</ele>
        <time>2020-08-17T15:12:11Z</time>
      </trkpt>
      <trkpt lat="45.1472" lon="3.40373">
        <ele>461.918</ele>
        <time>2020-08-17T15:12:23Z</time>
      </trkpt>
      <trkpt lat="45.14699" lon="3.40364">
        <ele>463.124</ele>
        <time>2020-08-17T15:12:45Z</time>
      </trkpt>
      <trkpt lat="45.14694" lon="3.40359">
        <ele>462.8</ele>
        <time>2020-08-17T15:12:51Z</time>
      </trkpt>
      <trkpt lat="45.14691" lon="3.40354">
        <ele>462.799</ele>
        <time>2020-08-17T15:12:55Z</time>
      </trkpt>
      <trkpt lat="45.14681" lon="3.40337">
        <ele>464.517</ele>
        <time>2020-08-17T15:13:09Z</time>
      </trkpt>
      <trkpt lat="45.14673" lon="3.40325">
        <ele>465.627</ele>
        <time>2020-08-17T15:13:19Z</time>
      </trkpt>
      <trkpt lat="45.1466" lon="3.40316">
        <ele>465.035</ele>
        <time>2020-08-17T15:13:31Z</time>
      </trkpt>
      <trkpt lat="45.14653" lon="3.40318">
        <ele>465.933</ele>
        <time>2020-08-17T15:13:37Z</time>
      </trkpt>
      <trkpt lat="45.14646" lon="3.40318">
        <ele>465.639</ele>
        <time>2020-08-17T15:13:47Z</time>
      </trkpt>
      <trkpt lat="45.14642" lon="3.40311">
        <ele>465.799</ele>
        <time>2020-08-17T15:13:54Z</time>
      </trkpt>
      <trkpt lat="45.14638" lon="3.4029">
        <ele>465.924</ele>
        <time>2020-08-17T15:14:09Z</time>
      </trkpt>
      <trkpt lat="45.14638" lon="3.40286">
        <ele>465.93</ele>
        <time>2020-08-17T15:14:12Z</time>
      </trkpt>
      <trkpt lat="45.14639" lon="3.40282">
        <ele>466.244</ele>
        <time>2020-08-17T15:14:15Z</time>
      </trkpt>
      <trkpt lat="45.1464" lon="3.40278">
        <ele>465.814</ele>
        <time>2020-08-17T15:14:18Z</time>
      </trkpt>
      <trkpt lat="45.14644" lon="3.40263">
        <ele>465.736</ele>
        <time>2020-08-17T15:14:27Z</time>
      </trkpt>
      <trkpt lat="45.14647" lon="3.40245">
        <ele>464.899</ele>
        <time>2020-08-17T15:14:40Z</time>
      </trkpt>
      <trkpt lat="45.14647" lon="3.40243">
        <ele>465.003</ele>
        <time>2020-08-17T15:14:41Z</time>
      </trkpt>
      <trkpt lat="45.14647" lon="3.40241">
        <ele>465.175</ele>
        <time>2020-08-17T15:14:43Z</time>
      </trkpt>
      <trkpt lat="45.14646" lon="3.40237">
        <ele>464.571</ele>
        <time>2020-08-17T15:14:45Z</time>
      </trkpt>
      <trkpt lat="45.14647" lon="3.40231">
        <ele>464.752</ele>
        <time>2020-08-17T15:14:48Z</time>
      </trkpt>
      <trkpt lat="45.14647" lon="3.40227">
        <ele>464.956</ele>
        <time>2020-08-17T15:14:51Z</time>
      </trkpt>
      <trkpt lat="45.14647" lon="3.40186">
        <ele>465.285</ele>
        <time>2020-08-17T15:15:14Z</time>
      </trkpt>
      <trkpt lat="45.14648" lon="3.40168">
        <ele>464.747</ele>
        <time>2020-08-17T15:15:25Z</time>
      </trkpt>
      <trkpt lat="45.14649" lon="3.40164">
        <ele>464.38</ele>
        <time>2020-08-17T15:15:28Z</time>
      </trkpt>
      <trkpt lat="45.14649" lon="3.40158">
        <ele>464.088</ele>
        <time>2020-08-17T15:15:31Z</time>
      </trkpt>
      <trkpt lat="45.14649" lon="3.40147">
        <ele>463.834</ele>
        <time>2020-08-17T15:15:36Z</time>
      </trkpt>
      <trkpt lat="45.14652" lon="3.40139">
        <ele>464.891</ele>
        <time>2020-08-17T15:15:44Z</time>
      </trkpt>
      <trkpt lat="45.14673" lon="3.40124">
        <ele>465.423</ele>
        <time>2020-08-17T15:16:09Z</time>
      </trkpt>
      <trkpt lat="45.14673" lon="3.40124">
        <ele>465.732</ele>
        <time>2020-08-17T15:16:10Z</time>
      </trkpt>
      <trkpt lat="45.14673" lon="3.40124">
        <ele>465.769</ele>
        <time>2020-08-17T15:16:15Z</time>
      </trkpt>
      <trkpt lat="45.14673" lon="3.40124">
        <ele>466.335</ele>
        <time>2020-08-17T15:16:16Z</time>
      </trkpt>
      <trkpt lat="45.14673" lon="3.40124">
        <ele>466.684</ele>
        <time>2020-08-17T15:16:29Z</time>
      </trkpt>
      <trkpt lat="45.14674" lon="3.40123">
        <ele>466.691</ele>
        <time>2020-08-17T15:16:30Z</time>
      </trkpt>
      <trkpt lat="45.14674" lon="3.40123">
        <ele>466.674</ele>
        <time>2020-08-17T15:16:31Z</time>
      </trkpt>
      <trkpt lat="45.14674" lon="3.40123">
        <ele>466.515</ele>
        <time>2020-08-17T15:17:13Z</time>
      </trkpt>
      <trkpt lat="45.14676" lon="3.40122">
        <ele>466.698</ele>
        <time>2020-08-17T15:17:14Z</time>
      </trkpt>
      <trkpt lat="45.14684" lon="3.40105">
        <ele>467.991</ele>
        <time>2020-08-17T15:17:29Z</time>
      </trkpt>
      <trkpt lat="45.14685" lon="3.40102">
        <ele>468.064</ele>
        <time>2020-08-17T15:17:32Z</time>
      </trkpt>
      <trkpt lat="45.14689" lon="3.40094">
        <ele>470.362</ele>
        <time>2020-08-17T15:17:38Z</time>
      </trkpt>
      <trkpt lat="45.14706" lon="3.40065">
        <ele>472.388</ele>
        <time>2020-08-17T15:18:02Z</time>
      </trkpt>
      <trkpt lat="45.14708" lon="3.40062">
        <ele>471.778</ele>
        <time>2020-08-17T15:18:06Z</time>
      </trkpt>
      <trkpt lat="45.14708" lon="3.40062">
        <ele>471.419</ele>
        <time>2020-08-17T15:18:07Z</time>
      </trkpt>
      <trkpt lat="45.1471" lon="3.40061">
        <ele>471.492</ele>
        <time>2020-08-17T15:18:11Z</time>
      </trkpt>
      <trkpt lat="45.1471" lon="3.40061">
        <ele>471.28</ele>
        <time>2020-08-17T15:18:13Z</time>
      </trkpt>
      <trkpt lat="45.1471" lon="3.40061">
        <ele>471.369</ele>
        <time>2020-08-17T15:18:20Z</time>
      </trkpt>
      <trkpt lat="45.1471" lon="3.4006">
        <ele>471.219</ele>
        <time>2020-08-17T15:18:21Z</time>
      </trkpt>
      <trkpt lat="45.14711" lon="3.40059">
        <ele>471.155</ele>
        <time>2020-08-17T15:18:22Z</time>
      </trkpt>
      <trkpt lat="45.14713" lon="3.40056">
        <ele>472.572</ele>
        <time>2020-08-17T15:18:24Z</time>
      </trkpt>
      <trkpt lat="45.14722" lon="3.40047">
        <ele>471.837</ele>
        <time>2020-08-17T15:18:33Z</time>
      </trkpt>
      <trkpt lat="45.14723" lon="3.40044">
        <ele>470.798</ele>
        <time>2020-08-17T15:18:35Z</time>
      </trkpt>
      <trkpt lat="45.14727" lon="3.40042">
        <ele>471.051</ele>
        <time>2020-08-17T15:18:38Z</time>
      </trkpt>
      <trkpt lat="45.14734" lon="3.4004">
        <ele>470.485</ele>
        <time>2020-08-17T15:18:44Z</time>
      </trkpt>
      <trkpt lat="45.14737" lon="3.40041">
        <ele>470.636</ele>
        <time>2020-08-17T15:18:46Z</time>
      </trkpt>
      <trkpt lat="45.1474" lon="3.40042">
        <ele>470.924</ele>
        <time>2020-08-17T15:18:49Z</time>
      </trkpt>
      <trkpt lat="45.1474" lon="3.40042">
        <ele>471.209</ele>
        <time>2020-08-17T15:18:50Z</time>
      </trkpt>
      <trkpt lat="45.14745" lon="3.40043">
        <ele>471.595</ele>
        <time>2020-08-17T15:18:53Z</time>
      </trkpt>
      <trkpt lat="45.1475" lon="3.40042">
        <ele>472.571</ele>
        <time>2020-08-17T15:18:56Z</time>
      </trkpt>
      <trkpt lat="45.14754" lon="3.4004">
        <ele>472.578</ele>
        <time>2020-08-17T15:18:58Z</time>
      </trkpt>
      <trkpt lat="45.14762" lon="3.40033">
        <ele>473.742</ele>
        <time>2020-08-17T15:19:03Z</time>
      </trkpt>
      <trkpt lat="45.14767" lon="3.40034">
        <ele>472.481</ele>
        <time>2020-08-17T15:19:08Z</time>
      </trkpt>
      <trkpt lat="45.14778" lon="3.40043">
        <ele>470.365</ele>
        <time>2020-08-17T15:19:21Z</time>
      </trkpt>
      <trkpt lat="45.1478" lon="3.40043">
        <ele>469.949</ele>
        <time>2020-08-17T15:19:24Z</time>
      </trkpt>
      <trkpt lat="45.14781" lon="3.40042">
        <ele>470.129</ele>
        <time>2020-08-17T15:19:26Z</time>
      </trkpt>
      <trkpt lat="45.14781" lon="3.40042">
        <ele>470.532</ele>
        <time>2020-08-17T15:19:29Z</time>
      </trkpt>
      <trkpt lat="45.14782" lon="3.40041">
        <ele>470.383</ele>
        <time>2020-08-17T15:19:30Z</time>
      </trkpt>
      <trkpt lat="45.14782" lon="3.40041">
        <ele>469.992</ele>
        <time>2020-08-17T15:19:31Z</time>
      </trkpt>
      <trkpt lat="45.14782" lon="3.40041">
        <ele>470.123</ele>
        <time>2020-08-17T15:19:46Z</time>
      </trkpt>
      <trkpt lat="45.14783" lon="3.40041">
        <ele>470.177</ele>
        <time>2020-08-17T15:19:47Z</time>
      </trkpt>
      <trkpt lat="45.14783" lon="3.40042">
        <ele>469.551</ele>
        <time>2020-08-17T15:19:48Z</time>
      </trkpt>
      <trkpt lat="45.14783" lon="3.40042">
        <ele>469.656</ele>
        <time>2020-08-17T15:19:49Z</time>
      </trkpt>
      <trkpt lat="45.14783" lon="3.40042">
        <ele>470.082</ele>
        <time>2020-08-17T15:19:51Z</time>
      </trkpt>
      <trkpt lat="45.14782" lon="3.40045">
        <ele>470.15</ele>
        <time>2020-08-17T15:19:52Z</time>
      </trkpt>
      <trkpt lat="45.14782" lon="3.40045">
        <ele>470.314</ele>
        <time>2020-08-17T15:19:54Z</time>
      </trkpt>
      <trkpt lat="45.14782" lon="3.40045">
        <ele>470.323</ele>
        <time>2020-08-17T15:20:44Z</time>
      </trkpt>
      <trkpt lat="45.14783" lon="3.40046">
        <ele>470.623</ele>
        <time>2020-08-17T15:20:45Z</time>
      </trkpt>
      <trkpt lat="45.14783" lon="3.40046">
        <ele>470.568</ele>
        <time>2020-08-17T15:20:47Z</time>
      </trkpt>
      <trkpt lat="45.14783" lon="3.40046">
        <ele>470.528</ele>
        <time>2020-08-17T15:20:58Z</time>
      </trkpt>
      <trkpt lat="45.14782" lon="3.40048">
        <ele>469.807</ele>
        <time>2020-08-17T15:20:59Z</time>
      </trkpt>
      <trkpt lat="45.14783" lon="3.40048">
        <ele>469.945</ele>
        <time>2020-08-17T15:21:00Z</time>
      </trkpt>
      <trkpt lat="45.14787" lon="3.40049">
        <ele>468.336</ele>
        <time>2020-08-17T15:21:05Z</time>
      </trkpt>
      <trkpt lat="45.14791" lon="3.40048">
        <ele>467.119</ele>
        <time>2020-08-17T15:21:09Z</time>
      </trkpt>
      <trkpt lat="45.14794" lon="3.4005">
        <ele>466.808</ele>
        <time>2020-08-17T15:21:13Z</time>
      </trkpt>
      <trkpt lat="45.14807" lon="3.40062">
        <ele>467.774</ele>
        <time>2020-08-17T15:21:27Z</time>
      </trkpt>
      <trkpt lat="45.14816" lon="3.40065">
        <ele>468.652</ele>
        <time>2020-08-17T15:21:34Z</time>
      </trkpt>
      <trkpt lat="45.1482" lon="3.40064">
        <ele>468.959</ele>
        <time>2020-08-17T15:21:37Z</time>
      </trkpt>
      <trkpt lat="45.14823" lon="3.40065">
        <ele>469.243</ele>
        <time>2020-08-17T15:21:39Z</time>
      </trkpt>
      <trkpt lat="45.14828" lon="3.4007">
        <ele>468.591</ele>
        <time>2020-08-17T15:21:43Z</time>
      </trkpt>
      <trkpt lat="45.14831" lon="3.40074">
        <ele>468.176</ele>
        <time>2020-08-17T15:21:45Z</time>
      </trkpt>
      <trkpt lat="45.1484" lon="3.40083">
        <ele>467.949</ele>
        <time>2020-08-17T15:21:51Z</time>
      </trkpt>
      <trkpt lat="45.14839" lon="3.40084">
        <ele>468.056</ele>
        <time>2020-08-17T15:21:54Z</time>
      </trkpt>
      <trkpt lat="45.14838" lon="3.40083">
        <ele>468.04</ele>
        <time>2020-08-17T15:21:56Z</time>
      </trkpt>
      <trkpt lat="45.1484" lon="3.40084">
        <ele>468.757</ele>
        <time>2020-08-17T15:21:59Z</time>
      </trkpt>
      <trkpt lat="45.14843" lon="3.40087">
        <ele>468.628</ele>
        <time>2020-08-17T15:22:01Z</time>
      </trkpt>
      <trkpt lat="45.14856" lon="3.40094">
        <ele>469.405</ele>
        <time>2020-08-17T15:22:10Z</time>
      </trkpt>
      <trkpt lat="45.1486" lon="3.40099">
        <ele>468.734</ele>
        <time>2020-08-17T15:22:13Z</time>
      </trkpt>
      <trkpt lat="45.1486" lon="3.40103">
        <ele>468.899</ele>
        <time>2020-08-17T15:22:15Z</time>
      </trkpt>
      <trkpt lat="45.14874" lon="3.40142">
        <ele>466.822</ele>
        <time>2020-08-17T15:22:37Z</time>
      </trkpt>
      <trkpt lat="45.14877" lon="3.4015">
        <ele>467.156</ele>
        <time>2020-08-17T15:22:43Z</time>
      </trkpt>
      <trkpt lat="45.1488" lon="3.40159">
        <ele>466.976</ele>
        <time>2020-08-17T15:22:49Z</time>
      </trkpt>
      <trkpt lat="45.14882" lon="3.40173">
        <ele>467.335</ele>
        <time>2020-08-17T15:23:00Z</time>
      </trkpt>
      <trkpt lat="45.14883" lon="3.40181">
        <ele>467.051</ele>
        <time>2020-08-17T15:23:05Z</time>
      </trkpt>
      <trkpt lat="45.14882" lon="3.40184">
        <ele>466.541</ele>
        <time>2020-08-17T15:23:08Z</time>
      </trkpt>
      <trkpt lat="45.1488" lon="3.40188">
        <ele>466.07</ele>
        <time>2020-08-17T15:23:11Z</time>
      </trkpt>
      <trkpt lat="45.1488" lon="3.40189">
        <ele>466.241</ele>
        <time>2020-08-17T15:23:12Z</time>
      </trkpt>
      <trkpt lat="45.14881" lon="3.40191">
        <ele>466.55</ele>
        <time>2020-08-17T15:23:15Z</time>
      </trkpt>
      <trkpt lat="45.14883" lon="3.40195">
        <ele>465.885</ele>
        <time>2020-08-17T15:23:18Z</time>
      </trkpt>
      <trkpt lat="45.14883" lon="3.40196">
        <ele>465.843</ele>
        <time>2020-08-17T15:23:19Z</time>
      </trkpt>
      <trkpt lat="45.14884" lon="3.40196">
        <ele>466.109</ele>
        <time>2020-08-17T15:23:20Z</time>
      </trkpt>
      <trkpt lat="45.14884" lon="3.40196">
        <ele>466.025</ele>
        <time>2020-08-17T15:23:21Z</time>
      </trkpt>
      <trkpt lat="45.14884" lon="3.40196">
        <ele>466.025</ele>
        <time>2020-08-17T15:23:21Z</time>
      </trkpt>
      <trkpt lat="45.14885" lon="3.40196">
        <ele>466.129</ele>
        <time>2020-08-17T15:23:22Z</time>
      </trkpt>
      <trkpt lat="45.14884" lon="3.40198">
        <ele>465.56</ele>
        <time>2020-08-17T15:23:26Z</time>
      </trkpt>
      <trkpt lat="45.14884" lon="3.40198">
        <ele>465.66</ele>
        <time>2020-08-17T15:23:31Z</time>
      </trkpt>
      <trkpt lat="45.14886" lon="3.402">
        <ele>465.525</ele>
        <time>2020-08-17T15:23:32Z</time>
      </trkpt>
      <trkpt lat="45.14885" lon="3.402">
        <ele>465.079</ele>
        <time>2020-08-17T15:23:33Z</time>
      </trkpt>
      <trkpt lat="45.14884" lon="3.40201">
        <ele>464.554</ele>
        <time>2020-08-17T15:23:34Z</time>
      </trkpt>
      <trkpt lat="45.14883" lon="3.40201">
        <ele>465.024</ele>
        <time>2020-08-17T15:23:36Z</time>
      </trkpt>
      <trkpt lat="45.14882" lon="3.40202">
        <ele>464.646</ele>
        <time>2020-08-17T15:23:39Z</time>
      </trkpt>
      <trkpt lat="45.14882" lon="3.40202">
        <ele>464.739</ele>
        <time>2020-08-17T15:23:42Z</time>
      </trkpt>
      <trkpt lat="45.14881" lon="3.40203">
        <ele>464.862</ele>
        <time>2020-08-17T15:23:43Z</time>
      </trkpt>
      <trkpt lat="45.14881" lon="3.40203">
        <ele>465.15</ele>
        <time>2020-08-17T15:23:44Z</time>
      </trkpt>
      <trkpt lat="45.14881" lon="3.40203">
        <ele>465.117</ele>
        <time>2020-08-17T15:23:46Z</time>
      </trkpt>
      <trkpt lat="45.1488" lon="3.40203">
        <ele>465.144</ele>
        <time>2020-08-17T15:23:47Z</time>
      </trkpt>
      <trkpt lat="45.14879" lon="3.40205">
        <ele>465.287</ele>
        <time>2020-08-17T15:23:50Z</time>
      </trkpt>
      <trkpt lat="45.14875" lon="3.40208">
        <ele>464.493</ele>
        <time>2020-08-17T15:23:55Z</time>
      </trkpt>
      <trkpt lat="45.14875" lon="3.40209">
        <ele>464.987</ele>
        <time>2020-08-17T15:23:57Z</time>
      </trkpt>
      <trkpt lat="45.14875" lon="3.40209">
        <ele>465.527</ele>
        <time>2020-08-17T15:23:58Z</time>
      </trkpt>
      <trkpt lat="45.14875" lon="3.40209">
        <ele>465.504</ele>
        <time>2020-08-17T15:24:13Z</time>
      </trkpt>
      <trkpt lat="45.14876" lon="3.40207">
        <ele>465.65</ele>
        <time>2020-08-17T15:24:14Z</time>
      </trkpt>
      <trkpt lat="45.14875" lon="3.40203">
        <ele>465.096</ele>
        <time>2020-08-17T15:24:18Z</time>
      </trkpt>
      <trkpt lat="45.14875" lon="3.40203">
        <ele>464.985</ele>
        <time>2020-08-17T15:24:19Z</time>
      </trkpt>
      <trkpt lat="45.14875" lon="3.40203">
        <ele>464.985</ele>
        <time>2020-08-17T15:24:19Z</time>
      </trkpt>
      <trkpt lat="45.14875" lon="3.40203">
        <ele>465.043</ele>
        <time>2020-08-17T15:24:20Z</time>
      </trkpt>
      <trkpt lat="45.14875" lon="3.40203">
        <ele>465.223</ele>
        <time>2020-08-17T15:24:22Z</time>
      </trkpt>
      <trkpt lat="45.14875" lon="3.40203">
        <ele>465.894</ele>
        <time>2020-08-17T15:24:23Z</time>
      </trkpt>
      <trkpt lat="45.14875" lon="3.40203">
        <ele>466.341</ele>
        <time>2020-08-17T15:24:24Z</time>
      </trkpt>
      <trkpt lat="45.14873" lon="3.40204">
        <ele>467.117</ele>
        <time>2020-08-17T15:24:26Z</time>
      </trkpt>
      <trkpt lat="45.14873" lon="3.40204">
        <ele>466.628</ele>
        <time>2020-08-17T15:24:27Z</time>
      </trkpt>
      <trkpt lat="45.14873" lon="3.40205">
        <ele>467.06</ele>
        <time>2020-08-17T15:24:28Z</time>
      </trkpt>
      <trkpt lat="45.14871" lon="3.40209">
        <ele>466.96</ele>
        <time>2020-08-17T15:24:31Z</time>
      </trkpt>
      <trkpt lat="45.14832" lon="3.40241">
        <ele>469.582</ele>
        <time>2020-08-17T15:25:10Z</time>
      </trkpt>
      <trkpt lat="45.14823" lon="3.40248">
        <ele>468.143</ele>
        <time>2020-08-17T15:25:20Z</time>
      </trkpt>
      <trkpt lat="45.14814" lon="3.40254">
        <ele>468.287</ele>
        <time>2020-08-17T15:25:29Z</time>
      </trkpt>
      <trkpt lat="45.14812" lon="3.40256">
        <ele>468.588</ele>
        <time>2020-08-17T15:25:32Z</time>
      </trkpt>
      <trkpt lat="45.14811" lon="3.40264">
        <ele>467.419</ele>
        <time>2020-08-17T15:25:40Z</time>
      </trkpt>
      <trkpt lat="45.14811" lon="3.40267">
        <ele>466.732</ele>
        <time>2020-08-17T15:25:43Z</time>
      </trkpt>
      <trkpt lat="45.1481" lon="3.4027">
        <ele>466.055</ele>
        <time>2020-08-17T15:25:46Z</time>
      </trkpt>
      <trkpt lat="45.14813" lon="3.40275">
        <ele>466.199</ele>
        <time>2020-08-17T15:25:56Z</time>
      </trkpt>
      <trkpt lat="45.14814" lon="3.4028">
        <ele>465.874</ele>
        <time>2020-08-17T15:26:00Z</time>
      </trkpt>
      <trkpt lat="45.14814" lon="3.40285">
        <ele>465.258</ele>
        <time>2020-08-17T15:26:05Z</time>
      </trkpt>
      <trkpt lat="45.14814" lon="3.40288">
        <ele>465.912</ele>
        <time>2020-08-17T15:26:08Z</time>
      </trkpt>
      <trkpt lat="45.14814" lon="3.40288">
        <ele>465.937</ele>
        <time>2020-08-17T15:26:09Z</time>
      </trkpt>
      <trkpt lat="45.14815" lon="3.40291">
        <ele>465.564</ele>
        <time>2020-08-17T15:26:13Z</time>
      </trkpt>
      <trkpt lat="45.14813" lon="3.40308">
        <ele>466.389</ele>
        <time>2020-08-17T15:26:23Z</time>
      </trkpt>
      <trkpt lat="45.14815" lon="3.40312">
        <ele>466.407</ele>
        <time>2020-08-17T15:26:26Z</time>
      </trkpt>
      <trkpt lat="45.14822" lon="3.40329">
        <ele>465.42</ele>
        <time>2020-08-17T15:26:42Z</time>
      </trkpt>
      <trkpt lat="45.14822" lon="3.40329">
        <ele>465.404</ele>
        <time>2020-08-17T15:26:43Z</time>
      </trkpt>
      <trkpt lat="45.14822" lon="3.40329">
        <ele>465.404</ele>
        <time>2020-08-17T15:26:43Z</time>
      </trkpt>
      <trkpt lat="45.14822" lon="3.40329">
        <ele>465.62</ele>
        <time>2020-08-17T15:26:44Z</time>
      </trkpt>
      <trkpt lat="45.14822" lon="3.40329">
        <ele>465.62</ele>
        <time>2020-08-17T15:26:44Z</time>
      </trkpt>
      <trkpt lat="45.14822" lon="3.40329">
        <ele>465.506</ele>
        <time>2020-08-17T15:26:45Z</time>
      </trkpt>
      <trkpt lat="45.14822" lon="3.40329">
        <ele>465.125</ele>
        <time>2020-08-17T15:26:48Z</time>
      </trkpt>
      <trkpt lat="45.14822" lon="3.4033">
        <ele>465.536</ele>
        <time>2020-08-17T15:26:49Z</time>
      </trkpt>
      <trkpt lat="45.14822" lon="3.4033">
        <ele>465.914</ele>
        <time>2020-08-17T15:26:50Z</time>
      </trkpt>
      <trkpt lat="45.14822" lon="3.4033">
        <ele>465.914</ele>
        <time>2020-08-17T15:26:50Z</time>
      </trkpt>
      <trkpt lat="45.14822" lon="3.40331">
        <ele>466.15</ele>
        <time>2020-08-17T15:26:51Z</time>
      </trkpt>
      <trkpt lat="45.14822" lon="3.40331">
        <ele>466.311</ele>
        <time>2020-08-17T15:26:52Z</time>
      </trkpt>
      <trkpt lat="45.14822" lon="3.40331">
        <ele>466.618</ele>
        <time>2020-08-17T15:26:53Z</time>
      </trkpt>
      <trkpt lat="45.14821" lon="3.40332">
        <ele>466.318</ele>
        <time>2020-08-17T15:26:54Z</time>
      </trkpt>
      <trkpt lat="45.14821" lon="3.40334">
        <ele>467.194</ele>
        <time>2020-08-17T15:26:58Z</time>
      </trkpt>
      <trkpt lat="45.14821" lon="3.40334">
        <ele>467.194</ele>
        <time>2020-08-17T15:26:58Z</time>
      </trkpt>
      <trkpt lat="45.14821" lon="3.40334">
        <ele>466.644</ele>
        <time>2020-08-17T15:26:59Z</time>
      </trkpt>
      <trkpt lat="45.14819" lon="3.40335">
        <ele>465.797</ele>
        <time>2020-08-17T15:27:02Z</time>
      </trkpt>
      <trkpt lat="45.14819" lon="3.40335">
        <ele>466.86</ele>
        <time>2020-08-17T15:27:04Z</time>
      </trkpt>
      <trkpt lat="45.14818" lon="3.40336">
        <ele>466.843</ele>
        <time>2020-08-17T15:27:06Z</time>
      </trkpt>
      <trkpt lat="45.14819" lon="3.40337">
        <ele>467.952</ele>
        <time>2020-08-17T15:27:13Z</time>
      </trkpt>
      <trkpt lat="45.14819" lon="3.40337">
        <ele>467.999</ele>
        <time>2020-08-17T15:27:14Z</time>
      </trkpt>
      <trkpt lat="45.14819" lon="3.40337">
        <ele>467.848</ele>
        <time>2020-08-17T15:27:55Z</time>
      </trkpt>
      <trkpt lat="45.14822" lon="3.40336">
        <ele>468.369</ele>
        <time>2020-08-17T15:27:56Z</time>
      </trkpt>
      <trkpt lat="45.14822" lon="3.40336">
        <ele>468.369</ele>
        <time>2020-08-17T15:27:56Z</time>
      </trkpt>
      <trkpt lat="45.14822" lon="3.40336">
        <ele>468.063</ele>
        <time>2020-08-17T15:27:57Z</time>
      </trkpt>
      <trkpt lat="45.14822" lon="3.40336">
        <ele>467.485</ele>
        <time>2020-08-17T15:27:58Z</time>
      </trkpt>
      <trkpt lat="45.14825" lon="3.40334">
        <ele>466.422</ele>
        <time>2020-08-17T15:28:02Z</time>
      </trkpt>
      <trkpt lat="45.14825" lon="3.40334">
        <ele>466.683</ele>
        <time>2020-08-17T15:28:03Z</time>
      </trkpt>
      <trkpt lat="45.14825" lon="3.40334">
        <ele>466.683</ele>
        <time>2020-08-17T15:28:03Z</time>
      </trkpt>
      <trkpt lat="45.14825" lon="3.40334">
        <ele>466.697</ele>
        <time>2020-08-17T15:28:04Z</time>
      </trkpt>
      <trkpt lat="45.14825" lon="3.40334">
        <ele>466.711</ele>
        <time>2020-08-17T15:28:07Z</time>
      </trkpt>
      <trkpt lat="45.14825" lon="3.40334">
        <ele>466.619</ele>
        <time>2020-08-17T15:28:08Z</time>
      </trkpt>
      <trkpt lat="45.14827" lon="3.40329">
        <ele>466.388</ele>
        <time>2020-08-17T15:28:12Z</time>
      </trkpt>
      <trkpt lat="45.14829" lon="3.40327">
        <ele>465.845</ele>
        <time>2020-08-17T15:28:15Z</time>
      </trkpt>
      <trkpt lat="45.1483" lon="3.40327">
        <ele>467.235</ele>
        <time>2020-08-17T15:28:17Z</time>
      </trkpt>
      <trkpt lat="45.1483" lon="3.40327">
        <ele>467.049</ele>
        <time>2020-08-17T15:28:18Z</time>
      </trkpt>
      <trkpt lat="45.1483" lon="3.40327">
        <ele>467.049</ele>
        <time>2020-08-17T15:28:18Z</time>
      </trkpt>
      <trkpt lat="45.1483" lon="3.40326">
        <ele>466.641</ele>
        <time>2020-08-17T15:28:19Z</time>
      </trkpt>
      <trkpt lat="45.1483" lon="3.40326">
        <ele>466.363</ele>
        <time>2020-08-17T15:28:20Z</time>
      </trkpt>
      <trkpt lat="45.14831" lon="3.40326">
        <ele>466.162</ele>
        <time>2020-08-17T15:28:21Z</time>
      </trkpt>
      <trkpt lat="45.14831" lon="3.40324">
        <ele>466.247</ele>
        <time>2020-08-17T15:28:23Z</time>
      </trkpt>
      <trkpt lat="45.14831" lon="3.40323">
        <ele>466.106</ele>
        <time>2020-08-17T15:28:24Z</time>
      </trkpt>
      <trkpt lat="45.14829" lon="3.40322">
        <ele>465.955</ele>
        <time>2020-08-17T15:28:27Z</time>
      </trkpt>
      <trkpt lat="45.14829" lon="3.40322">
        <ele>466.056</ele>
        <time>2020-08-17T15:28:28Z</time>
      </trkpt>
      <trkpt lat="45.14829" lon="3.40322">
        <ele>466.855</ele>
        <time>2020-08-17T15:29:45Z</time>
      </trkpt>
      <trkpt lat="45.1483" lon="3.40325">
        <ele>466.607</ele>
        <time>2020-08-17T15:29:46Z</time>
      </trkpt>
      <trkpt lat="45.14831" lon="3.40325">
        <ele>466.536</ele>
        <time>2020-08-17T15:29:47Z</time>
      </trkpt>
      <trkpt lat="45.14835" lon="3.40321">
        <ele>466.669</ele>
        <time>2020-08-17T15:29:51Z</time>
      </trkpt>
      <trkpt lat="45.1484" lon="3.40317">
        <ele>466.918</ele>
        <time>2020-08-17T15:29:55Z</time>
      </trkpt>
      <trkpt lat="45.14846" lon="3.40315">
        <ele>465.853</ele>
        <time>2020-08-17T15:30:00Z</time>
      </trkpt>
      <trkpt lat="45.14849" lon="3.40318">
        <ele>466.013</ele>
        <time>2020-08-17T15:30:03Z</time>
      </trkpt>
      <trkpt lat="45.14849" lon="3.40324">
        <ele>465.256</ele>
        <time>2020-08-17T15:30:08Z</time>
      </trkpt>
      <trkpt lat="45.14849" lon="3.40325">
        <ele>464.571</ele>
        <time>2020-08-17T15:30:09Z</time>
      </trkpt>
      <trkpt lat="45.14849" lon="3.40326">
        <ele>464.781</ele>
        <time>2020-08-17T15:30:10Z</time>
      </trkpt>
      <trkpt lat="45.1485" lon="3.40328">
        <ele>463.997</ele>
        <time>2020-08-17T15:30:13Z</time>
      </trkpt>
      <trkpt lat="45.14852" lon="3.40332">
        <ele>463.748</ele>
        <time>2020-08-17T15:30:16Z</time>
      </trkpt>
      <trkpt lat="45.14856" lon="3.40337">
        <ele>465.18</ele>
        <time>2020-08-17T15:30:21Z</time>
      </trkpt>
      <trkpt lat="45.1486" lon="3.40348">
        <ele>466.638</ele>
        <time>2020-08-17T15:30:32Z</time>
      </trkpt>
      <trkpt lat="45.14859" lon="3.40353">
        <ele>467.167</ele>
        <time>2020-08-17T15:30:39Z</time>
      </trkpt>
      <trkpt lat="45.14858" lon="3.40353">
        <ele>467.287</ele>
        <time>2020-08-17T15:30:41Z</time>
      </trkpt>
      <trkpt lat="45.14858" lon="3.40353">
        <ele>467.61</ele>
        <time>2020-08-17T15:30:42Z</time>
      </trkpt>
      <trkpt lat="45.14858" lon="3.40353">
        <ele>467.178</ele>
        <time>2020-08-17T15:30:43Z</time>
      </trkpt>
      <trkpt lat="45.14857" lon="3.40354">
        <ele>467.152</ele>
        <time>2020-08-17T15:30:44Z</time>
      </trkpt>
      <trkpt lat="45.14856" lon="3.40356">
        <ele>466.985</ele>
        <time>2020-08-17T15:30:45Z</time>
      </trkpt>
      <trkpt lat="45.14854" lon="3.4036">
        <ele>466.952</ele>
        <time>2020-08-17T15:30:47Z</time>
      </trkpt>
      <trkpt lat="45.1485" lon="3.4036">
        <ele>466.85</ele>
        <time>2020-08-17T15:30:49Z</time>
      </trkpt>
      <trkpt lat="45.14849" lon="3.40359">
        <ele>466.727</ele>
        <time>2020-08-17T15:30:50Z</time>
      </trkpt>
      <trkpt lat="45.14846" lon="3.40361">
        <ele>466.915</ele>
        <time>2020-08-17T15:30:53Z</time>
      </trkpt>
      <trkpt lat="45.14845" lon="3.40369">
        <ele>467.274</ele>
        <time>2020-08-17T15:30:59Z</time>
      </trkpt>
      <trkpt lat="45.14845" lon="3.40371">
        <ele>467.313</ele>
        <time>2020-08-17T15:31:03Z</time>
      </trkpt>
      <trkpt lat="45.14844" lon="3.40369">
        <ele>467.774</ele>
        <time>2020-08-17T15:31:06Z</time>
      </trkpt>
      <trkpt lat="45.14844" lon="3.40369">
        <ele>467.774</ele>
        <time>2020-08-17T15:31:06Z</time>
      </trkpt>
      <trkpt lat="45.14843" lon="3.40368">
        <ele>467.727</ele>
        <time>2020-08-17T15:31:07Z</time>
      </trkpt>
      <trkpt lat="45.14843" lon="3.40368">
        <ele>467.903</ele>
        <time>2020-08-17T15:31:08Z</time>
      </trkpt>
      <trkpt lat="45.14843" lon="3.40369">
        <ele>467.817</ele>
        <time>2020-08-17T15:31:09Z</time>
      </trkpt>
      <trkpt lat="45.14843" lon="3.4037">
        <ele>468.217</ele>
        <time>2020-08-17T15:31:11Z</time>
      </trkpt>
      <trkpt lat="45.14846" lon="3.40371">
        <ele>468.166</ele>
        <time>2020-08-17T15:31:14Z</time>
      </trkpt>
      <trkpt lat="45.14849" lon="3.4037">
        <ele>468.235</ele>
        <time>2020-08-17T15:31:17Z</time>
      </trkpt>
      <trkpt lat="45.14852" lon="3.40372">
        <ele>468.161</ele>
        <time>2020-08-17T15:31:20Z</time>
      </trkpt>
      <trkpt lat="45.14854" lon="3.40373">
        <ele>468.132</ele>
        <time>2020-08-17T15:31:22Z</time>
      </trkpt>
      <trkpt lat="45.14857" lon="3.40376">
        <ele>468.788</ele>
        <time>2020-08-17T15:31:26Z</time>
      </trkpt>
      <trkpt lat="45.14859" lon="3.40378">
        <ele>468.787</ele>
        <time>2020-08-17T15:31:29Z</time>
      </trkpt>
      <trkpt lat="45.14861" lon="3.40382">
        <ele>468.985</ele>
        <time>2020-08-17T15:31:32Z</time>
      </trkpt>
      <trkpt lat="45.14864" lon="3.40389">
        <ele>469.637</ele>
        <time>2020-08-17T15:31:36Z</time>
      </trkpt>
      <trkpt lat="45.14868" lon="3.40393">
        <ele>470.379</ele>
        <time>2020-08-17T15:31:42Z</time>
      </trkpt>
      <trkpt lat="45.14868" lon="3.40393">
        <ele>470.379</ele>
        <time>2020-08-17T15:31:42Z</time>
      </trkpt>
      <trkpt lat="45.14868" lon="3.40394">
        <ele>470.618</ele>
        <time>2020-08-17T15:31:43Z</time>
      </trkpt>
      <trkpt lat="45.14868" lon="3.40396">
        <ele>470.688</ele>
        <time>2020-08-17T15:31:44Z</time>
      </trkpt>
      <trkpt lat="45.14867" lon="3.40398">
        <ele>470.916</ele>
        <time>2020-08-17T15:31:45Z</time>
      </trkpt>
      <trkpt lat="45.14869" lon="3.40402">
        <ele>470.733</ele>
        <time>2020-08-17T15:31:47Z</time>
      </trkpt>
      <trkpt lat="45.14874" lon="3.40414">
        <ele>469.734</ele>
        <time>2020-08-17T15:31:56Z</time>
      </trkpt>
      <trkpt lat="45.14875" lon="3.40417">
        <ele>469.672</ele>
        <time>2020-08-17T15:31:59Z</time>
      </trkpt>
      <trkpt lat="45.14877" lon="3.40425">
        <ele>468.545</ele>
        <time>2020-08-17T15:32:04Z</time>
      </trkpt>
      <trkpt lat="45.14885" lon="3.40437">
        <ele>468.754</ele>
        <time>2020-08-17T15:32:12Z</time>
      </trkpt>
      <trkpt lat="45.14886" lon="3.40441">
        <ele>469.428</ele>
        <time>2020-08-17T15:32:15Z</time>
      </trkpt>
      <trkpt lat="45.14886" lon="3.40442">
        <ele>468.928</ele>
        <time>2020-08-17T15:32:17Z</time>
      </trkpt>
      <trkpt lat="45.14886" lon="3.40444">
        <ele>469.514</ele>
        <time>2020-08-17T15:32:19Z</time>
      </trkpt>
      <trkpt lat="45.14888" lon="3.40448">
        <ele>468.493</ele>
        <time>2020-08-17T15:32:22Z</time>
      </trkpt>
      <trkpt lat="45.1489" lon="3.40454">
        <ele>468.219</ele>
        <time>2020-08-17T15:32:25Z</time>
      </trkpt>
      <trkpt lat="45.14897" lon="3.40462">
        <ele>464.958</ele>
        <time>2020-08-17T15:32:30Z</time>
      </trkpt>
      <trkpt lat="45.149" lon="3.40466">
        <ele>463.946</ele>
        <time>2020-08-17T15:32:34Z</time>
      </trkpt>
      <trkpt lat="45.14902" lon="3.4047">
        <ele>464.69</ele>
        <time>2020-08-17T15:32:39Z</time>
      </trkpt>
      <trkpt lat="45.14902" lon="3.40472">
        <ele>466.029</ele>
        <time>2020-08-17T15:32:43Z</time>
      </trkpt>
      <trkpt lat="45.14902" lon="3.40472">
        <ele>466.263</ele>
        <time>2020-08-17T15:33:02Z</time>
      </trkpt>
      <trkpt lat="45.14903" lon="3.40475">
        <ele>465.975</ele>
        <time>2020-08-17T15:33:03Z</time>
      </trkpt>
      <trkpt lat="45.14903" lon="3.40475">
        <ele>465.646</ele>
        <time>2020-08-17T15:33:04Z</time>
      </trkpt>
      <trkpt lat="45.14904" lon="3.40479">
        <ele>465.462</ele>
        <time>2020-08-17T15:33:07Z</time>
      </trkpt>
      <trkpt lat="45.14909" lon="3.40486">
        <ele>465.193</ele>
        <time>2020-08-17T15:33:11Z</time>
      </trkpt>
      <trkpt lat="45.14918" lon="3.40497">
        <ele>465.702</ele>
        <time>2020-08-17T15:33:19Z</time>
      </trkpt>
      <trkpt lat="45.1492" lon="3.40501">
        <ele>466.575</ele>
        <time>2020-08-17T15:33:22Z</time>
      </trkpt>
      <trkpt lat="45.1493" lon="3.40516">
        <ele>468.625</ele>
        <time>2020-08-17T15:33:34Z</time>
      </trkpt>
      <trkpt lat="45.14934" lon="3.40521">
        <ele>468.446</ele>
        <time>2020-08-17T15:33:40Z</time>
      </trkpt>
      <trkpt lat="45.14941" lon="3.40532">
        <ele>470.71</ele>
        <time>2020-08-17T15:33:49Z</time>
      </trkpt>
      <trkpt lat="45.14946" lon="3.40547">
        <ele>472.426</ele>
        <time>2020-08-17T15:34:03Z</time>
      </trkpt>
      <trkpt lat="45.14946" lon="3.40547">
        <ele>472.426</ele>
        <time>2020-08-17T15:34:03Z</time>
      </trkpt>
      <trkpt lat="45.14946" lon="3.40548">
        <ele>472.472</ele>
        <time>2020-08-17T15:34:04Z</time>
      </trkpt>
      <trkpt lat="45.14947" lon="3.4055">
        <ele>471.961</ele>
        <time>2020-08-17T15:34:09Z</time>
      </trkpt>
      <trkpt lat="45.14947" lon="3.4055">
        <ele>471.954</ele>
        <time>2020-08-17T15:34:11Z</time>
      </trkpt>
      <trkpt lat="45.14947" lon="3.40551">
        <ele>471.933</ele>
        <time>2020-08-17T15:34:12Z</time>
      </trkpt>
      <trkpt lat="45.14948" lon="3.40553">
        <ele>471.987</ele>
        <time>2020-08-17T15:34:14Z</time>
      </trkpt>
      <trkpt lat="45.14949" lon="3.40554">
        <ele>472.67</ele>
        <time>2020-08-17T15:34:16Z</time>
      </trkpt>
      <trkpt lat="45.1495" lon="3.40558">
        <ele>473.345</ele>
        <time>2020-08-17T15:34:19Z</time>
      </trkpt>
      <trkpt lat="45.14953" lon="3.40565">
        <ele>473.568</ele>
        <time>2020-08-17T15:34:24Z</time>
      </trkpt>
      <trkpt lat="45.14955" lon="3.40568">
        <ele>473.401</ele>
        <time>2020-08-17T15:34:27Z</time>
      </trkpt>
      <trkpt lat="45.14962" lon="3.40588">
        <ele>474.087</ele>
        <time>2020-08-17T15:34:39Z</time>
      </trkpt>
      <trkpt lat="45.14962" lon="3.40597">
        <ele>474.65</ele>
        <time>2020-08-17T15:34:45Z</time>
      </trkpt>
      <trkpt lat="45.14963" lon="3.40602">
        <ele>475.561</ele>
        <time>2020-08-17T15:34:49Z</time>
      </trkpt>
      <trkpt lat="45.14967" lon="3.40612">
        <ele>475.462</ele>
        <time>2020-08-17T15:34:56Z</time>
      </trkpt>
      <trkpt lat="45.14968" lon="3.40615">
        <ele>476.26</ele>
        <time>2020-08-17T15:34:59Z</time>
      </trkpt>
      <trkpt lat="45.14968" lon="3.40615">
        <ele>476.293</ele>
        <time>2020-08-17T15:35:00Z</time>
      </trkpt>
      <trkpt lat="45.14968" lon="3.40615">
        <ele>476.293</ele>
        <time>2020-08-17T15:35:00Z</time>
      </trkpt>
      <trkpt lat="45.14968" lon="3.40615">
        <ele>476.526</ele>
        <time>2020-08-17T15:35:01Z</time>
      </trkpt>
      <trkpt lat="45.14968" lon="3.40615">
        <ele>476.771</ele>
        <time>2020-08-17T15:35:02Z</time>
      </trkpt>
      <trkpt lat="45.14968" lon="3.40615">
        <ele>476.771</ele>
        <time>2020-08-17T15:35:02Z</time>
      </trkpt>
      <trkpt lat="45.14968" lon="3.40615">
        <ele>476.874</ele>
        <time>2020-08-17T15:35:03Z</time>
      </trkpt>
      <trkpt lat="45.14969" lon="3.40616">
        <ele>476.98</ele>
        <time>2020-08-17T15:35:04Z</time>
      </trkpt>
      <trkpt lat="45.14971" lon="3.4062">
        <ele>477.239</ele>
        <time>2020-08-17T15:35:07Z</time>
      </trkpt>
      <trkpt lat="45.14973" lon="3.40625">
        <ele>477.426</ele>
        <time>2020-08-17T15:35:10Z</time>
      </trkpt>
      <trkpt lat="45.14976" lon="3.40633">
        <ele>477.901</ele>
        <time>2020-08-17T15:35:15Z</time>
      </trkpt>
      <trkpt lat="45.14976" lon="3.40633">
        <ele>478.417</ele>
        <time>2020-08-17T15:35:16Z</time>
      </trkpt>
      <trkpt lat="45.14989" lon="3.40656">
        <ele>479.148</ele>
        <time>2020-08-17T15:35:29Z</time>
      </trkpt>
      <trkpt lat="45.14992" lon="3.40658">
        <ele>479.222</ele>
        <time>2020-08-17T15:35:31Z</time>
      </trkpt>
      <trkpt lat="45.14993" lon="3.40659">
        <ele>479.194</ele>
        <time>2020-08-17T15:35:33Z</time>
      </trkpt>
      <trkpt lat="45.14993" lon="3.4066">
        <ele>479.335</ele>
        <time>2020-08-17T15:35:34Z</time>
      </trkpt>
      <trkpt lat="45.14992" lon="3.40664">
        <ele>479.9</ele>
        <time>2020-08-17T15:35:37Z</time>
      </trkpt>
      <trkpt lat="45.14991" lon="3.40669">
        <ele>479.87</ele>
        <time>2020-08-17T15:35:40Z</time>
      </trkpt>
      <trkpt lat="45.14992" lon="3.40694">
        <ele>481.244</ele>
        <time>2020-08-17T15:35:53Z</time>
      </trkpt>
      <trkpt lat="45.14994" lon="3.4071">
        <ele>481.46</ele>
        <time>2020-08-17T15:36:00Z</time>
      </trkpt>
      <trkpt lat="45.14995" lon="3.40714">
        <ele>481.978</ele>
        <time>2020-08-17T15:36:02Z</time>
      </trkpt>
      <trkpt lat="45.14998" lon="3.40722">
        <ele>482.563</ele>
        <time>2020-08-17T15:36:07Z</time>
      </trkpt>
      <trkpt lat="45.1502" lon="3.40768">
        <ele>483.638</ele>
        <time>2020-08-17T15:36:41Z</time>
      </trkpt>
      <trkpt lat="45.15044" lon="3.40851">
        <ele>485.645</ele>
        <time>2020-08-17T15:37:33Z</time>
      </trkpt>
      <trkpt lat="45.15044" lon="3.40857">
        <ele>485.822</ele>
        <time>2020-08-17T15:37:36Z</time>
      </trkpt>
      <trkpt lat="45.15044" lon="3.40912">
        <ele>487.796</ele>
        <time>2020-08-17T15:38:04Z</time>
      </trkpt>
      <trkpt lat="45.15046" lon="3.40937">
        <ele>489.977</ele>
        <time>2020-08-17T15:38:20Z</time>
      </trkpt>
      <trkpt lat="45.15048" lon="3.40942">
        <ele>490.436</ele>
        <time>2020-08-17T15:38:24Z</time>
      </trkpt>
      <trkpt lat="45.15048" lon="3.40943">
        <ele>490.561</ele>
        <time>2020-08-17T15:38:25Z</time>
      </trkpt>
      <trkpt lat="45.15053" lon="3.40961">
        <ele>490.05</ele>
        <time>2020-08-17T15:38:37Z</time>
      </trkpt>
      <trkpt lat="45.15065" lon="3.40995">
        <ele>491.045</ele>
        <time>2020-08-17T15:38:59Z</time>
      </trkpt>
      <trkpt lat="45.15067" lon="3.41">
        <ele>490.628</ele>
        <time>2020-08-17T15:39:03Z</time>
      </trkpt>
      <trkpt lat="45.1507" lon="3.41004">
        <ele>490.711</ele>
        <time>2020-08-17T15:39:06Z</time>
      </trkpt>
      <trkpt lat="45.15072" lon="3.41006">
        <ele>490.751</ele>
        <time>2020-08-17T15:39:08Z</time>
      </trkpt>
      <trkpt lat="45.15073" lon="3.41007">
        <ele>491.295</ele>
        <time>2020-08-17T15:39:10Z</time>
      </trkpt>
      <trkpt lat="45.15075" lon="3.41008">
        <ele>491.859</ele>
        <time>2020-08-17T15:39:12Z</time>
      </trkpt>
      <trkpt lat="45.15076" lon="3.41009">
        <ele>491.19</ele>
        <time>2020-08-17T15:39:15Z</time>
      </trkpt>
      <trkpt lat="45.15077" lon="3.4101">
        <ele>491.419</ele>
        <time>2020-08-17T15:39:18Z</time>
      </trkpt>
      <trkpt lat="45.15077" lon="3.4101">
        <ele>491.32</ele>
        <time>2020-08-17T15:39:19Z</time>
      </trkpt>
      <trkpt lat="45.15077" lon="3.41013">
        <ele>491.126</ele>
        <time>2020-08-17T15:39:22Z</time>
      </trkpt>
      <trkpt lat="45.15078" lon="3.41015">
        <ele>491.43</ele>
        <time>2020-08-17T15:39:24Z</time>
      </trkpt>
      <trkpt lat="45.15086" lon="3.41026">
        <ele>491.389</ele>
        <time>2020-08-17T15:39:32Z</time>
      </trkpt>
      <trkpt lat="45.15087" lon="3.41027">
        <ele>491.698</ele>
        <time>2020-08-17T15:39:33Z</time>
      </trkpt>
      <trkpt lat="45.15102" lon="3.41045">
        <ele>491.704</ele>
        <time>2020-08-17T15:39:49Z</time>
      </trkpt>
      <trkpt lat="45.15105" lon="3.41044">
        <ele>491.788</ele>
        <time>2020-08-17T15:39:51Z</time>
      </trkpt>
      <trkpt lat="45.15108" lon="3.41047">
        <ele>492.414</ele>
        <time>2020-08-17T15:39:55Z</time>
      </trkpt>
      <trkpt lat="45.15113" lon="3.41053">
        <ele>492.327</ele>
        <time>2020-08-17T15:40:03Z</time>
      </trkpt>
      <trkpt lat="45.15116" lon="3.41055">
        <ele>492.261</ele>
        <time>2020-08-17T15:40:06Z</time>
      </trkpt>
      <trkpt lat="45.15128" lon="3.41065">
        <ele>493.023</ele>
        <time>2020-08-17T15:40:18Z</time>
      </trkpt>
      <trkpt lat="45.15147" lon="3.41094">
        <ele>493.673</ele>
        <time>2020-08-17T15:40:40Z</time>
      </trkpt>
      <trkpt lat="45.15149" lon="3.41102">
        <ele>493.54</ele>
        <time>2020-08-17T15:40:44Z</time>
      </trkpt>
      <trkpt lat="45.15148" lon="3.41107">
        <ele>493.864</ele>
        <time>2020-08-17T15:40:46Z</time>
      </trkpt>
      <trkpt lat="45.15143" lon="3.41122">
        <ele>495.058</ele>
        <time>2020-08-17T15:40:57Z</time>
      </trkpt>
      <trkpt lat="45.15132" lon="3.41139">
        <ele>497.286</ele>
        <time>2020-08-17T15:41:10Z</time>
      </trkpt>
      <trkpt lat="45.15132" lon="3.41145">
        <ele>497.195</ele>
        <time>2020-08-17T15:41:14Z</time>
      </trkpt>
      <trkpt lat="45.15133" lon="3.4115">
        <ele>496.843</ele>
        <time>2020-08-17T15:41:17Z</time>
      </trkpt>
      <trkpt lat="45.15137" lon="3.41157">
        <ele>498.862</ele>
        <time>2020-08-17T15:41:23Z</time>
      </trkpt>
      <trkpt lat="45.15141" lon="3.41163">
        <ele>499.718</ele>
        <time>2020-08-17T15:41:31Z</time>
      </trkpt>
      <trkpt lat="45.15144" lon="3.41166">
        <ele>500.562</ele>
        <time>2020-08-17T15:41:34Z</time>
      </trkpt>
      <trkpt lat="45.15147" lon="3.41169">
        <ele>501.182</ele>
        <time>2020-08-17T15:41:37Z</time>
      </trkpt>
      <trkpt lat="45.15157" lon="3.41178">
        <ele>503.578</ele>
        <time>2020-08-17T15:41:48Z</time>
      </trkpt>
      <trkpt lat="45.15173" lon="3.4119">
        <ele>505.761</ele>
        <time>2020-08-17T15:42:02Z</time>
      </trkpt>
      <trkpt lat="45.15185" lon="3.41203">
        <ele>506.725</ele>
        <time>2020-08-17T15:42:14Z</time>
      </trkpt>
      <trkpt lat="45.15194" lon="3.41218">
        <ele>507.608</ele>
        <time>2020-08-17T15:42:26Z</time>
      </trkpt>
      <trkpt lat="45.15196" lon="3.41227">
        <ele>507.932</ele>
        <time>2020-08-17T15:42:32Z</time>
      </trkpt>
      <trkpt lat="45.15197" lon="3.4123">
        <ele>508.187</ele>
        <time>2020-08-17T15:42:35Z</time>
      </trkpt>
      <trkpt lat="45.15198" lon="3.41231">
        <ele>508.37</ele>
        <time>2020-08-17T15:42:36Z</time>
      </trkpt>
      <trkpt lat="45.15199" lon="3.41232">
        <ele>508.911</ele>
        <time>2020-08-17T15:42:38Z</time>
      </trkpt>
      <trkpt lat="45.15201" lon="3.41228">
        <ele>509.588</ele>
        <time>2020-08-17T15:42:42Z</time>
      </trkpt>
      <trkpt lat="45.15201" lon="3.41223">
        <ele>510.16</ele>
        <time>2020-08-17T15:42:46Z</time>
      </trkpt>
      <trkpt lat="45.152" lon="3.41211">
        <ele>510.854</ele>
        <time>2020-08-17T15:42:54Z</time>
      </trkpt>
      <trkpt lat="45.15203" lon="3.41199">
        <ele>510.701</ele>
        <time>2020-08-17T15:43:03Z</time>
      </trkpt>
      <trkpt lat="45.15203" lon="3.41199">
        <ele>511.326</ele>
        <time>2020-08-17T15:43:05Z</time>
      </trkpt>
      <trkpt lat="45.15203" lon="3.41199">
        <ele>511.797</ele>
        <time>2020-08-17T15:43:07Z</time>
      </trkpt>
      <trkpt lat="45.15204" lon="3.41199">
        <ele>511.946</ele>
        <time>2020-08-17T15:43:08Z</time>
      </trkpt>
      <trkpt lat="45.15204" lon="3.41199">
        <ele>512.129</ele>
        <time>2020-08-17T15:43:09Z</time>
      </trkpt>
      <trkpt lat="45.15204" lon="3.41199">
        <ele>512.105</ele>
        <time>2020-08-17T15:43:15Z</time>
      </trkpt>
      <trkpt lat="45.15204" lon="3.41198">
        <ele>512.478</ele>
        <time>2020-08-17T15:43:16Z</time>
      </trkpt>
      <trkpt lat="45.15204" lon="3.41199">
        <ele>512.131</ele>
        <time>2020-08-17T15:43:17Z</time>
      </trkpt>
      <trkpt lat="45.15202" lon="3.41206">
        <ele>513.441</ele>
        <time>2020-08-17T15:43:21Z</time>
      </trkpt>
      <trkpt lat="45.15202" lon="3.41211">
        <ele>513.721</ele>
        <time>2020-08-17T15:43:24Z</time>
      </trkpt>
      <trkpt lat="45.15203" lon="3.41227">
        <ele>514.186</ele>
        <time>2020-08-17T15:43:32Z</time>
      </trkpt>
      <trkpt lat="45.152" lon="3.41242">
        <ele>514.187</ele>
        <time>2020-08-17T15:43:40Z</time>
      </trkpt>
      <trkpt lat="45.15198" lon="3.41249">
        <ele>514.802</ele>
        <time>2020-08-17T15:43:44Z</time>
      </trkpt>
      <trkpt lat="45.15199" lon="3.41254">
        <ele>515.173</ele>
        <time>2020-08-17T15:43:47Z</time>
      </trkpt>
      <trkpt lat="45.15202" lon="3.4127">
        <ele>514.513</ele>
        <time>2020-08-17T15:43:58Z</time>
      </trkpt>
      <trkpt lat="45.15208" lon="3.41291">
        <ele>515.266</ele>
        <time>2020-08-17T15:44:12Z</time>
      </trkpt>
      <trkpt lat="45.1521" lon="3.41301">
        <ele>517.47</ele>
        <time>2020-08-17T15:44:19Z</time>
      </trkpt>
      <trkpt lat="45.15215" lon="3.41321">
        <ele>517.927</ele>
        <time>2020-08-17T15:44:32Z</time>
      </trkpt>
      <trkpt lat="45.15215" lon="3.41325">
        <ele>518.06</ele>
        <time>2020-08-17T15:44:35Z</time>
      </trkpt>
      <trkpt lat="45.15222" lon="3.41366">
        <ele>518.429</ele>
        <time>2020-08-17T15:45:00Z</time>
      </trkpt>
      <trkpt lat="45.15223" lon="3.4137">
        <ele>518.143</ele>
        <time>2020-08-17T15:45:03Z</time>
      </trkpt>
      <trkpt lat="45.15226" lon="3.41387">
        <ele>520.422</ele>
        <time>2020-08-17T15:45:13Z</time>
      </trkpt>
      <trkpt lat="45.15227" lon="3.41392">
        <ele>520.288</ele>
        <time>2020-08-17T15:45:16Z</time>
      </trkpt>
      <trkpt lat="45.15228" lon="3.41398">
        <ele>521.342</ele>
        <time>2020-08-17T15:45:20Z</time>
      </trkpt>
      <trkpt lat="45.15231" lon="3.41429">
        <ele>523.521</ele>
        <time>2020-08-17T15:45:39Z</time>
      </trkpt>
      <trkpt lat="45.15231" lon="3.4143">
        <ele>523.518</ele>
        <time>2020-08-17T15:45:41Z</time>
      </trkpt>
      <trkpt lat="45.15231" lon="3.4143">
        <ele>523.518</ele>
        <time>2020-08-17T15:45:41Z</time>
      </trkpt>
      <trkpt lat="45.15231" lon="3.41431">
        <ele>523.441</ele>
        <time>2020-08-17T15:45:42Z</time>
      </trkpt>
      <trkpt lat="45.15231" lon="3.41433">
        <ele>524.151</ele>
        <time>2020-08-17T15:45:45Z</time>
      </trkpt>
      <trkpt lat="45.15231" lon="3.41439">
        <ele>524.463</ele>
        <time>2020-08-17T15:45:49Z</time>
      </trkpt>
      <trkpt lat="45.15231" lon="3.4149">
        <ele>524.852</ele>
        <time>2020-08-17T15:46:20Z</time>
      </trkpt>
      <trkpt lat="45.1523" lon="3.4149">
        <ele>525.499</ele>
        <time>2020-08-17T15:46:22Z</time>
      </trkpt>
      <trkpt lat="45.1523" lon="3.4149">
        <ele>525.499</ele>
        <time>2020-08-17T15:46:22Z</time>
      </trkpt>
      <trkpt lat="45.1523" lon="3.41491">
        <ele>525.965</ele>
        <time>2020-08-17T15:46:23Z</time>
      </trkpt>
      <trkpt lat="45.1523" lon="3.41492">
        <ele>526.057</ele>
        <time>2020-08-17T15:46:24Z</time>
      </trkpt>
      <trkpt lat="45.15231" lon="3.41494">
        <ele>526.013</ele>
        <time>2020-08-17T15:46:25Z</time>
      </trkpt>
      <trkpt lat="45.15232" lon="3.41529">
        <ele>526.659</ele>
        <time>2020-08-17T15:46:45Z</time>
      </trkpt>
      <trkpt lat="45.15233" lon="3.41529">
        <ele>526.924</ele>
        <time>2020-08-17T15:46:48Z</time>
      </trkpt>
      <trkpt lat="45.15233" lon="3.41529">
        <ele>526.924</ele>
        <time>2020-08-17T15:46:48Z</time>
      </trkpt>
      <trkpt lat="45.15234" lon="3.4153">
        <ele>526.9</ele>
        <time>2020-08-17T15:46:49Z</time>
      </trkpt>
      <trkpt lat="45.15234" lon="3.4153">
        <ele>526.958</ele>
        <time>2020-08-17T15:46:50Z</time>
      </trkpt>
      <trkpt lat="45.15233" lon="3.41535">
        <ele>526.936</ele>
        <time>2020-08-17T15:46:53Z</time>
      </trkpt>
      <trkpt lat="45.1524" lon="3.41563">
        <ele>526.825</ele>
        <time>2020-08-17T15:47:09Z</time>
      </trkpt>
      <trkpt lat="45.15251" lon="3.41604">
        <ele>528.25</ele>
        <time>2020-08-17T15:47:37Z</time>
      </trkpt>
      <trkpt lat="45.15255" lon="3.4161">
        <ele>529.09</ele>
        <time>2020-08-17T15:47:42Z</time>
      </trkpt>
      <trkpt lat="45.15262" lon="3.41612">
        <ele>528.761</ele>
        <time>2020-08-17T15:47:50Z</time>
      </trkpt>
      <trkpt lat="45.15274" lon="3.41618">
        <ele>529.024</ele>
        <time>2020-08-17T15:48:01Z</time>
      </trkpt>
      <trkpt lat="45.15294" lon="3.41645">
        <ele>529.656</ele>
        <time>2020-08-17T15:48:16Z</time>
      </trkpt>
      <trkpt lat="45.15298" lon="3.41646">
        <ele>529.589</ele>
        <time>2020-08-17T15:48:20Z</time>
      </trkpt>
      <trkpt lat="45.15298" lon="3.41646">
        <ele>529.848</ele>
        <time>2020-08-17T15:48:21Z</time>
      </trkpt>
      <trkpt lat="45.15298" lon="3.41646">
        <ele>529.848</ele>
        <time>2020-08-17T15:48:21Z</time>
      </trkpt>
      <trkpt lat="45.15298" lon="3.41645">
        <ele>530.3</ele>
        <time>2020-08-17T15:48:22Z</time>
      </trkpt>
      <trkpt lat="45.15298" lon="3.41646">
        <ele>530.187</ele>
        <time>2020-08-17T15:48:25Z</time>
      </trkpt>
      <trkpt lat="45.15298" lon="3.41646">
        <ele>530.187</ele>
        <time>2020-08-17T15:48:25Z</time>
      </trkpt>
      <trkpt lat="45.15298" lon="3.41646">
        <ele>530.46</ele>
        <time>2020-08-17T15:48:26Z</time>
      </trkpt>
      <trkpt lat="45.15298" lon="3.41646">
        <ele>530.089</ele>
        <time>2020-08-17T15:48:28Z</time>
      </trkpt>
      <trkpt lat="45.15298" lon="3.41646">
        <ele>530.089</ele>
        <time>2020-08-17T15:48:28Z</time>
      </trkpt>
      <trkpt lat="45.15298" lon="3.41646">
        <ele>530.211</ele>
        <time>2020-08-17T15:48:29Z</time>
      </trkpt>
      <trkpt lat="45.15298" lon="3.41646">
        <ele>530.036</ele>
        <time>2020-08-17T15:48:30Z</time>
      </trkpt>
      <trkpt lat="45.15298" lon="3.41645">
        <ele>529.711</ele>
        <time>2020-08-17T15:48:31Z</time>
      </trkpt>
      <trkpt lat="45.15298" lon="3.41645">
        <ele>529.764</ele>
        <time>2020-08-17T15:48:32Z</time>
      </trkpt>
      <trkpt lat="45.15298" lon="3.41645">
        <ele>529.651</ele>
        <time>2020-08-17T15:48:34Z</time>
      </trkpt>
      <trkpt lat="45.15298" lon="3.41645">
        <ele>529.524</ele>
        <time>2020-08-17T15:48:35Z</time>
      </trkpt>
      <trkpt lat="45.15308" lon="3.41651">
        <ele>530.02</ele>
        <time>2020-08-17T15:48:44Z</time>
      </trkpt>
      <trkpt lat="45.15323" lon="3.41658">
        <ele>528.645</ele>
        <time>2020-08-17T15:48:58Z</time>
      </trkpt>
      <trkpt lat="45.15331" lon="3.41667">
        <ele>528.493</ele>
        <time>2020-08-17T15:49:08Z</time>
      </trkpt>
      <trkpt lat="45.15335" lon="3.4167">
        <ele>528.422</ele>
        <time>2020-08-17T15:49:11Z</time>
      </trkpt>
      <trkpt lat="45.15344" lon="3.41677">
        <ele>528.128</ele>
        <time>2020-08-17T15:49:20Z</time>
      </trkpt>
      <trkpt lat="45.1535" lon="3.41681">
        <ele>528.803</ele>
        <time>2020-08-17T15:49:26Z</time>
      </trkpt>
      <trkpt lat="45.15381" lon="3.41705">
        <ele>528.655</ele>
        <time>2020-08-17T15:49:49Z</time>
      </trkpt>
      <trkpt lat="45.15382" lon="3.41707">
        <ele>528.585</ele>
        <time>2020-08-17T15:49:50Z</time>
      </trkpt>
      <trkpt lat="45.15393" lon="3.41717">
        <ele>527.911</ele>
        <time>2020-08-17T15:50:02Z</time>
      </trkpt>
      <trkpt lat="45.15396" lon="3.4172">
        <ele>527.555</ele>
        <time>2020-08-17T15:50:05Z</time>
      </trkpt>
      <trkpt lat="45.15398" lon="3.41721">
        <ele>527.667</ele>
        <time>2020-08-17T15:50:08Z</time>
      </trkpt>
      <trkpt lat="45.15399" lon="3.41721">
        <ele>527.576</ele>
        <time>2020-08-17T15:50:10Z</time>
      </trkpt>
      <trkpt lat="45.154" lon="3.41723">
        <ele>527.388</ele>
        <time>2020-08-17T15:50:12Z</time>
      </trkpt>
      <trkpt lat="45.15402" lon="3.41724">
        <ele>526.995</ele>
        <time>2020-08-17T15:50:14Z</time>
      </trkpt>
      <trkpt lat="45.15405" lon="3.41726">
        <ele>527.053</ele>
        <time>2020-08-17T15:50:16Z</time>
      </trkpt>
      <trkpt lat="45.1541" lon="3.41729">
        <ele>527.541</ele>
        <time>2020-08-17T15:50:19Z</time>
      </trkpt>
      <trkpt lat="45.15412" lon="3.41733">
        <ele>527.392</ele>
        <time>2020-08-17T15:50:21Z</time>
      </trkpt>
      <trkpt lat="45.15417" lon="3.41741">
        <ele>527.472</ele>
        <time>2020-08-17T15:50:25Z</time>
      </trkpt>
      <trkpt lat="45.1542" lon="3.41744">
        <ele>527.778</ele>
        <time>2020-08-17T15:50:29Z</time>
      </trkpt>
      <trkpt lat="45.1542" lon="3.41748">
        <ele>528.049</ele>
        <time>2020-08-17T15:50:32Z</time>
      </trkpt>
      <trkpt lat="45.15422" lon="3.41753">
        <ele>527.862</ele>
        <time>2020-08-17T15:50:35Z</time>
      </trkpt>
      <trkpt lat="45.15425" lon="3.41759">
        <ele>527.48</ele>
        <time>2020-08-17T15:50:39Z</time>
      </trkpt>
      <trkpt lat="45.15428" lon="3.41763">
        <ele>527.812</ele>
        <time>2020-08-17T15:50:44Z</time>
      </trkpt>
      <trkpt lat="45.15463" lon="3.4179">
        <ele>528.052</ele>
        <time>2020-08-17T15:51:17Z</time>
      </trkpt>
      <trkpt lat="45.15486" lon="3.41822">
        <ele>526.615</ele>
        <time>2020-08-17T15:51:45Z</time>
      </trkpt>
      <trkpt lat="45.15492" lon="3.41829">
        <ele>524.295</ele>
        <time>2020-08-17T15:51:53Z</time>
      </trkpt>
      <trkpt lat="45.15496" lon="3.41842">
        <ele>523.604</ele>
        <time>2020-08-17T15:52:02Z</time>
      </trkpt>
      <trkpt lat="45.15497" lon="3.41846">
        <ele>523.008</ele>
        <time>2020-08-17T15:52:06Z</time>
      </trkpt>
      <trkpt lat="45.15499" lon="3.4185">
        <ele>523.237</ele>
        <time>2020-08-17T15:52:09Z</time>
      </trkpt>
      <trkpt lat="45.15502" lon="3.41855">
        <ele>522.597</ele>
        <time>2020-08-17T15:52:13Z</time>
      </trkpt>
      <trkpt lat="45.15504" lon="3.41858">
        <ele>522.199</ele>
        <time>2020-08-17T15:52:16Z</time>
      </trkpt>
      <trkpt lat="45.15508" lon="3.41861">
        <ele>522.07</ele>
        <time>2020-08-17T15:52:20Z</time>
      </trkpt>
      <trkpt lat="45.1551" lon="3.41862">
        <ele>521.9</ele>
        <time>2020-08-17T15:52:23Z</time>
      </trkpt>
      <trkpt lat="45.15511" lon="3.41863">
        <ele>521.971</ele>
        <time>2020-08-17T15:52:24Z</time>
      </trkpt>
      <trkpt lat="45.15515" lon="3.41867">
        <ele>522.257</ele>
        <time>2020-08-17T15:52:28Z</time>
      </trkpt>
      <trkpt lat="45.15517" lon="3.4187">
        <ele>522.18</ele>
        <time>2020-08-17T15:52:31Z</time>
      </trkpt>
      <trkpt lat="45.15519" lon="3.41875">
        <ele>522.326</ele>
        <time>2020-08-17T15:52:36Z</time>
      </trkpt>
      <trkpt lat="45.15522" lon="3.41878">
        <ele>522.058</ele>
        <time>2020-08-17T15:52:40Z</time>
      </trkpt>
      <trkpt lat="45.15523" lon="3.41881">
        <ele>521.703</ele>
        <time>2020-08-17T15:52:42Z</time>
      </trkpt>
      <trkpt lat="45.15532" lon="3.4189">
        <ele>521.418</ele>
        <time>2020-08-17T15:52:49Z</time>
      </trkpt>
      <trkpt lat="45.15534" lon="3.41893">
        <ele>521.442</ele>
        <time>2020-08-17T15:52:51Z</time>
      </trkpt>
      <trkpt lat="45.1554" lon="3.41901">
        <ele>521.784</ele>
        <time>2020-08-17T15:52:55Z</time>
      </trkpt>
      <trkpt lat="45.15541" lon="3.41902">
        <ele>521.8</ele>
        <time>2020-08-17T15:52:56Z</time>
      </trkpt>
      <trkpt lat="45.15543" lon="3.41905">
        <ele>522.342</ele>
        <time>2020-08-17T15:52:58Z</time>
      </trkpt>
      <trkpt lat="45.15553" lon="3.41921">
        <ele>523.062</ele>
        <time>2020-08-17T15:53:08Z</time>
      </trkpt>
      <trkpt lat="45.15555" lon="3.41924">
        <ele>522.942</ele>
        <time>2020-08-17T15:53:11Z</time>
      </trkpt>
      <trkpt lat="45.15556" lon="3.41927">
        <ele>522.061</ele>
        <time>2020-08-17T15:53:13Z</time>
      </trkpt>
      <trkpt lat="45.15557" lon="3.41929">
        <ele>522.138</ele>
        <time>2020-08-17T15:53:14Z</time>
      </trkpt>
      <trkpt lat="45.15558" lon="3.41932">
        <ele>521.854</ele>
        <time>2020-08-17T15:53:16Z</time>
      </trkpt>
      <trkpt lat="45.1556" lon="3.41935">
        <ele>521.63</ele>
        <time>2020-08-17T15:53:19Z</time>
      </trkpt>
      <trkpt lat="45.15562" lon="3.4194">
        <ele>521.293</ele>
        <time>2020-08-17T15:53:22Z</time>
      </trkpt>
      <trkpt lat="45.15566" lon="3.41945">
        <ele>521.31</ele>
        <time>2020-08-17T15:53:26Z</time>
      </trkpt>
      <trkpt lat="45.15567" lon="3.41947">
        <ele>521.41</ele>
        <time>2020-08-17T15:53:28Z</time>
      </trkpt>
      <trkpt lat="45.15567" lon="3.41948">
        <ele>521.411</ele>
        <time>2020-08-17T15:53:29Z</time>
      </trkpt>
      <trkpt lat="45.15572" lon="3.41962">
        <ele>521.818</ele>
        <time>2020-08-17T15:53:39Z</time>
      </trkpt>
      <trkpt lat="45.15574" lon="3.41964">
        <ele>521.735</ele>
        <time>2020-08-17T15:53:41Z</time>
      </trkpt>
      <trkpt lat="45.15575" lon="3.41969">
        <ele>520.996</ele>
        <time>2020-08-17T15:53:45Z</time>
      </trkpt>
      <trkpt lat="45.15578" lon="3.41979">
        <ele>519.926</ele>
        <time>2020-08-17T15:53:51Z</time>
      </trkpt>
      <trkpt lat="45.15581" lon="3.41983">
        <ele>519.934</ele>
        <time>2020-08-17T15:53:54Z</time>
      </trkpt>
      <trkpt lat="45.15587" lon="3.41999">
        <ele>519.317</ele>
        <time>2020-08-17T15:54:04Z</time>
      </trkpt>
      <trkpt lat="45.1559" lon="3.42003">
        <ele>519.244</ele>
        <time>2020-08-17T15:54:08Z</time>
      </trkpt>
      <trkpt lat="45.15599" lon="3.4201">
        <ele>519.994</ele>
        <time>2020-08-17T15:54:16Z</time>
      </trkpt>
      <trkpt lat="45.15609" lon="3.42019">
        <ele>519.535</ele>
        <time>2020-08-17T15:54:23Z</time>
      </trkpt>
      <trkpt lat="45.15624" lon="3.42032">
        <ele>518.709</ele>
        <time>2020-08-17T15:54:37Z</time>
      </trkpt>
      <trkpt lat="45.15626" lon="3.42034">
        <ele>517.77</ele>
        <time>2020-08-17T15:54:39Z</time>
      </trkpt>
      <trkpt lat="45.15629" lon="3.42036">
        <ele>517.356</ele>
        <time>2020-08-17T15:54:41Z</time>
      </trkpt>
      <trkpt lat="45.15638" lon="3.42039">
        <ele>516.255</ele>
        <time>2020-08-17T15:54:49Z</time>
      </trkpt>
      <trkpt lat="45.15651" lon="3.42036">
        <ele>516.496</ele>
        <time>2020-08-17T15:55:01Z</time>
      </trkpt>
      <trkpt lat="45.15669" lon="3.42036">
        <ele>514.975</ele>
        <time>2020-08-17T15:55:13Z</time>
      </trkpt>
      <trkpt lat="45.15672" lon="3.42037">
        <ele>515.147</ele>
        <time>2020-08-17T15:55:16Z</time>
      </trkpt>
      <trkpt lat="45.15675" lon="3.42038">
        <ele>515.607</ele>
        <time>2020-08-17T15:55:19Z</time>
      </trkpt>
      <trkpt lat="45.1568" lon="3.42041">
        <ele>515.85</ele>
        <time>2020-08-17T15:55:24Z</time>
      </trkpt>
      <trkpt lat="45.15685" lon="3.42044">
        <ele>515.32</ele>
        <time>2020-08-17T15:55:28Z</time>
      </trkpt>
      <trkpt lat="45.15687" lon="3.42047">
        <ele>514.602</ele>
        <time>2020-08-17T15:55:31Z</time>
      </trkpt>
      <trkpt lat="45.15689" lon="3.42051">
        <ele>514.413</ele>
        <time>2020-08-17T15:55:34Z</time>
      </trkpt>
      <trkpt lat="45.15689" lon="3.42062">
        <ele>514.924</ele>
        <time>2020-08-17T15:55:40Z</time>
      </trkpt>
      <trkpt lat="45.15693" lon="3.42104">
        <ele>512.913</ele>
        <time>2020-08-17T15:56:05Z</time>
      </trkpt>
      <trkpt lat="45.15695" lon="3.4211">
        <ele>512.01</ele>
        <time>2020-08-17T15:56:09Z</time>
      </trkpt>
      <trkpt lat="45.15712" lon="3.42154">
        <ele>511.236</ele>
        <time>2020-08-17T15:56:35Z</time>
      </trkpt>
      <trkpt lat="45.15722" lon="3.42171">
        <ele>510.121</ele>
        <time>2020-08-17T15:56:49Z</time>
      </trkpt>
      <trkpt lat="45.15742" lon="3.42209">
        <ele>509.731</ele>
        <time>2020-08-17T15:57:19Z</time>
      </trkpt>
      <trkpt lat="45.1575" lon="3.42221">
        <ele>508.799</ele>
        <time>2020-08-17T15:57:29Z</time>
      </trkpt>
      <trkpt lat="45.15754" lon="3.42227">
        <ele>509.088</ele>
        <time>2020-08-17T15:57:33Z</time>
      </trkpt>
      <trkpt lat="45.15756" lon="3.4223">
        <ele>508.917</ele>
        <time>2020-08-17T15:57:36Z</time>
      </trkpt>
      <trkpt lat="45.15767" lon="3.42268">
        <ele>508.592</ele>
        <time>2020-08-17T15:57:58Z</time>
      </trkpt>
      <trkpt lat="45.1578" lon="3.42318">
        <ele>508.41</ele>
        <time>2020-08-17T15:58:25Z</time>
      </trkpt>
      <trkpt lat="45.15786" lon="3.42327">
        <ele>508.928</ele>
        <time>2020-08-17T15:58:32Z</time>
      </trkpt>
      <trkpt lat="45.15804" lon="3.42355">
        <ele>508.646</ele>
        <time>2020-08-17T15:58:54Z</time>
      </trkpt>
      <trkpt lat="45.15807" lon="3.42363">
        <ele>508.381</ele>
        <time>2020-08-17T15:58:59Z</time>
      </trkpt>
      <trkpt lat="45.1581" lon="3.4239">
        <ele>506.941</ele>
        <time>2020-08-17T15:59:13Z</time>
      </trkpt>
      <trkpt lat="45.15808" lon="3.42451">
        <ele>507.25</ele>
        <time>2020-08-17T15:59:47Z</time>
      </trkpt>
      <trkpt lat="45.15808" lon="3.42454">
        <ele>507.522</ele>
        <time>2020-08-17T15:59:49Z</time>
      </trkpt>
      <trkpt lat="45.15815" lon="3.42499">
        <ele>508.158</ele>
        <time>2020-08-17T16:00:12Z</time>
      </trkpt>
      <trkpt lat="45.1583" lon="3.42552">
        <ele>506.569</ele>
        <time>2020-08-17T16:00:47Z</time>
      </trkpt>
      <trkpt lat="45.15834" lon="3.42591">
        <ele>504.495</ele>
        <time>2020-08-17T16:01:09Z</time>
      </trkpt>
      <trkpt lat="45.15839" lon="3.42712">
        <ele>506.541</ele>
        <time>2020-08-17T16:02:22Z</time>
      </trkpt>
      <trkpt lat="45.15846" lon="3.42737">
        <ele>506.461</ele>
        <time>2020-08-17T16:02:38Z</time>
      </trkpt>
      <trkpt lat="45.15852" lon="3.42753">
        <ele>506.656</ele>
        <time>2020-08-17T16:02:51Z</time>
      </trkpt>
      <trkpt lat="45.15864" lon="3.42769">
        <ele>506.545</ele>
        <time>2020-08-17T16:03:04Z</time>
      </trkpt>
      <trkpt lat="45.15866" lon="3.42775">
        <ele>505.712</ele>
        <time>2020-08-17T16:03:08Z</time>
      </trkpt>
      <trkpt lat="45.15867" lon="3.42785">
        <ele>505.721</ele>
        <time>2020-08-17T16:03:14Z</time>
      </trkpt>
      <trkpt lat="45.15861" lon="3.4282">
        <ele>504.778</ele>
        <time>2020-08-17T16:03:33Z</time>
      </trkpt>
      <trkpt lat="45.15849" lon="3.42867">
        <ele>504.507</ele>
        <time>2020-08-17T16:04:01Z</time>
      </trkpt>
      <trkpt lat="45.15842" lon="3.4289">
        <ele>506.508</ele>
        <time>2020-08-17T16:04:21Z</time>
      </trkpt>
      <trkpt lat="45.15842" lon="3.42896">
        <ele>506.917</ele>
        <time>2020-08-17T16:04:25Z</time>
      </trkpt>
      <trkpt lat="45.1584" lon="3.42922">
        <ele>509.138</ele>
        <time>2020-08-17T16:04:44Z</time>
      </trkpt>
      <trkpt lat="45.15839" lon="3.42929">
        <ele>510.405</ele>
        <time>2020-08-17T16:04:52Z</time>
      </trkpt>
      <trkpt lat="45.15839" lon="3.42936">
        <ele>511.49</ele>
        <time>2020-08-17T16:04:57Z</time>
      </trkpt>
      <trkpt lat="45.1584" lon="3.42946">
        <ele>512.104</ele>
        <time>2020-08-17T16:05:05Z</time>
      </trkpt>
      <trkpt lat="45.15839" lon="3.42946">
        <ele>512.56</ele>
        <time>2020-08-17T16:05:07Z</time>
      </trkpt>
      <trkpt lat="45.15833" lon="3.42966">
        <ele>514.569</ele>
        <time>2020-08-17T16:05:20Z</time>
      </trkpt>
      <trkpt lat="45.15822" lon="3.42998">
        <ele>515.925</ele>
        <time>2020-08-17T16:05:47Z</time>
      </trkpt>
      <trkpt lat="45.1582" lon="3.43015">
        <ele>518.013</ele>
        <time>2020-08-17T16:05:57Z</time>
      </trkpt>
      <trkpt lat="45.1582" lon="3.43026">
        <ele>518.919</ele>
        <time>2020-08-17T16:06:03Z</time>
      </trkpt>
      <trkpt lat="45.15823" lon="3.43043">
        <ele>521.057</ele>
        <time>2020-08-17T16:06:16Z</time>
      </trkpt>
      <trkpt lat="45.15824" lon="3.4306">
        <ele>521.605</ele>
        <time>2020-08-17T16:06:27Z</time>
      </trkpt>
      <trkpt lat="45.15825" lon="3.43068">
        <ele>522.27</ele>
        <time>2020-08-17T16:06:31Z</time>
      </trkpt>
      <trkpt lat="45.15826" lon="3.4307">
        <ele>522.261</ele>
        <time>2020-08-17T16:06:32Z</time>
      </trkpt>
      <trkpt lat="45.15827" lon="3.43078">
        <ele>522.624</ele>
        <time>2020-08-17T16:06:36Z</time>
      </trkpt>
      <trkpt lat="45.1583" lon="3.4309">
        <ele>523.428</ele>
        <time>2020-08-17T16:06:45Z</time>
      </trkpt>
      <trkpt lat="45.15832" lon="3.43094">
        <ele>524.566</ele>
        <time>2020-08-17T16:06:48Z</time>
      </trkpt>
      <trkpt lat="45.15836" lon="3.43121">
        <ele>526.629</ele>
        <time>2020-08-17T16:07:03Z</time>
      </trkpt>
      <trkpt lat="45.15837" lon="3.43138">
        <ele>528.851</ele>
        <time>2020-08-17T16:07:13Z</time>
      </trkpt>
      <trkpt lat="45.15838" lon="3.43152">
        <ele>529.875</ele>
        <time>2020-08-17T16:07:19Z</time>
      </trkpt>
      <trkpt lat="45.15844" lon="3.43201">
        <ele>532.007</ele>
        <time>2020-08-17T16:07:52Z</time>
      </trkpt>
      <trkpt lat="45.15845" lon="3.43218">
        <ele>534.358</ele>
        <time>2020-08-17T16:08:00Z</time>
      </trkpt>
      <trkpt lat="45.15845" lon="3.43243">
        <ele>536.48</ele>
        <time>2020-08-17T16:08:12Z</time>
      </trkpt>
      <trkpt lat="45.15847" lon="3.4329">
        <ele>534.823</ele>
        <time>2020-08-17T16:08:40Z</time>
      </trkpt>
      <trkpt lat="45.1584" lon="3.43329">
        <ele>536.754</ele>
        <time>2020-08-17T16:09:03Z</time>
      </trkpt>
      <trkpt lat="45.15833" lon="3.43362">
        <ele>536.971</ele>
        <time>2020-08-17T16:09:23Z</time>
      </trkpt>
      <trkpt lat="45.15831" lon="3.43382">
        <ele>538.976</ele>
        <time>2020-08-17T16:09:33Z</time>
      </trkpt>
      <trkpt lat="45.15827" lon="3.43409">
        <ele>539.922</ele>
        <time>2020-08-17T16:09:47Z</time>
      </trkpt>
      <trkpt lat="45.15825" lon="3.43428">
        <ele>538.932</ele>
        <time>2020-08-17T16:09:57Z</time>
      </trkpt>
      <trkpt lat="45.15825" lon="3.43432">
        <ele>538.075</ele>
        <time>2020-08-17T16:09:59Z</time>
      </trkpt>
      <trkpt lat="45.15819" lon="3.43497">
        <ele>538.42</ele>
        <time>2020-08-17T16:10:36Z</time>
      </trkpt>
      <trkpt lat="45.15818" lon="3.43511">
        <ele>538.666</ele>
        <time>2020-08-17T16:10:44Z</time>
      </trkpt>
      <trkpt lat="45.15814" lon="3.43539">
        <ele>538.069</ele>
        <time>2020-08-17T16:11:00Z</time>
      </trkpt>
      <trkpt lat="45.15813" lon="3.43543">
        <ele>538.1</ele>
        <time>2020-08-17T16:11:02Z</time>
      </trkpt>
      <trkpt lat="45.1581" lon="3.43545">
        <ele>537.606</ele>
        <time>2020-08-17T16:11:04Z</time>
      </trkpt>
      <trkpt lat="45.15804" lon="3.43547">
        <ele>537.029</ele>
        <time>2020-08-17T16:11:08Z</time>
      </trkpt>
      <trkpt lat="45.15782" lon="3.43548">
        <ele>536.772</ele>
        <time>2020-08-17T16:11:25Z</time>
      </trkpt>
      <trkpt lat="45.15766" lon="3.43547">
        <ele>535.608</ele>
        <time>2020-08-17T16:11:36Z</time>
      </trkpt>
      <trkpt lat="45.15757" lon="3.43547">
        <ele>535.842</ele>
        <time>2020-08-17T16:11:43Z</time>
      </trkpt>
      <trkpt lat="45.15754" lon="3.43545">
        <ele>536.306</ele>
        <time>2020-08-17T16:11:47Z</time>
      </trkpt>
      <trkpt lat="45.15754" lon="3.43545">
        <ele>536.306</ele>
        <time>2020-08-17T16:11:47Z</time>
      </trkpt>
      <trkpt lat="45.15754" lon="3.43545">
        <ele>536.254</ele>
        <time>2020-08-17T16:11:48Z</time>
      </trkpt>
      <trkpt lat="45.15754" lon="3.43545">
        <ele>536.806</ele>
        <time>2020-08-17T16:11:50Z</time>
      </trkpt>
      <trkpt lat="45.15754" lon="3.43545">
        <ele>536.63</ele>
        <time>2020-08-17T16:11:54Z</time>
      </trkpt>
      <trkpt lat="45.15755" lon="3.43546">
        <ele>536.643</ele>
        <time>2020-08-17T16:11:55Z</time>
      </trkpt>
      <trkpt lat="45.15751" lon="3.43547">
        <ele>535.565</ele>
        <time>2020-08-17T16:12:02Z</time>
      </trkpt>
      <trkpt lat="45.15751" lon="3.43547">
        <ele>535.755</ele>
        <time>2020-08-17T16:12:25Z</time>
      </trkpt>
      <trkpt lat="45.1575" lon="3.43546">
        <ele>535.89</ele>
        <time>2020-08-17T16:12:26Z</time>
      </trkpt>
      <trkpt lat="45.15751" lon="3.43545">
        <ele>535.454</ele>
        <time>2020-08-17T16:12:27Z</time>
      </trkpt>
      <trkpt lat="45.15751" lon="3.43545">
        <ele>535.273</ele>
        <time>2020-08-17T16:12:28Z</time>
      </trkpt>
      <trkpt lat="45.15752" lon="3.43543">
        <ele>535.381</ele>
        <time>2020-08-17T16:12:30Z</time>
      </trkpt>
      <trkpt lat="45.15752" lon="3.43542">
        <ele>535.232</ele>
        <time>2020-08-17T16:12:31Z</time>
      </trkpt>
      <trkpt lat="45.15752" lon="3.43542">
        <ele>535.061</ele>
        <time>2020-08-17T16:12:32Z</time>
      </trkpt>
      <trkpt lat="45.15752" lon="3.43542">
        <ele>535.061</ele>
        <time>2020-08-17T16:12:32Z</time>
      </trkpt>
      <trkpt lat="45.15752" lon="3.43542">
        <ele>535.086</ele>
        <time>2020-08-17T16:12:33Z</time>
      </trkpt>
      <trkpt lat="45.1575" lon="3.43542">
        <ele>535.053</ele>
        <time>2020-08-17T16:12:37Z</time>
      </trkpt>
      <trkpt lat="45.15749" lon="3.43542">
        <ele>535.795</ele>
        <time>2020-08-17T16:12:38Z</time>
      </trkpt>
      <trkpt lat="45.15749" lon="3.43542">
        <ele>536.128</ele>
        <time>2020-08-17T16:12:39Z</time>
      </trkpt>
      <trkpt lat="45.15749" lon="3.43542">
        <ele>535.818</ele>
        <time>2020-08-17T16:12:58Z</time>
      </trkpt>
      <trkpt lat="45.15747" lon="3.43546">
        <ele>535.174</ele>
        <time>2020-08-17T16:12:59Z</time>
      </trkpt>
      <trkpt lat="45.15747" lon="3.43546">
        <ele>535.174</ele>
        <time>2020-08-17T16:12:59Z</time>
      </trkpt>
      <trkpt lat="45.15747" lon="3.43546">
        <ele>535.385</ele>
        <time>2020-08-17T16:13:00Z</time>
      </trkpt>
      <trkpt lat="45.15747" lon="3.43546">
        <ele>535.943</ele>
        <time>2020-08-17T16:13:03Z</time>
      </trkpt>
      <trkpt lat="45.15747" lon="3.43547">
        <ele>535.871</ele>
        <time>2020-08-17T16:13:04Z</time>
      </trkpt>
      <trkpt lat="45.15746" lon="3.43546">
        <ele>535.274</ele>
        <time>2020-08-17T16:13:06Z</time>
      </trkpt>
      <trkpt lat="45.15748" lon="3.43546">
        <ele>535.636</ele>
        <time>2020-08-17T16:13:10Z</time>
      </trkpt>
      <trkpt lat="45.15748" lon="3.43546">
        <ele>535.2</ele>
        <time>2020-08-17T16:13:20Z</time>
      </trkpt>
      <trkpt lat="45.15749" lon="3.43547">
        <ele>534.454</ele>
        <time>2020-08-17T16:13:21Z</time>
      </trkpt>
      <trkpt lat="45.15749" lon="3.43547">
        <ele>534.454</ele>
        <time>2020-08-17T16:13:21Z</time>
      </trkpt>
      <trkpt lat="45.15749" lon="3.43547">
        <ele>534.146</ele>
        <time>2020-08-17T16:13:22Z</time>
      </trkpt>
      <trkpt lat="45.15749" lon="3.43547">
        <ele>534.146</ele>
        <time>2020-08-17T16:13:22Z</time>
      </trkpt>
      <trkpt lat="45.15749" lon="3.43547">
        <ele>534.324</ele>
        <time>2020-08-17T16:13:23Z</time>
      </trkpt>
      <trkpt lat="45.15749" lon="3.43547">
        <ele>533.535</ele>
        <time>2020-08-17T16:13:24Z</time>
      </trkpt>
      <trkpt lat="45.15749" lon="3.43547">
        <ele>533.535</ele>
        <time>2020-08-17T16:13:24Z</time>
      </trkpt>
      <trkpt lat="45.15749" lon="3.43547">
        <ele>533.396</ele>
        <time>2020-08-17T16:13:25Z</time>
      </trkpt>
      <trkpt lat="45.15749" lon="3.43547">
        <ele>532.678</ele>
        <time>2020-08-17T16:13:28Z</time>
      </trkpt>
      <trkpt lat="45.15749" lon="3.43547">
        <ele>532.47</ele>
        <time>2020-08-17T16:13:29Z</time>
      </trkpt>
      <trkpt lat="45.15749" lon="3.43547">
        <ele>531.639</ele>
        <time>2020-08-17T16:13:38Z</time>
      </trkpt>
      <trkpt lat="45.15749" lon="3.43545">
        <ele>531.98</ele>
        <time>2020-08-17T16:13:39Z</time>
      </trkpt>
      <trkpt lat="45.1575" lon="3.43544">
        <ele>532.074</ele>
        <time>2020-08-17T16:13:41Z</time>
      </trkpt>
      <trkpt lat="45.1575" lon="3.43544">
        <ele>530.983</ele>
        <time>2020-08-17T16:13:43Z</time>
      </trkpt>
      <trkpt lat="45.15751" lon="3.43544">
        <ele>530.726</ele>
        <time>2020-08-17T16:13:44Z</time>
      </trkpt>
      <trkpt lat="45.15751" lon="3.43544">
        <ele>531.342</ele>
        <time>2020-08-17T16:13:46Z</time>
      </trkpt>
      <trkpt lat="45.15751" lon="3.43544">
        <ele>530.726</ele>
        <time>2020-08-17T16:13:49Z</time>
      </trkpt>
      <trkpt lat="45.15752" lon="3.43545">
        <ele>529.125</ele>
        <time>2020-08-17T16:13:50Z</time>
      </trkpt>
      <trkpt lat="45.15752" lon="3.43545">
        <ele>529.354</ele>
        <time>2020-08-17T16:13:51Z</time>
      </trkpt>
      <trkpt lat="45.15752" lon="3.43545">
        <ele>529.354</ele>
        <time>2020-08-17T16:13:51Z</time>
      </trkpt>
      <trkpt lat="45.15752" lon="3.43543">
        <ele>528.89</ele>
        <time>2020-08-17T16:13:52Z</time>
      </trkpt>
      <trkpt lat="45.15753" lon="3.43543">
        <ele>529.476</ele>
        <time>2020-08-17T16:13:55Z</time>
      </trkpt>
      <trkpt lat="45.15753" lon="3.43543">
        <ele>529.337</ele>
        <time>2020-08-17T16:13:56Z</time>
      </trkpt>
      <trkpt lat="45.15753" lon="3.43543">
        <ele>528.665</ele>
        <time>2020-08-17T16:14:14Z</time>
      </trkpt>
      <trkpt lat="45.15752" lon="3.43545">
        <ele>528.514</ele>
        <time>2020-08-17T16:14:15Z</time>
      </trkpt>
      <trkpt lat="45.15752" lon="3.43546">
        <ele>530.118</ele>
        <time>2020-08-17T16:14:16Z</time>
      </trkpt>
      <trkpt lat="45.15752" lon="3.43547">
        <ele>530.089</ele>
        <time>2020-08-17T16:14:17Z</time>
      </trkpt>
      <trkpt lat="45.15752" lon="3.43548">
        <ele>529.215</ele>
        <time>2020-08-17T16:14:19Z</time>
      </trkpt>
      <trkpt lat="45.15752" lon="3.43548">
        <ele>529.445</ele>
        <time>2020-08-17T16:14:24Z</time>
      </trkpt>
      <trkpt lat="45.15752" lon="3.43548">
        <ele>527.392</ele>
        <time>2020-08-17T16:14:25Z</time>
      </trkpt>
      <trkpt lat="45.15756" lon="3.43548">
        <ele>525.725</ele>
        <time>2020-08-17T16:14:27Z</time>
      </trkpt>
      <trkpt lat="45.15759" lon="3.43548">
        <ele>525.167</ele>
        <time>2020-08-17T16:14:28Z</time>
      </trkpt>
      <trkpt lat="45.15778" lon="3.43546">
        <ele>524.401</ele>
        <time>2020-08-17T16:14:35Z</time>
      </trkpt>
      <trkpt lat="45.15779" lon="3.43546">
        <ele>524.949</ele>
        <time>2020-08-17T16:14:36Z</time>
      </trkpt>
      <trkpt lat="45.15785" lon="3.43546">
        <ele>524.896</ele>
        <time>2020-08-17T16:14:39Z</time>
      </trkpt>
      <trkpt lat="45.15788" lon="3.43546">
        <ele>525.08</ele>
        <time>2020-08-17T16:14:41Z</time>
      </trkpt>
      <trkpt lat="45.15795" lon="3.43546">
        <ele>525.305</ele>
        <time>2020-08-17T16:14:47Z</time>
      </trkpt>
      <trkpt lat="45.15798" lon="3.43547">
        <ele>526.104</ele>
        <time>2020-08-17T16:14:50Z</time>
      </trkpt>
      <trkpt lat="45.15803" lon="3.43549">
        <ele>526.787</ele>
        <time>2020-08-17T16:14:54Z</time>
      </trkpt>
      <trkpt lat="45.1581" lon="3.43554">
        <ele>527.423</ele>
        <time>2020-08-17T16:14:58Z</time>
      </trkpt>
      <trkpt lat="45.15816" lon="3.43562">
        <ele>528.962</ele>
        <time>2020-08-17T16:15:03Z</time>
      </trkpt>
      <trkpt lat="45.15822" lon="3.43576">
        <ele>529.261</ele>
        <time>2020-08-17T16:15:09Z</time>
      </trkpt>
      <trkpt lat="45.15825" lon="3.43591">
        <ele>529.224</ele>
        <time>2020-08-17T16:15:14Z</time>
      </trkpt>
      <trkpt lat="45.15828" lon="3.43608">
        <ele>529.6</ele>
        <time>2020-08-17T16:15:22Z</time>
      </trkpt>
      <trkpt lat="45.15828" lon="3.43612">
        <ele>529.616</ele>
        <time>2020-08-17T16:15:24Z</time>
      </trkpt>
      <trkpt lat="45.15825" lon="3.43636">
        <ele>530.81</ele>
        <time>2020-08-17T16:15:34Z</time>
      </trkpt>
      <trkpt lat="45.1582" lon="3.43664">
        <ele>530.346</ele>
        <time>2020-08-17T16:15:47Z</time>
      </trkpt>
      <trkpt lat="45.15815" lon="3.43677">
        <ele>530.577</ele>
        <time>2020-08-17T16:15:52Z</time>
      </trkpt>
      <trkpt lat="45.15806" lon="3.43688">
        <ele>530.717</ele>
        <time>2020-08-17T16:15:57Z</time>
      </trkpt>
      <trkpt lat="45.15803" lon="3.43688">
        <ele>530.88</ele>
        <time>2020-08-17T16:15:59Z</time>
      </trkpt>
      <trkpt lat="45.158" lon="3.43688">
        <ele>531.203</ele>
        <time>2020-08-17T16:16:02Z</time>
      </trkpt>
      <trkpt lat="45.15796" lon="3.43688">
        <ele>531.339</ele>
        <time>2020-08-17T16:16:05Z</time>
      </trkpt>
      <trkpt lat="45.15795" lon="3.43687">
        <ele>531.108</ele>
        <time>2020-08-17T16:16:06Z</time>
      </trkpt>
      <trkpt lat="45.15791" lon="3.43687">
        <ele>530.673</ele>
        <time>2020-08-17T16:16:09Z</time>
      </trkpt>
      <trkpt lat="45.15774" lon="3.4369">
        <ele>528.63</ele>
        <time>2020-08-17T16:16:22Z</time>
      </trkpt>
      <trkpt lat="45.15751" lon="3.4369">
        <ele>528.319</ele>
        <time>2020-08-17T16:16:37Z</time>
      </trkpt>
      <trkpt lat="45.15749" lon="3.4369">
        <ele>527.787</ele>
        <time>2020-08-17T16:16:39Z</time>
      </trkpt>
      <trkpt lat="45.15747" lon="3.43689">
        <ele>527.969</ele>
        <time>2020-08-17T16:16:43Z</time>
      </trkpt>
      <trkpt lat="45.15747" lon="3.43688">
        <ele>528.391</ele>
        <time>2020-08-17T16:16:44Z</time>
      </trkpt>
      <trkpt lat="45.15744" lon="3.43686">
        <ele>529.231</ele>
        <time>2020-08-17T16:16:47Z</time>
      </trkpt>
      <trkpt lat="45.15742" lon="3.43686">
        <ele>529.482</ele>
        <time>2020-08-17T16:16:48Z</time>
      </trkpt>
      <trkpt lat="45.15739" lon="3.43687">
        <ele>529.509</ele>
        <time>2020-08-17T16:16:51Z</time>
      </trkpt>
      <trkpt lat="45.15739" lon="3.43687">
        <ele>529.526</ele>
        <time>2020-08-17T16:17:06Z</time>
      </trkpt>
      <trkpt lat="45.15737" lon="3.4369">
        <ele>529.465</ele>
        <time>2020-08-17T16:17:07Z</time>
      </trkpt>
      <trkpt lat="45.15736" lon="3.43689">
        <ele>529.429</ele>
        <time>2020-08-17T16:17:08Z</time>
      </trkpt>
      <trkpt lat="45.15735" lon="3.43688">
        <ele>529.369</ele>
        <time>2020-08-17T16:17:09Z</time>
      </trkpt>
      <trkpt lat="45.15728" lon="3.43679">
        <ele>529.185</ele>
        <time>2020-08-17T16:17:15Z</time>
      </trkpt>
      <trkpt lat="45.15719" lon="3.43669">
        <ele>528.477</ele>
        <time>2020-08-17T16:17:23Z</time>
      </trkpt>
      <trkpt lat="45.15716" lon="3.4367">
        <ele>528.303</ele>
        <time>2020-08-17T16:17:26Z</time>
      </trkpt>
      <trkpt lat="45.15713" lon="3.43669">
        <ele>528.23</ele>
        <time>2020-08-17T16:17:29Z</time>
      </trkpt>
      <trkpt lat="45.15706" lon="3.43664">
        <ele>527.788</ele>
        <time>2020-08-17T16:17:34Z</time>
      </trkpt>
      <trkpt lat="45.15687" lon="3.43654">
        <ele>528.061</ele>
        <time>2020-08-17T16:17:46Z</time>
      </trkpt>
      <trkpt lat="45.15681" lon="3.43651">
        <ele>527.669</ele>
        <time>2020-08-17T16:17:50Z</time>
      </trkpt>
      <trkpt lat="45.15663" lon="3.43641">
        <ele>525.563</ele>
        <time>2020-08-17T16:18:05Z</time>
      </trkpt>
      <trkpt lat="45.15652" lon="3.43633">
        <ele>523.324</ele>
        <time>2020-08-17T16:18:16Z</time>
      </trkpt>
      <trkpt lat="45.15645" lon="3.43634">
        <ele>523.053</ele>
        <time>2020-08-17T16:18:20Z</time>
      </trkpt>
      <trkpt lat="45.15637" lon="3.43635">
        <ele>523.089</ele>
        <time>2020-08-17T16:18:25Z</time>
      </trkpt>
      <trkpt lat="45.15632" lon="3.43633">
        <ele>522.385</ele>
        <time>2020-08-17T16:18:28Z</time>
      </trkpt>
      <trkpt lat="45.1563" lon="3.43629">
        <ele>521.8</ele>
        <time>2020-08-17T16:18:32Z</time>
      </trkpt>
      <trkpt lat="45.15628" lon="3.43625">
        <ele>521.354</ele>
        <time>2020-08-17T16:18:34Z</time>
      </trkpt>
      <trkpt lat="45.15623" lon="3.43625">
        <ele>520.712</ele>
        <time>2020-08-17T16:18:37Z</time>
      </trkpt>
      <trkpt lat="45.15617" lon="3.43621">
        <ele>520.208</ele>
        <time>2020-08-17T16:18:42Z</time>
      </trkpt>
      <trkpt lat="45.15613" lon="3.4362">
        <ele>519.739</ele>
        <time>2020-08-17T16:18:45Z</time>
      </trkpt>
      <trkpt lat="45.15607" lon="3.43618">
        <ele>519.577</ele>
        <time>2020-08-17T16:18:49Z</time>
      </trkpt>
      <trkpt lat="45.15595" lon="3.43614">
        <ele>518.951</ele>
        <time>2020-08-17T16:18:57Z</time>
      </trkpt>
      <trkpt lat="45.15584" lon="3.43609">
        <ele>518.232</ele>
        <time>2020-08-17T16:19:04Z</time>
      </trkpt>
      <trkpt lat="45.15569" lon="3.43601">
        <ele>517.231</ele>
        <time>2020-08-17T16:19:15Z</time>
      </trkpt>
      <trkpt lat="45.1556" lon="3.43595">
        <ele>515.032</ele>
        <time>2020-08-17T16:19:23Z</time>
      </trkpt>
      <trkpt lat="45.15555" lon="3.43588">
        <ele>514.532</ele>
        <time>2020-08-17T16:19:29Z</time>
      </trkpt>
      <trkpt lat="45.15551" lon="3.43579">
        <ele>512.031</ele>
        <time>2020-08-17T16:19:36Z</time>
      </trkpt>
      <trkpt lat="45.15551" lon="3.43579">
        <ele>511.064</ele>
        <time>2020-08-17T16:19:38Z</time>
      </trkpt>
      <trkpt lat="45.15551" lon="3.43579">
        <ele>511.064</ele>
        <time>2020-08-17T16:19:38Z</time>
      </trkpt>
      <trkpt lat="45.15551" lon="3.43579">
        <ele>510.57</ele>
        <time>2020-08-17T16:19:39Z</time>
      </trkpt>
      <trkpt lat="45.15551" lon="3.43579">
        <ele>510.392</ele>
        <time>2020-08-17T16:19:46Z</time>
      </trkpt>
      <trkpt lat="45.1555" lon="3.43585">
        <ele>510.06</ele>
        <time>2020-08-17T16:19:47Z</time>
      </trkpt>
      <trkpt lat="45.1555" lon="3.43585">
        <ele>510.06</ele>
        <time>2020-08-17T16:19:47Z</time>
      </trkpt>
      <trkpt lat="45.1555" lon="3.43585">
        <ele>509.3</ele>
        <time>2020-08-17T16:19:48Z</time>
      </trkpt>
      <trkpt lat="45.1555" lon="3.43585">
        <ele>509.3</ele>
        <time>2020-08-17T16:19:48Z</time>
      </trkpt>
      <trkpt lat="45.1555" lon="3.43585">
        <ele>509.269</ele>
        <time>2020-08-17T16:19:49Z</time>
      </trkpt>
      <trkpt lat="45.15547" lon="3.43584">
        <ele>508.146</ele>
        <time>2020-08-17T16:19:52Z</time>
      </trkpt>
      <trkpt lat="45.15543" lon="3.43583">
        <ele>507.623</ele>
        <time>2020-08-17T16:19:55Z</time>
      </trkpt>
      <trkpt lat="45.15541" lon="3.43584">
        <ele>507.459</ele>
        <time>2020-08-17T16:19:58Z</time>
      </trkpt>
      <trkpt lat="45.15538" lon="3.43585">
        <ele>505.416</ele>
        <time>2020-08-17T16:20:02Z</time>
      </trkpt>
      <trkpt lat="45.15534" lon="3.43587">
        <ele>504.164</ele>
        <time>2020-08-17T16:20:06Z</time>
      </trkpt>
      <trkpt lat="45.15535" lon="3.43587">
        <ele>502.613</ele>
        <time>2020-08-17T16:20:08Z</time>
      </trkpt>
      <trkpt lat="45.15535" lon="3.43587">
        <ele>502.613</ele>
        <time>2020-08-17T16:20:08Z</time>
      </trkpt>
      <trkpt lat="45.15536" lon="3.43587">
        <ele>502.366</ele>
        <time>2020-08-17T16:20:09Z</time>
      </trkpt>
      <trkpt lat="45.15538" lon="3.43588">
        <ele>501.289</ele>
        <time>2020-08-17T16:20:13Z</time>
      </trkpt>
      <trkpt lat="45.15539" lon="3.43587">
        <ele>501.09</ele>
        <time>2020-08-17T16:20:15Z</time>
      </trkpt>
      <trkpt lat="45.15539" lon="3.43587">
        <ele>501.089</ele>
        <time>2020-08-17T16:20:16Z</time>
      </trkpt>
      <trkpt lat="45.1554" lon="3.43586">
        <ele>501.138</ele>
        <time>2020-08-17T16:20:17Z</time>
      </trkpt>
      <trkpt lat="45.1554" lon="3.43586">
        <ele>501.047</ele>
        <time>2020-08-17T16:20:18Z</time>
      </trkpt>
      <trkpt lat="45.1554" lon="3.43586">
        <ele>501.027</ele>
        <time>2020-08-17T16:20:25Z</time>
      </trkpt>
      <trkpt lat="45.15538" lon="3.43588">
        <ele>500.74</ele>
        <time>2020-08-17T16:20:26Z</time>
      </trkpt>
      <trkpt lat="45.15537" lon="3.43588">
        <ele>500.552</ele>
        <time>2020-08-17T16:20:27Z</time>
      </trkpt>
      <trkpt lat="45.15533" lon="3.43594">
        <ele>499.168</ele>
        <time>2020-08-17T16:20:36Z</time>
      </trkpt>
      <trkpt lat="45.15534" lon="3.43599">
        <ele>498.337</ele>
        <time>2020-08-17T16:20:41Z</time>
      </trkpt>
      <trkpt lat="45.15534" lon="3.43599">
        <ele>498.337</ele>
        <time>2020-08-17T16:20:41Z</time>
      </trkpt>
      <trkpt lat="45.15534" lon="3.43599">
        <ele>498.705</ele>
        <time>2020-08-17T16:20:42Z</time>
      </trkpt>
      <trkpt lat="45.15534" lon="3.43599">
        <ele>498.705</ele>
        <time>2020-08-17T16:20:42Z</time>
      </trkpt>
      <trkpt lat="45.15534" lon="3.436">
        <ele>498.318</ele>
        <time>2020-08-17T16:20:43Z</time>
      </trkpt>
      <trkpt lat="45.15533" lon="3.43604">
        <ele>498.366</ele>
        <time>2020-08-17T16:20:47Z</time>
      </trkpt>
      <trkpt lat="45.15534" lon="3.43605">
        <ele>498.471</ele>
        <time>2020-08-17T16:20:50Z</time>
      </trkpt>
      <trkpt lat="45.15534" lon="3.43605">
        <ele>498.707</ele>
        <time>2020-08-17T16:20:51Z</time>
      </trkpt>
      <trkpt lat="45.15534" lon="3.43605">
        <ele>498.743</ele>
        <time>2020-08-17T16:20:52Z</time>
      </trkpt>
      <trkpt lat="45.15534" lon="3.43605">
        <ele>498.679</ele>
        <time>2020-08-17T16:20:53Z</time>
      </trkpt>
      <trkpt lat="45.15534" lon="3.43607">
        <ele>499.546</ele>
        <time>2020-08-17T16:20:54Z</time>
      </trkpt>
      <trkpt lat="45.15532" lon="3.43649">
        <ele>497.496</ele>
        <time>2020-08-17T16:21:19Z</time>
      </trkpt>
      <trkpt lat="45.15534" lon="3.43658">
        <ele>498.159</ele>
        <time>2020-08-17T16:21:24Z</time>
      </trkpt>
      <trkpt lat="45.15534" lon="3.4366">
        <ele>498.077</ele>
        <time>2020-08-17T16:21:26Z</time>
      </trkpt>
      <trkpt lat="45.15535" lon="3.43664">
        <ele>497.916</ele>
        <time>2020-08-17T16:21:30Z</time>
      </trkpt>
      <trkpt lat="45.15537" lon="3.43668">
        <ele>498.306</ele>
        <time>2020-08-17T16:21:34Z</time>
      </trkpt>
      <trkpt lat="45.15541" lon="3.43691">
        <ele>498.71</ele>
        <time>2020-08-17T16:21:48Z</time>
      </trkpt>
      <trkpt lat="45.1554" lon="3.43692">
        <ele>499.077</ele>
        <time>2020-08-17T16:21:50Z</time>
      </trkpt>
      <trkpt lat="45.1554" lon="3.43692">
        <ele>499.077</ele>
        <time>2020-08-17T16:21:50Z</time>
      </trkpt>
      <trkpt lat="45.1554" lon="3.43694">
        <ele>499.07</ele>
        <time>2020-08-17T16:21:51Z</time>
      </trkpt>
      <trkpt lat="45.1554" lon="3.43695">
        <ele>499.126</ele>
        <time>2020-08-17T16:21:52Z</time>
      </trkpt>
      <trkpt lat="45.15541" lon="3.43696">
        <ele>498.955</ele>
        <time>2020-08-17T16:21:53Z</time>
      </trkpt>
      <trkpt lat="45.15541" lon="3.43698">
        <ele>498.976</ele>
        <time>2020-08-17T16:21:54Z</time>
      </trkpt>
      <trkpt lat="45.15542" lon="3.43704">
        <ele>499.183</ele>
        <time>2020-08-17T16:21:56Z</time>
      </trkpt>
      <trkpt lat="45.15542" lon="3.43717">
        <ele>498.501</ele>
        <time>2020-08-17T16:22:05Z</time>
      </trkpt>
      <trkpt lat="45.15542" lon="3.43718">
        <ele>498.61</ele>
        <time>2020-08-17T16:22:06Z</time>
      </trkpt>
      <trkpt lat="45.15542" lon="3.43718">
        <ele>498.514</ele>
        <time>2020-08-17T16:22:07Z</time>
      </trkpt>
      <trkpt lat="45.15542" lon="3.43718">
        <ele>498.514</ele>
        <time>2020-08-17T16:22:07Z</time>
      </trkpt>
      <trkpt lat="45.15542" lon="3.43719">
        <ele>498.563</ele>
        <time>2020-08-17T16:22:08Z</time>
      </trkpt>
      <trkpt lat="45.15542" lon="3.4372">
        <ele>498.504</ele>
        <time>2020-08-17T16:22:09Z</time>
      </trkpt>
      <trkpt lat="45.15538" lon="3.43722">
        <ele>498.159</ele>
        <time>2020-08-17T16:22:12Z</time>
      </trkpt>
      <trkpt lat="45.15534" lon="3.43724">
        <ele>498.424</ele>
        <time>2020-08-17T16:22:17Z</time>
      </trkpt>
      <trkpt lat="45.15534" lon="3.43724">
        <ele>498.424</ele>
        <time>2020-08-17T16:22:17Z</time>
      </trkpt>
      <trkpt lat="45.15533" lon="3.43724">
        <ele>498.345</ele>
        <time>2020-08-17T16:22:18Z</time>
      </trkpt>
      <trkpt lat="45.15533" lon="3.43725">
        <ele>498.284</ele>
        <time>2020-08-17T16:22:19Z</time>
      </trkpt>
      <trkpt lat="45.15532" lon="3.43731">
        <ele>497.924</ele>
        <time>2020-08-17T16:22:23Z</time>
      </trkpt>
      <trkpt lat="45.15532" lon="3.43734">
        <ele>497.426</ele>
        <time>2020-08-17T16:22:26Z</time>
      </trkpt>
      <trkpt lat="45.15529" lon="3.43734">
        <ele>495.79</ele>
        <time>2020-08-17T16:22:32Z</time>
      </trkpt>
      <trkpt lat="45.15529" lon="3.43733">
        <ele>495.923</ele>
        <time>2020-08-17T16:22:33Z</time>
      </trkpt>
      <trkpt lat="45.15528" lon="3.43732">
        <ele>495.531</ele>
        <time>2020-08-17T16:22:35Z</time>
      </trkpt>
      <trkpt lat="45.15528" lon="3.43732">
        <ele>495.462</ele>
        <time>2020-08-17T16:22:36Z</time>
      </trkpt>
      <trkpt lat="45.15529" lon="3.43732">
        <ele>495.483</ele>
        <time>2020-08-17T16:22:37Z</time>
      </trkpt>
      <trkpt lat="45.15529" lon="3.43732">
        <ele>495.483</ele>
        <time>2020-08-17T16:22:37Z</time>
      </trkpt>
      <trkpt lat="45.15529" lon="3.43731">
        <ele>495.358</ele>
        <time>2020-08-17T16:22:38Z</time>
      </trkpt>
      <trkpt lat="45.15529" lon="3.4373">
        <ele>495.425</ele>
        <time>2020-08-17T16:22:39Z</time>
      </trkpt>
      <trkpt lat="45.1553" lon="3.43729">
        <ele>495.261</ele>
        <time>2020-08-17T16:22:40Z</time>
      </trkpt>
      <trkpt lat="45.1553" lon="3.43728">
        <ele>495.124</ele>
        <time>2020-08-17T16:22:43Z</time>
      </trkpt>
      <trkpt lat="45.1553" lon="3.43726">
        <ele>495.321</ele>
        <time>2020-08-17T16:22:46Z</time>
      </trkpt>
      <trkpt lat="45.15527" lon="3.43724">
        <ele>494.021</ele>
        <time>2020-08-17T16:22:55Z</time>
      </trkpt>
      <trkpt lat="45.15526" lon="3.43727">
        <ele>492.536</ele>
        <time>2020-08-17T16:23:03Z</time>
      </trkpt>
      <trkpt lat="45.15526" lon="3.43727">
        <ele>492.536</ele>
        <time>2020-08-17T16:23:03Z</time>
      </trkpt>
      <trkpt lat="45.15526" lon="3.43727">
        <ele>492.51</ele>
        <time>2020-08-17T16:23:04Z</time>
      </trkpt>
      <trkpt lat="45.15526" lon="3.43727">
        <ele>492.51</ele>
        <time>2020-08-17T16:23:04Z</time>
      </trkpt>
      <trkpt lat="45.15526" lon="3.43726">
        <ele>492.449</ele>
        <time>2020-08-17T16:23:05Z</time>
      </trkpt>
      <trkpt lat="45.15526" lon="3.43726">
        <ele>492.449</ele>
        <time>2020-08-17T16:23:05Z</time>
      </trkpt>
      <trkpt lat="45.15525" lon="3.43726">
        <ele>492.373</ele>
        <time>2020-08-17T16:23:06Z</time>
      </trkpt>
      <trkpt lat="45.15525" lon="3.43726">
        <ele>492.232</ele>
        <time>2020-08-17T16:23:07Z</time>
      </trkpt>
      <trkpt lat="45.15524" lon="3.43726">
        <ele>491.942</ele>
        <time>2020-08-17T16:23:09Z</time>
      </trkpt>
      <trkpt lat="45.15524" lon="3.43725">
        <ele>491.561</ele>
        <time>2020-08-17T16:23:12Z</time>
      </trkpt>
      <trkpt lat="45.15524" lon="3.43725">
        <ele>492.109</ele>
        <time>2020-08-17T16:23:29Z</time>
      </trkpt>
      <trkpt lat="45.15524" lon="3.43723">
        <ele>491.733</ele>
        <time>2020-08-17T16:23:30Z</time>
      </trkpt>
      <trkpt lat="45.15524" lon="3.43723">
        <ele>491.679</ele>
        <time>2020-08-17T16:23:31Z</time>
      </trkpt>
      <trkpt lat="45.15524" lon="3.43723">
        <ele>491.679</ele>
        <time>2020-08-17T16:23:31Z</time>
      </trkpt>
      <trkpt lat="45.15523" lon="3.43723">
        <ele>491.854</ele>
        <time>2020-08-17T16:23:32Z</time>
      </trkpt>
      <trkpt lat="45.15522" lon="3.43723">
        <ele>491.434</ele>
        <time>2020-08-17T16:23:33Z</time>
      </trkpt>
      <trkpt lat="45.15518" lon="3.43725">
        <ele>490.089</ele>
        <time>2020-08-17T16:23:40Z</time>
      </trkpt>
      <trkpt lat="45.15518" lon="3.43725">
        <ele>489.822</ele>
        <time>2020-08-17T16:23:41Z</time>
      </trkpt>
      <trkpt lat="45.15517" lon="3.43724">
        <ele>489.721</ele>
        <time>2020-08-17T16:23:43Z</time>
      </trkpt>
      <trkpt lat="45.15516" lon="3.43724">
        <ele>489.374</ele>
        <time>2020-08-17T16:23:44Z</time>
      </trkpt>
      <trkpt lat="45.15516" lon="3.43723">
        <ele>488.614</ele>
        <time>2020-08-17T16:23:45Z</time>
      </trkpt>
      <trkpt lat="45.15517" lon="3.4372">
        <ele>486.488</ele>
        <time>2020-08-17T16:23:49Z</time>
      </trkpt>
      <trkpt lat="45.15516" lon="3.43706">
        <ele>486.398</ele>
        <time>2020-08-17T16:23:57Z</time>
      </trkpt>
      <trkpt lat="45.15512" lon="3.43704">
        <ele>487.432</ele>
        <time>2020-08-17T16:23:59Z</time>
      </trkpt>
      <trkpt lat="45.15506" lon="3.43701">
        <ele>487.692</ele>
        <time>2020-08-17T16:24:03Z</time>
      </trkpt>
      <trkpt lat="45.15501" lon="3.43705">
        <ele>487.292</ele>
        <time>2020-08-17T16:24:11Z</time>
      </trkpt>
      <trkpt lat="45.15495" lon="3.43706">
        <ele>486.494</ele>
        <time>2020-08-17T16:24:18Z</time>
      </trkpt>
      <trkpt lat="45.15493" lon="3.43708">
        <ele>486.172</ele>
        <time>2020-08-17T16:24:23Z</time>
      </trkpt>
      <trkpt lat="45.15493" lon="3.43709">
        <ele>485.508</ele>
        <time>2020-08-17T16:24:24Z</time>
      </trkpt>
      <trkpt lat="45.15493" lon="3.43709">
        <ele>485.508</ele>
        <time>2020-08-17T16:24:24Z</time>
      </trkpt>
      <trkpt lat="45.15493" lon="3.43709">
        <ele>485.447</ele>
        <time>2020-08-17T16:24:25Z</time>
      </trkpt>
      <trkpt lat="45.15493" lon="3.43709">
        <ele>484.942</ele>
        <time>2020-08-17T16:24:37Z</time>
      </trkpt>
      <trkpt lat="45.15494" lon="3.43709">
        <ele>485.075</ele>
        <time>2020-08-17T16:24:38Z</time>
      </trkpt>
      <trkpt lat="45.15494" lon="3.43709">
        <ele>484.601</ele>
        <time>2020-08-17T16:24:39Z</time>
      </trkpt>
      <trkpt lat="45.15494" lon="3.43709">
        <ele>484.601</ele>
        <time>2020-08-17T16:24:39Z</time>
      </trkpt>
      <trkpt lat="45.15493" lon="3.43709">
        <ele>484.071</ele>
        <time>2020-08-17T16:24:40Z</time>
      </trkpt>
      <trkpt lat="45.15491" lon="3.43709">
        <ele>483.687</ele>
        <time>2020-08-17T16:24:41Z</time>
      </trkpt>
      <trkpt lat="45.15483" lon="3.43711">
        <ele>482.35</ele>
        <time>2020-08-17T16:24:47Z</time>
      </trkpt>
      <trkpt lat="45.15478" lon="3.43712">
        <ele>481.989</ele>
        <time>2020-08-17T16:24:51Z</time>
      </trkpt>
      <trkpt lat="45.15476" lon="3.43713">
        <ele>480.747</ele>
        <time>2020-08-17T16:24:53Z</time>
      </trkpt>
      <trkpt lat="45.15476" lon="3.43713">
        <ele>480.052</ele>
        <time>2020-08-17T16:24:55Z</time>
      </trkpt>
      <trkpt lat="45.15476" lon="3.43713">
        <ele>479.85</ele>
        <time>2020-08-17T16:24:56Z</time>
      </trkpt>
      <trkpt lat="45.15474" lon="3.43713">
        <ele>479.488</ele>
        <time>2020-08-17T16:24:57Z</time>
      </trkpt>
      <trkpt lat="45.15473" lon="3.43713">
        <ele>479.569</ele>
        <time>2020-08-17T16:24:58Z</time>
      </trkpt>
      <trkpt lat="45.15467" lon="3.43715">
        <ele>479.131</ele>
        <time>2020-08-17T16:25:02Z</time>
      </trkpt>
      <trkpt lat="45.15466" lon="3.43715">
        <ele>478.857</ele>
        <time>2020-08-17T16:25:03Z</time>
      </trkpt>
      <trkpt lat="45.15454" lon="3.4372">
        <ele>478.711</ele>
        <time>2020-08-17T16:25:10Z</time>
      </trkpt>
      <trkpt lat="45.15448" lon="3.43721">
        <ele>478.982</ele>
        <time>2020-08-17T16:25:12Z</time>
      </trkpt>
      <trkpt lat="45.15438" lon="3.43726">
        <ele>478.79</ele>
        <time>2020-08-17T16:25:16Z</time>
      </trkpt>
      <trkpt lat="45.15431" lon="3.43729">
        <ele>478.071</ele>
        <time>2020-08-17T16:25:22Z</time>
      </trkpt>
      <trkpt lat="45.1543" lon="3.4373">
        <ele>477.882</ele>
        <time>2020-08-17T16:25:23Z</time>
      </trkpt>
      <trkpt lat="45.15426" lon="3.43746">
        <ele>478.433</ele>
        <time>2020-08-17T16:25:31Z</time>
      </trkpt>
      <trkpt lat="45.15427" lon="3.43749">
        <ele>478.655</ele>
        <time>2020-08-17T16:25:33Z</time>
      </trkpt>
      <trkpt lat="45.15428" lon="3.43752">
        <ele>477.87</ele>
        <time>2020-08-17T16:25:35Z</time>
      </trkpt>
      <trkpt lat="45.15427" lon="3.43772">
        <ele>478.414</ele>
        <time>2020-08-17T16:25:46Z</time>
      </trkpt>
      <trkpt lat="45.15427" lon="3.43773">
        <ele>478.324</ele>
        <time>2020-08-17T16:25:47Z</time>
      </trkpt>
      <trkpt lat="45.15429" lon="3.43787">
        <ele>478.744</ele>
        <time>2020-08-17T16:25:57Z</time>
      </trkpt>
      <trkpt lat="45.15432" lon="3.43797">
        <ele>479.124</ele>
        <time>2020-08-17T16:26:02Z</time>
      </trkpt>
      <trkpt lat="45.15437" lon="3.43808">
        <ele>478.754</ele>
        <time>2020-08-17T16:26:07Z</time>
      </trkpt>
      <trkpt lat="45.15442" lon="3.43819">
        <ele>477.623</ele>
        <time>2020-08-17T16:26:14Z</time>
      </trkpt>
      <trkpt lat="45.15443" lon="3.43827">
        <ele>477.988</ele>
        <time>2020-08-17T16:26:19Z</time>
      </trkpt>
      <trkpt lat="45.15445" lon="3.43841">
        <ele>476.81</ele>
        <time>2020-08-17T16:26:28Z</time>
      </trkpt>
      <trkpt lat="45.15454" lon="3.43863">
        <ele>476.156</ele>
        <time>2020-08-17T16:26:41Z</time>
      </trkpt>
      <trkpt lat="45.15459" lon="3.43873">
        <ele>476.253</ele>
        <time>2020-08-17T16:26:48Z</time>
      </trkpt>
      <trkpt lat="45.1546" lon="3.43883">
        <ele>475.951</ele>
        <time>2020-08-17T16:26:53Z</time>
      </trkpt>
      <trkpt lat="45.15473" lon="3.43917">
        <ele>473.926</ele>
        <time>2020-08-17T16:27:15Z</time>
      </trkpt>
      <trkpt lat="45.15476" lon="3.43929">
        <ele>474.26</ele>
        <time>2020-08-17T16:27:24Z</time>
      </trkpt>
      <trkpt lat="45.15479" lon="3.43929">
        <ele>473.617</ele>
        <time>2020-08-17T16:27:28Z</time>
      </trkpt>
      <trkpt lat="45.15479" lon="3.43929">
        <ele>473.617</ele>
        <time>2020-08-17T16:27:31Z</time>
      </trkpt>
    </trkseg>
  </trk>
</gpx>